<?xml version="1.0" encoding="UTF-8" standalone="no" ?>
<gpx xmlns="http://www.topografix.com/GPX/1/1" xmlns:xsi="http://www.w3.org/2001/XMLSchema-instance" xsi:schemaLocation="http://www.topografix.com/GPX/1/1 http://www.topografix.com/GPX/1/1/gpx.xsd" version="1.1" creator="VisuGPX - https://www.visugpx.com">
  <metadata>
    <name>beauregard monflanquin corconat</name>
    <desc><![CDATA[super circuit partiellement baliser ]]></desc>
  </metadata>
  <trk>
    <name><![CDATA[Sequence 1]]></name>
    <trkseg>
      <trkpt lat="44.53706" lon="0.68474">
        <ele>117</ele>
        <time>2016-07-24T06:48:59Z</time>
      </trkpt>
      <trkpt lat="44.53706" lon="0.68474">
        <ele>117</ele>
        <time>2016-07-24T06:49:01Z</time>
      </trkpt>
      <trkpt lat="44.53707" lon="0.68476">
        <ele>117</ele>
        <time>2016-07-24T06:49:04Z</time>
      </trkpt>
      <trkpt lat="44.53706" lon="0.68477">
        <ele>117</ele>
        <time>2016-07-24T06:49:09Z</time>
      </trkpt>
      <trkpt lat="44.53705" lon="0.68478">
        <ele>117</ele>
        <time>2016-07-24T06:49:12Z</time>
      </trkpt>
      <trkpt lat="44.53712" lon="0.68477">
        <ele>116</ele>
        <time>2016-07-24T06:49:19Z</time>
      </trkpt>
      <trkpt lat="44.5371" lon="0.68476">
        <ele>117</ele>
        <time>2016-07-24T06:49:22Z</time>
      </trkpt>
      <trkpt lat="44.53704" lon="0.68478">
        <ele>117</ele>
        <time>2016-07-24T06:49:27Z</time>
      </trkpt>
      <trkpt lat="44.53691" lon="0.68497">
        <ele>118</ele>
        <time>2016-07-24T06:49:33Z</time>
      </trkpt>
      <trkpt lat="44.537" lon="0.68525">
        <ele>114</ele>
        <time>2016-07-24T06:49:37Z</time>
      </trkpt>
      <trkpt lat="44.53715" lon="0.68579">
        <ele>110</ele>
        <time>2016-07-24T06:49:42Z</time>
      </trkpt>
      <trkpt lat="44.5374" lon="0.68674">
        <ele>103</ele>
        <time>2016-07-24T06:49:50Z</time>
      </trkpt>
      <trkpt lat="44.53736" lon="0.68693">
        <ele>103</ele>
        <time>2016-07-24T06:49:54Z</time>
      </trkpt>
      <trkpt lat="44.53725" lon="0.68699">
        <ele>103</ele>
        <time>2016-07-24T06:49:57Z</time>
      </trkpt>
      <trkpt lat="44.53709" lon="0.687">
        <ele>104</ele>
        <time>2016-07-24T06:50:02Z</time>
      </trkpt>
      <trkpt lat="44.53693" lon="0.68703">
        <ele>104</ele>
        <time>2016-07-24T06:50:07Z</time>
      </trkpt>
      <trkpt lat="44.53678" lon="0.6871">
        <ele>105</ele>
        <time>2016-07-24T06:50:12Z</time>
      </trkpt>
      <trkpt lat="44.53662" lon="0.68713">
        <ele>105</ele>
        <time>2016-07-24T06:50:17Z</time>
      </trkpt>
      <trkpt lat="44.53644" lon="0.68715">
        <ele>106</ele>
        <time>2016-07-24T06:50:22Z</time>
      </trkpt>
      <trkpt lat="44.53624" lon="0.68715">
        <ele>107</ele>
        <time>2016-07-24T06:50:27Z</time>
      </trkpt>
      <trkpt lat="44.53606" lon="0.68719">
        <ele>107</ele>
        <time>2016-07-24T06:50:32Z</time>
      </trkpt>
      <trkpt lat="44.53594" lon="0.68723">
        <ele>108</ele>
        <time>2016-07-24T06:50:37Z</time>
      </trkpt>
      <trkpt lat="44.53582" lon="0.68729">
        <ele>108</ele>
        <time>2016-07-24T06:50:42Z</time>
      </trkpt>
      <trkpt lat="44.53561" lon="0.68731">
        <ele>110</ele>
        <time>2016-07-24T06:50:49Z</time>
      </trkpt>
      <trkpt lat="44.53552" lon="0.68733">
        <ele>110</ele>
        <time>2016-07-24T06:50:52Z</time>
      </trkpt>
      <trkpt lat="44.53534" lon="0.6874">
        <ele>112</ele>
        <time>2016-07-24T06:50:58Z</time>
      </trkpt>
      <trkpt lat="44.53527" lon="0.68747">
        <ele>112</ele>
        <time>2016-07-24T06:51:02Z</time>
      </trkpt>
      <trkpt lat="44.53517" lon="0.68748">
        <ele>113</ele>
        <time>2016-07-24T06:51:07Z</time>
      </trkpt>
      <trkpt lat="44.53502" lon="0.68736">
        <ele>115</ele>
        <time>2016-07-24T06:51:15Z</time>
      </trkpt>
      <trkpt lat="44.53499" lon="0.68731">
        <ele>115</ele>
        <time>2016-07-24T06:51:17Z</time>
      </trkpt>
      <trkpt lat="44.53493" lon="0.68721">
        <ele>117</ele>
        <time>2016-07-24T06:51:22Z</time>
      </trkpt>
      <trkpt lat="44.53485" lon="0.68713">
        <ele>118</ele>
        <time>2016-07-24T06:51:27Z</time>
      </trkpt>
      <trkpt lat="44.53476" lon="0.68705">
        <ele>119</ele>
        <time>2016-07-24T06:51:33Z</time>
      </trkpt>
      <trkpt lat="44.53472" lon="0.68696">
        <ele>120</ele>
        <time>2016-07-24T06:51:37Z</time>
      </trkpt>
      <trkpt lat="44.53465" lon="0.68686">
        <ele>122</ele>
        <time>2016-07-24T06:51:42Z</time>
      </trkpt>
      <trkpt lat="44.53453" lon="0.68674">
        <ele>124</ele>
        <time>2016-07-24T06:51:49Z</time>
      </trkpt>
      <trkpt lat="44.53448" lon="0.68675">
        <ele>125</ele>
        <time>2016-07-24T06:51:52Z</time>
      </trkpt>
      <trkpt lat="44.53439" lon="0.68678">
        <ele>126</ele>
        <time>2016-07-24T06:51:57Z</time>
      </trkpt>
      <trkpt lat="44.5343" lon="0.68683">
        <ele>126</ele>
        <time>2016-07-24T06:52:02Z</time>
      </trkpt>
      <trkpt lat="44.53415" lon="0.68694">
        <ele>127</ele>
        <time>2016-07-24T06:52:10Z</time>
      </trkpt>
      <trkpt lat="44.53411" lon="0.68698">
        <ele>127</ele>
        <time>2016-07-24T06:52:12Z</time>
      </trkpt>
      <trkpt lat="44.53397" lon="0.68712">
        <ele>128</ele>
        <time>2016-07-24T06:52:20Z</time>
      </trkpt>
      <trkpt lat="44.53388" lon="0.68718">
        <ele>128</ele>
        <time>2016-07-24T06:52:25Z</time>
      </trkpt>
      <trkpt lat="44.53386" lon="0.6872">
        <ele>128</ele>
        <time>2016-07-24T06:52:26Z</time>
      </trkpt>
      <trkpt lat="44.53381" lon="0.68735">
        <ele>128</ele>
        <time>2016-07-24T06:52:31Z</time>
      </trkpt>
      <trkpt lat="44.53378" lon="0.68754">
        <ele>127</ele>
        <time>2016-07-24T06:52:36Z</time>
      </trkpt>
      <trkpt lat="44.53372" lon="0.68768">
        <ele>127</ele>
        <time>2016-07-24T06:52:41Z</time>
      </trkpt>
      <trkpt lat="44.53367" lon="0.68781">
        <ele>127</ele>
        <time>2016-07-24T06:52:46Z</time>
      </trkpt>
      <trkpt lat="44.53361" lon="0.68793">
        <ele>127</ele>
        <time>2016-07-24T06:52:51Z</time>
      </trkpt>
      <trkpt lat="44.53356" lon="0.68816">
        <ele>127</ele>
        <time>2016-07-24T06:52:58Z</time>
      </trkpt>
      <trkpt lat="44.5335" lon="0.68826">
        <ele>128</ele>
        <time>2016-07-24T06:53:01Z</time>
      </trkpt>
      <trkpt lat="44.53336" lon="0.68858">
        <ele>130</ele>
        <time>2016-07-24T06:53:09Z</time>
      </trkpt>
      <trkpt lat="44.53333" lon="0.68868">
        <ele>130</ele>
        <time>2016-07-24T06:53:11Z</time>
      </trkpt>
      <trkpt lat="44.53312" lon="0.68897">
        <ele>132</ele>
        <time>2016-07-24T06:53:19Z</time>
      </trkpt>
      <trkpt lat="44.53307" lon="0.68904">
        <ele>132</ele>
        <time>2016-07-24T06:53:21Z</time>
      </trkpt>
      <trkpt lat="44.53295" lon="0.6892">
        <ele>133</ele>
        <time>2016-07-24T06:53:27Z</time>
      </trkpt>
      <trkpt lat="44.53283" lon="0.68943">
        <ele>133</ele>
        <time>2016-07-24T06:53:34Z</time>
      </trkpt>
      <trkpt lat="44.5328" lon="0.68949">
        <ele>133</ele>
        <time>2016-07-24T06:53:36Z</time>
      </trkpt>
      <trkpt lat="44.5327" lon="0.68965">
        <ele>133</ele>
        <time>2016-07-24T06:53:41Z</time>
      </trkpt>
      <trkpt lat="44.53262" lon="0.68978">
        <ele>133</ele>
        <time>2016-07-24T06:53:46Z</time>
      </trkpt>
      <trkpt lat="44.5325" lon="0.68986">
        <ele>133</ele>
        <time>2016-07-24T06:53:51Z</time>
      </trkpt>
      <trkpt lat="44.53234" lon="0.68987">
        <ele>133</ele>
        <time>2016-07-24T06:53:56Z</time>
      </trkpt>
      <trkpt lat="44.53215" lon="0.68976">
        <ele>133</ele>
        <time>2016-07-24T06:54:03Z</time>
      </trkpt>
      <trkpt lat="44.53206" lon="0.68971">
        <ele>133</ele>
        <time>2016-07-24T06:54:06Z</time>
      </trkpt>
      <trkpt lat="44.53181" lon="0.68952">
        <ele>133</ele>
        <time>2016-07-24T06:54:15Z</time>
      </trkpt>
      <trkpt lat="44.53179" lon="0.68949">
        <ele>133</ele>
        <time>2016-07-24T06:54:16Z</time>
      </trkpt>
      <trkpt lat="44.53169" lon="0.68932">
        <ele>134</ele>
        <time>2016-07-24T06:54:21Z</time>
      </trkpt>
      <trkpt lat="44.53163" lon="0.68925">
        <ele>134</ele>
        <time>2016-07-24T06:54:26Z</time>
      </trkpt>
      <trkpt lat="44.53152" lon="0.68911">
        <ele>135</ele>
        <time>2016-07-24T06:54:31Z</time>
      </trkpt>
      <trkpt lat="44.53141" lon="0.68893">
        <ele>135</ele>
        <time>2016-07-24T06:54:36Z</time>
      </trkpt>
      <trkpt lat="44.53129" lon="0.68871">
        <ele>135</ele>
        <time>2016-07-24T06:54:43Z</time>
      </trkpt>
      <trkpt lat="44.53124" lon="0.68859">
        <ele>135</ele>
        <time>2016-07-24T06:54:46Z</time>
      </trkpt>
      <trkpt lat="44.53115" lon="0.6884">
        <ele>135</ele>
        <time>2016-07-24T06:54:51Z</time>
      </trkpt>
      <trkpt lat="44.53101" lon="0.68827">
        <ele>135</ele>
        <time>2016-07-24T06:54:56Z</time>
      </trkpt>
      <trkpt lat="44.53091" lon="0.68815">
        <ele>135</ele>
        <time>2016-07-24T06:55:01Z</time>
      </trkpt>
      <trkpt lat="44.53078" lon="0.68803">
        <ele>135</ele>
        <time>2016-07-24T06:55:06Z</time>
      </trkpt>
      <trkpt lat="44.53065" lon="0.68792">
        <ele>136</ele>
        <time>2016-07-24T06:55:11Z</time>
      </trkpt>
      <trkpt lat="44.53053" lon="0.68778">
        <ele>136</ele>
        <time>2016-07-24T06:55:16Z</time>
      </trkpt>
      <trkpt lat="44.5304" lon="0.68767">
        <ele>137</ele>
        <time>2016-07-24T06:55:21Z</time>
      </trkpt>
      <trkpt lat="44.53017" lon="0.68745">
        <ele>137</ele>
        <time>2016-07-24T06:55:30Z</time>
      </trkpt>
      <trkpt lat="44.53015" lon="0.68743">
        <ele>137</ele>
        <time>2016-07-24T06:55:31Z</time>
      </trkpt>
      <trkpt lat="44.53002" lon="0.68731">
        <ele>137</ele>
        <time>2016-07-24T06:55:36Z</time>
      </trkpt>
      <trkpt lat="44.52987" lon="0.68717">
        <ele>137</ele>
        <time>2016-07-24T06:55:42Z</time>
      </trkpt>
      <trkpt lat="44.52977" lon="0.68708">
        <ele>137</ele>
        <time>2016-07-24T06:55:46Z</time>
      </trkpt>
      <trkpt lat="44.52963" lon="0.68701">
        <ele>137</ele>
        <time>2016-07-24T06:55:51Z</time>
      </trkpt>
      <trkpt lat="44.5295" lon="0.68699">
        <ele>137</ele>
        <time>2016-07-24T06:55:56Z</time>
      </trkpt>
      <trkpt lat="44.52937" lon="0.68701">
        <ele>137</ele>
        <time>2016-07-24T06:56:01Z</time>
      </trkpt>
      <trkpt lat="44.52924" lon="0.68701">
        <ele>137</ele>
        <time>2016-07-24T06:56:06Z</time>
      </trkpt>
      <trkpt lat="44.52911" lon="0.687">
        <ele>137</ele>
        <time>2016-07-24T06:56:11Z</time>
      </trkpt>
      <trkpt lat="44.52895" lon="0.687">
        <ele>137</ele>
        <time>2016-07-24T06:56:17Z</time>
      </trkpt>
      <trkpt lat="44.52884" lon="0.687">
        <ele>137</ele>
        <time>2016-07-24T06:56:21Z</time>
      </trkpt>
      <trkpt lat="44.52871" lon="0.68695">
        <ele>136</ele>
        <time>2016-07-24T06:56:26Z</time>
      </trkpt>
      <trkpt lat="44.52859" lon="0.68694">
        <ele>136</ele>
        <time>2016-07-24T06:56:31Z</time>
      </trkpt>
      <trkpt lat="44.52838" lon="0.68701">
        <ele>136</ele>
        <time>2016-07-24T06:56:39Z</time>
      </trkpt>
      <trkpt lat="44.52831" lon="0.68695">
        <ele>136</ele>
        <time>2016-07-24T06:56:42Z</time>
      </trkpt>
      <trkpt lat="44.52823" lon="0.6869">
        <ele>137</ele>
        <time>2016-07-24T06:56:46Z</time>
      </trkpt>
      <trkpt lat="44.52802" lon="0.6868">
        <ele>137</ele>
        <time>2016-07-24T06:56:55Z</time>
      </trkpt>
      <trkpt lat="44.52797" lon="0.68679">
        <ele>138</ele>
        <time>2016-07-24T06:56:58Z</time>
      </trkpt>
      <trkpt lat="44.52779" lon="0.68674">
        <ele>139</ele>
        <time>2016-07-24T06:57:05Z</time>
      </trkpt>
      <trkpt lat="44.52776" lon="0.68675">
        <ele>139</ele>
        <time>2016-07-24T06:57:06Z</time>
      </trkpt>
      <trkpt lat="44.5276" lon="0.68675">
        <ele>141</ele>
        <time>2016-07-24T06:57:11Z</time>
      </trkpt>
      <trkpt lat="44.52746" lon="0.68676">
        <ele>142</ele>
        <time>2016-07-24T06:57:16Z</time>
      </trkpt>
      <trkpt lat="44.52731" lon="0.68675">
        <ele>143</ele>
        <time>2016-07-24T06:57:21Z</time>
      </trkpt>
      <trkpt lat="44.52702" lon="0.68676">
        <ele>145</ele>
        <time>2016-07-24T06:57:30Z</time>
      </trkpt>
      <trkpt lat="44.527" lon="0.68676">
        <ele>145</ele>
        <time>2016-07-24T06:57:31Z</time>
      </trkpt>
      <trkpt lat="44.52684" lon="0.68677">
        <ele>145</ele>
        <time>2016-07-24T06:57:36Z</time>
      </trkpt>
      <trkpt lat="44.52664" lon="0.68675">
        <ele>145</ele>
        <time>2016-07-24T06:57:43Z</time>
      </trkpt>
      <trkpt lat="44.52658" lon="0.68674">
        <ele>144</ele>
        <time>2016-07-24T06:57:46Z</time>
      </trkpt>
      <trkpt lat="44.52636" lon="0.68672">
        <ele>143</ele>
        <time>2016-07-24T06:57:55Z</time>
      </trkpt>
      <trkpt lat="44.52633" lon="0.68674">
        <ele>143</ele>
        <time>2016-07-24T06:57:56Z</time>
      </trkpt>
      <trkpt lat="44.52609" lon="0.68681">
        <ele>141</ele>
        <time>2016-07-24T06:58:03Z</time>
      </trkpt>
      <trkpt lat="44.52597" lon="0.68684">
        <ele>140</ele>
        <time>2016-07-24T06:58:06Z</time>
      </trkpt>
      <trkpt lat="44.5258" lon="0.68687">
        <ele>139</ele>
        <time>2016-07-24T06:58:11Z</time>
      </trkpt>
      <trkpt lat="44.52562" lon="0.68686">
        <ele>137</ele>
        <time>2016-07-24T06:58:16Z</time>
      </trkpt>
      <trkpt lat="44.52545" lon="0.68696">
        <ele>138</ele>
        <time>2016-07-24T06:58:21Z</time>
      </trkpt>
      <trkpt lat="44.52529" lon="0.68703">
        <ele>139</ele>
        <time>2016-07-24T06:58:26Z</time>
      </trkpt>
      <trkpt lat="44.52506" lon="0.68702">
        <ele>140</ele>
        <time>2016-07-24T06:58:33Z</time>
      </trkpt>
      <trkpt lat="44.52479" lon="0.68703">
        <ele>140</ele>
        <time>2016-07-24T06:58:40Z</time>
      </trkpt>
      <trkpt lat="44.5246" lon="0.68711">
        <ele>140</ele>
        <time>2016-07-24T06:58:44Z</time>
      </trkpt>
      <trkpt lat="44.52436" lon="0.6873">
        <ele>140</ele>
        <time>2016-07-24T06:58:50Z</time>
      </trkpt>
      <trkpt lat="44.52429" lon="0.68726">
        <ele>139</ele>
        <time>2016-07-24T06:58:52Z</time>
      </trkpt>
      <trkpt lat="44.52412" lon="0.68727">
        <ele>139</ele>
        <time>2016-07-24T06:58:58Z</time>
      </trkpt>
      <trkpt lat="44.52396" lon="0.68731">
        <ele>141</ele>
        <time>2016-07-24T06:59:03Z</time>
      </trkpt>
      <trkpt lat="44.52387" lon="0.68736">
        <ele>142</ele>
        <time>2016-07-24T06:59:06Z</time>
      </trkpt>
      <trkpt lat="44.52373" lon="0.68741">
        <ele>143</ele>
        <time>2016-07-24T06:59:11Z</time>
      </trkpt>
      <trkpt lat="44.52358" lon="0.68747">
        <ele>144</ele>
        <time>2016-07-24T06:59:16Z</time>
      </trkpt>
      <trkpt lat="44.52344" lon="0.68752">
        <ele>146</ele>
        <time>2016-07-24T06:59:21Z</time>
      </trkpt>
      <trkpt lat="44.52329" lon="0.68756">
        <ele>147</ele>
        <time>2016-07-24T06:59:26Z</time>
      </trkpt>
      <trkpt lat="44.52314" lon="0.68758">
        <ele>147</ele>
        <time>2016-07-24T06:59:31Z</time>
      </trkpt>
      <trkpt lat="44.523" lon="0.6876">
        <ele>147</ele>
        <time>2016-07-24T06:59:36Z</time>
      </trkpt>
      <trkpt lat="44.52285" lon="0.68762">
        <ele>146</ele>
        <time>2016-07-24T06:59:41Z</time>
      </trkpt>
      <trkpt lat="44.52271" lon="0.68763">
        <ele>146</ele>
        <time>2016-07-24T06:59:46Z</time>
      </trkpt>
      <trkpt lat="44.52254" lon="0.68759">
        <ele>146</ele>
        <time>2016-07-24T06:59:51Z</time>
      </trkpt>
      <trkpt lat="44.52232" lon="0.68747">
        <ele>146</ele>
        <time>2016-07-24T06:59:58Z</time>
      </trkpt>
      <trkpt lat="44.52222" lon="0.68741">
        <ele>147</ele>
        <time>2016-07-24T07:00:01Z</time>
      </trkpt>
      <trkpt lat="44.52206" lon="0.68731">
        <ele>147</ele>
        <time>2016-07-24T07:00:06Z</time>
      </trkpt>
      <trkpt lat="44.52188" lon="0.68715">
        <ele>148</ele>
        <time>2016-07-24T07:00:12Z</time>
      </trkpt>
      <trkpt lat="44.52175" lon="0.68717">
        <ele>149</ele>
        <time>2016-07-24T07:00:16Z</time>
      </trkpt>
      <trkpt lat="44.52169" lon="0.68735">
        <ele>150</ele>
        <time>2016-07-24T07:00:21Z</time>
      </trkpt>
      <trkpt lat="44.52166" lon="0.68752">
        <ele>152</ele>
        <time>2016-07-24T07:00:27Z</time>
      </trkpt>
      <trkpt lat="44.52163" lon="0.68759">
        <ele>153</ele>
        <time>2016-07-24T07:00:31Z</time>
      </trkpt>
      <trkpt lat="44.52159" lon="0.68766">
        <ele>154</ele>
        <time>2016-07-24T07:00:36Z</time>
      </trkpt>
      <trkpt lat="44.52157" lon="0.68777">
        <ele>154</ele>
        <time>2016-07-24T07:00:43Z</time>
      </trkpt>
      <trkpt lat="44.52154" lon="0.68778">
        <ele>155</ele>
        <time>2016-07-24T07:00:46Z</time>
      </trkpt>
      <trkpt lat="44.52153" lon="0.68786">
        <ele>155</ele>
        <time>2016-07-24T07:00:51Z</time>
      </trkpt>
      <trkpt lat="44.52153" lon="0.68796">
        <ele>155</ele>
        <time>2016-07-24T07:00:56Z</time>
      </trkpt>
      <trkpt lat="44.52151" lon="0.68806">
        <ele>156</ele>
        <time>2016-07-24T07:01:04Z</time>
      </trkpt>
      <trkpt lat="44.5215" lon="0.68809">
        <ele>156</ele>
        <time>2016-07-24T07:01:06Z</time>
      </trkpt>
      <trkpt lat="44.52148" lon="0.68816">
        <ele>157</ele>
        <time>2016-07-24T07:01:11Z</time>
      </trkpt>
      <trkpt lat="44.52142" lon="0.68835">
        <ele>159</ele>
        <time>2016-07-24T07:01:20Z</time>
      </trkpt>
      <trkpt lat="44.52141" lon="0.68836">
        <ele>159</ele>
        <time>2016-07-24T07:01:21Z</time>
      </trkpt>
      <trkpt lat="44.52135" lon="0.6885">
        <ele>161</ele>
        <time>2016-07-24T07:01:28Z</time>
      </trkpt>
      <trkpt lat="44.52133" lon="0.68859">
        <ele>162</ele>
        <time>2016-07-24T07:01:31Z</time>
      </trkpt>
      <trkpt lat="44.52126" lon="0.6887">
        <ele>164</ele>
        <time>2016-07-24T07:01:36Z</time>
      </trkpt>
      <trkpt lat="44.52121" lon="0.6889">
        <ele>165</ele>
        <time>2016-07-24T07:01:41Z</time>
      </trkpt>
      <trkpt lat="44.52115" lon="0.68922">
        <ele>165</ele>
        <time>2016-07-24T07:01:49Z</time>
      </trkpt>
      <trkpt lat="44.52112" lon="0.6893">
        <ele>165</ele>
        <time>2016-07-24T07:01:51Z</time>
      </trkpt>
      <trkpt lat="44.52106" lon="0.68949">
        <ele>164</ele>
        <time>2016-07-24T07:01:56Z</time>
      </trkpt>
      <trkpt lat="44.52101" lon="0.68965">
        <ele>163</ele>
        <time>2016-07-24T07:02:01Z</time>
      </trkpt>
      <trkpt lat="44.52095" lon="0.6898">
        <ele>163</ele>
        <time>2016-07-24T07:02:06Z</time>
      </trkpt>
      <trkpt lat="44.5209" lon="0.68997">
        <ele>163</ele>
        <time>2016-07-24T07:02:12Z</time>
      </trkpt>
      <trkpt lat="44.52087" lon="0.69006">
        <ele>163</ele>
        <time>2016-07-24T07:02:16Z</time>
      </trkpt>
      <trkpt lat="44.52082" lon="0.69019">
        <ele>164</ele>
        <time>2016-07-24T07:02:21Z</time>
      </trkpt>
      <trkpt lat="44.52077" lon="0.69029">
        <ele>165</ele>
        <time>2016-07-24T07:02:26Z</time>
      </trkpt>
      <trkpt lat="44.52071" lon="0.69031">
        <ele>166</ele>
        <time>2016-07-24T07:02:31Z</time>
      </trkpt>
      <trkpt lat="44.52066" lon="0.69028">
        <ele>167</ele>
        <time>2016-07-24T07:02:36Z</time>
      </trkpt>
      <trkpt lat="44.52061" lon="0.69026">
        <ele>169</ele>
        <time>2016-07-24T07:02:41Z</time>
      </trkpt>
      <trkpt lat="44.52055" lon="0.69024">
        <ele>170</ele>
        <time>2016-07-24T07:02:46Z</time>
      </trkpt>
      <trkpt lat="44.52048" lon="0.69024">
        <ele>172</ele>
        <time>2016-07-24T07:02:51Z</time>
      </trkpt>
      <trkpt lat="44.52044" lon="0.69026">
        <ele>174</ele>
        <time>2016-07-24T07:02:56Z</time>
      </trkpt>
      <trkpt lat="44.5204" lon="0.69032">
        <ele>175</ele>
        <time>2016-07-24T07:03:03Z</time>
      </trkpt>
      <trkpt lat="44.52038" lon="0.69036">
        <ele>175</ele>
        <time>2016-07-24T07:03:07Z</time>
      </trkpt>
      <trkpt lat="44.52035" lon="0.69044">
        <ele>176</ele>
        <time>2016-07-24T07:03:12Z</time>
      </trkpt>
      <trkpt lat="44.52029" lon="0.69051">
        <ele>178</ele>
        <time>2016-07-24T07:03:18Z</time>
      </trkpt>
      <trkpt lat="44.52024" lon="0.69055">
        <ele>179</ele>
        <time>2016-07-24T07:03:21Z</time>
      </trkpt>
      <trkpt lat="44.52024" lon="0.6906">
        <ele>179</ele>
        <time>2016-07-24T07:03:26Z</time>
      </trkpt>
      <trkpt lat="44.52022" lon="0.69066">
        <ele>179</ele>
        <time>2016-07-24T07:03:31Z</time>
      </trkpt>
      <trkpt lat="44.52019" lon="0.69072">
        <ele>180</ele>
        <time>2016-07-24T07:03:36Z</time>
      </trkpt>
      <trkpt lat="44.52015" lon="0.69079">
        <ele>181</ele>
        <time>2016-07-24T07:03:41Z</time>
      </trkpt>
      <trkpt lat="44.52012" lon="0.69089">
        <ele>182</ele>
        <time>2016-07-24T07:03:48Z</time>
      </trkpt>
      <trkpt lat="44.5201" lon="0.69095">
        <ele>182</ele>
        <time>2016-07-24T07:03:51Z</time>
      </trkpt>
      <trkpt lat="44.52002" lon="0.69105">
        <ele>184</ele>
        <time>2016-07-24T07:03:56Z</time>
      </trkpt>
      <trkpt lat="44.51996" lon="0.69125">
        <ele>183</ele>
        <time>2016-07-24T07:04:03Z</time>
      </trkpt>
      <trkpt lat="44.51989" lon="0.6914">
        <ele>183</ele>
        <time>2016-07-24T07:04:07Z</time>
      </trkpt>
      <trkpt lat="44.51973" lon="0.69171">
        <ele>181</ele>
        <time>2016-07-24T07:04:14Z</time>
      </trkpt>
      <trkpt lat="44.51965" lon="0.6919">
        <ele>177</ele>
        <time>2016-07-24T07:04:18Z</time>
      </trkpt>
      <trkpt lat="44.51957" lon="0.69219">
        <ele>172</ele>
        <time>2016-07-24T07:04:24Z</time>
      </trkpt>
      <trkpt lat="44.51956" lon="0.69227">
        <ele>171</ele>
        <time>2016-07-24T07:04:26Z</time>
      </trkpt>
      <trkpt lat="44.51959" lon="0.69245">
        <ele>170</ele>
        <time>2016-07-24T07:04:31Z</time>
      </trkpt>
      <trkpt lat="44.51963" lon="0.69258">
        <ele>170</ele>
        <time>2016-07-24T07:04:37Z</time>
      </trkpt>
      <trkpt lat="44.51967" lon="0.69264">
        <ele>170</ele>
        <time>2016-07-24T07:04:41Z</time>
      </trkpt>
      <trkpt lat="44.51969" lon="0.69273">
        <ele>170</ele>
        <time>2016-07-24T07:04:46Z</time>
      </trkpt>
      <trkpt lat="44.51968" lon="0.69288">
        <ele>170</ele>
        <time>2016-07-24T07:04:55Z</time>
      </trkpt>
      <trkpt lat="44.51968" lon="0.69289">
        <ele>170</ele>
        <time>2016-07-24T07:04:56Z</time>
      </trkpt>
      <trkpt lat="44.51967" lon="0.69296">
        <ele>171</ele>
        <time>2016-07-24T07:05:01Z</time>
      </trkpt>
      <trkpt lat="44.51966" lon="0.69303">
        <ele>171</ele>
        <time>2016-07-24T07:05:06Z</time>
      </trkpt>
      <trkpt lat="44.51967" lon="0.69312">
        <ele>172</ele>
        <time>2016-07-24T07:05:11Z</time>
      </trkpt>
      <trkpt lat="44.5197" lon="0.69323">
        <ele>172</ele>
        <time>2016-07-24T07:05:18Z</time>
      </trkpt>
      <trkpt lat="44.5197" lon="0.69329">
        <ele>173</ele>
        <time>2016-07-24T07:05:21Z</time>
      </trkpt>
      <trkpt lat="44.51969" lon="0.6934">
        <ele>174</ele>
        <time>2016-07-24T07:05:26Z</time>
      </trkpt>
      <trkpt lat="44.51971" lon="0.69348">
        <ele>175</ele>
        <time>2016-07-24T07:05:31Z</time>
      </trkpt>
      <trkpt lat="44.51971" lon="0.69358">
        <ele>176</ele>
        <time>2016-07-24T07:05:36Z</time>
      </trkpt>
      <trkpt lat="44.51965" lon="0.69375">
        <ele>178</ele>
        <time>2016-07-24T07:05:44Z</time>
      </trkpt>
      <trkpt lat="44.51965" lon="0.69378">
        <ele>179</ele>
        <time>2016-07-24T07:05:46Z</time>
      </trkpt>
      <trkpt lat="44.51962" lon="0.69387">
        <ele>180</ele>
        <time>2016-07-24T07:05:51Z</time>
      </trkpt>
      <trkpt lat="44.51961" lon="0.69396">
        <ele>181</ele>
        <time>2016-07-24T07:05:56Z</time>
      </trkpt>
      <trkpt lat="44.5196" lon="0.69405">
        <ele>181</ele>
        <time>2016-07-24T07:06:01Z</time>
      </trkpt>
      <trkpt lat="44.51958" lon="0.69415">
        <ele>183</ele>
        <time>2016-07-24T07:06:06Z</time>
      </trkpt>
      <trkpt lat="44.51955" lon="0.69426">
        <ele>184</ele>
        <time>2016-07-24T07:06:11Z</time>
      </trkpt>
      <trkpt lat="44.51952" lon="0.69435">
        <ele>186</ele>
        <time>2016-07-24T07:06:16Z</time>
      </trkpt>
      <trkpt lat="44.51949" lon="0.69442">
        <ele>187</ele>
        <time>2016-07-24T07:06:21Z</time>
      </trkpt>
      <trkpt lat="44.51946" lon="0.69458">
        <ele>189</ele>
        <time>2016-07-24T07:06:28Z</time>
      </trkpt>
      <trkpt lat="44.51941" lon="0.69466">
        <ele>191</ele>
        <time>2016-07-24T07:06:31Z</time>
      </trkpt>
      <trkpt lat="44.51934" lon="0.69484">
        <ele>194</ele>
        <time>2016-07-24T07:06:38Z</time>
      </trkpt>
      <trkpt lat="44.5193" lon="0.69496">
        <ele>195</ele>
        <time>2016-07-24T07:06:41Z</time>
      </trkpt>
      <trkpt lat="44.51925" lon="0.69511">
        <ele>195</ele>
        <time>2016-07-24T07:06:46Z</time>
      </trkpt>
      <trkpt lat="44.51917" lon="0.69552">
        <ele>194</ele>
        <time>2016-07-24T07:06:55Z</time>
      </trkpt>
      <trkpt lat="44.51914" lon="0.69561">
        <ele>194</ele>
        <time>2016-07-24T07:06:57Z</time>
      </trkpt>
      <trkpt lat="44.5191" lon="0.69576">
        <ele>194</ele>
        <time>2016-07-24T07:07:01Z</time>
      </trkpt>
      <trkpt lat="44.51906" lon="0.69613">
        <ele>192</ele>
        <time>2016-07-24T07:07:10Z</time>
      </trkpt>
      <trkpt lat="44.51905" lon="0.69617">
        <ele>191</ele>
        <time>2016-07-24T07:07:11Z</time>
      </trkpt>
      <trkpt lat="44.51898" lon="0.69638">
        <ele>192</ele>
        <time>2016-07-24T07:07:16Z</time>
      </trkpt>
      <trkpt lat="44.51895" lon="0.69658">
        <ele>192</ele>
        <time>2016-07-24T07:07:21Z</time>
      </trkpt>
      <trkpt lat="44.5189" lon="0.69678">
        <ele>194</ele>
        <time>2016-07-24T07:07:26Z</time>
      </trkpt>
      <trkpt lat="44.51892" lon="0.69696">
        <ele>193</ele>
        <time>2016-07-24T07:07:31Z</time>
      </trkpt>
      <trkpt lat="44.5189" lon="0.69709">
        <ele>194</ele>
        <time>2016-07-24T07:07:36Z</time>
      </trkpt>
      <trkpt lat="44.51887" lon="0.69714">
        <ele>194</ele>
        <time>2016-07-24T07:07:45Z</time>
      </trkpt>
      <trkpt lat="44.51887" lon="0.69714">
        <ele>194</ele>
        <time>2016-07-24T07:07:46Z</time>
      </trkpt>
      <trkpt lat="44.51886" lon="0.69708">
        <ele>195</ele>
        <time>2016-07-24T07:07:49Z</time>
      </trkpt>
      <trkpt lat="44.51885" lon="0.69696">
        <ele>196</ele>
        <time>2016-07-24T07:07:54Z</time>
      </trkpt>
      <trkpt lat="44.51884" lon="0.69687">
        <ele>196</ele>
        <time>2016-07-24T07:08:03Z</time>
      </trkpt>
      <trkpt lat="44.51883" lon="0.69684">
        <ele>196</ele>
        <time>2016-07-24T07:08:05Z</time>
      </trkpt>
      <trkpt lat="44.51882" lon="0.69678">
        <ele>197</ele>
        <time>2016-07-24T07:08:09Z</time>
      </trkpt>
      <trkpt lat="44.5188" lon="0.69671">
        <ele>197</ele>
        <time>2016-07-24T07:08:14Z</time>
      </trkpt>
      <trkpt lat="44.5188" lon="0.69665">
        <ele>198</ele>
        <time>2016-07-24T07:08:19Z</time>
      </trkpt>
      <trkpt lat="44.51879" lon="0.69656">
        <ele>198</ele>
        <time>2016-07-24T07:08:26Z</time>
      </trkpt>
      <trkpt lat="44.51877" lon="0.69651">
        <ele>199</ele>
        <time>2016-07-24T07:08:29Z</time>
      </trkpt>
      <trkpt lat="44.51877" lon="0.69646">
        <ele>199</ele>
        <time>2016-07-24T07:08:34Z</time>
      </trkpt>
      <trkpt lat="44.51874" lon="0.69637">
        <ele>199</ele>
        <time>2016-07-24T07:08:39Z</time>
      </trkpt>
      <trkpt lat="44.51877" lon="0.69632">
        <ele>199</ele>
        <time>2016-07-24T07:08:44Z</time>
      </trkpt>
      <trkpt lat="44.51878" lon="0.6963">
        <ele>199</ele>
        <time>2016-07-24T07:08:49Z</time>
      </trkpt>
      <trkpt lat="44.5188" lon="0.69623">
        <ele>199</ele>
        <time>2016-07-24T07:08:52Z</time>
      </trkpt>
      <trkpt lat="44.5188" lon="0.69611">
        <ele>199</ele>
        <time>2016-07-24T07:08:57Z</time>
      </trkpt>
      <trkpt lat="44.51879" lon="0.69606">
        <ele>200</ele>
        <time>2016-07-24T07:09:02Z</time>
      </trkpt>
      <trkpt lat="44.51879" lon="0.696">
        <ele>200</ele>
        <time>2016-07-24T07:09:07Z</time>
      </trkpt>
      <trkpt lat="44.51879" lon="0.69591">
        <ele>200</ele>
        <time>2016-07-24T07:09:13Z</time>
      </trkpt>
      <trkpt lat="44.51879" lon="0.6959">
        <ele>200</ele>
        <time>2016-07-24T07:09:17Z</time>
      </trkpt>
      <trkpt lat="44.51879" lon="0.6959">
        <ele>200</ele>
        <time>2016-07-24T07:09:20Z</time>
      </trkpt>
      <trkpt lat="44.51879" lon="0.6959">
        <ele>200</ele>
        <time>2016-07-24T07:09:23Z</time>
      </trkpt>
      <trkpt lat="44.51878" lon="0.6959">
        <ele>200</ele>
        <time>2016-07-24T07:09:26Z</time>
      </trkpt>
      <trkpt lat="44.51879" lon="0.69589">
        <ele>200</ele>
        <time>2016-07-24T07:09:29Z</time>
      </trkpt>
      <trkpt lat="44.51879" lon="0.6959">
        <ele>200</ele>
        <time>2016-07-24T07:09:32Z</time>
      </trkpt>
      <trkpt lat="44.51879" lon="0.6959">
        <ele>200</ele>
        <time>2016-07-24T07:09:35Z</time>
      </trkpt>
      <trkpt lat="44.51879" lon="0.69589">
        <ele>200</ele>
        <time>2016-07-24T07:09:38Z</time>
      </trkpt>
      <trkpt lat="44.51879" lon="0.69589">
        <ele>200</ele>
        <time>2016-07-24T07:09:41Z</time>
      </trkpt>
      <trkpt lat="44.51879" lon="0.69589">
        <ele>200</ele>
        <time>2016-07-24T07:09:44Z</time>
      </trkpt>
      <trkpt lat="44.5188" lon="0.69589">
        <ele>200</ele>
        <time>2016-07-24T07:09:47Z</time>
      </trkpt>
      <trkpt lat="44.51881" lon="0.69587">
        <ele>200</ele>
        <time>2016-07-24T07:09:51Z</time>
      </trkpt>
      <trkpt lat="44.51881" lon="0.69571">
        <ele>200</ele>
        <time>2016-07-24T07:09:57Z</time>
      </trkpt>
      <trkpt lat="44.5188" lon="0.69563">
        <ele>200</ele>
        <time>2016-07-24T07:10:00Z</time>
      </trkpt>
      <trkpt lat="44.51872" lon="0.69569">
        <ele>199</ele>
        <time>2016-07-24T07:10:05Z</time>
      </trkpt>
      <trkpt lat="44.51865" lon="0.69583">
        <ele>199</ele>
        <time>2016-07-24T07:10:10Z</time>
      </trkpt>
      <trkpt lat="44.51862" lon="0.69603">
        <ele>200</ele>
        <time>2016-07-24T07:10:15Z</time>
      </trkpt>
      <trkpt lat="44.51861" lon="0.69623">
        <ele>200</ele>
        <time>2016-07-24T07:10:20Z</time>
      </trkpt>
      <trkpt lat="44.5186" lon="0.69648">
        <ele>200</ele>
        <time>2016-07-24T07:10:25Z</time>
      </trkpt>
      <trkpt lat="44.51858" lon="0.69674">
        <ele>200</ele>
        <time>2016-07-24T07:10:30Z</time>
      </trkpt>
      <trkpt lat="44.51857" lon="0.69701">
        <ele>200</ele>
        <time>2016-07-24T07:10:35Z</time>
      </trkpt>
      <trkpt lat="44.51854" lon="0.69726">
        <ele>200</ele>
        <time>2016-07-24T07:10:40Z</time>
      </trkpt>
      <trkpt lat="44.5185" lon="0.69754">
        <ele>200</ele>
        <time>2016-07-24T07:10:45Z</time>
      </trkpt>
      <trkpt lat="44.5185" lon="0.69779">
        <ele>199</ele>
        <time>2016-07-24T07:10:50Z</time>
      </trkpt>
      <trkpt lat="44.51851" lon="0.69811">
        <ele>200</ele>
        <time>2016-07-24T07:10:55Z</time>
      </trkpt>
      <trkpt lat="44.51855" lon="0.69845">
        <ele>200</ele>
        <time>2016-07-24T07:11:00Z</time>
      </trkpt>
      <trkpt lat="44.51857" lon="0.69884">
        <ele>199</ele>
        <time>2016-07-24T07:11:06Z</time>
      </trkpt>
      <trkpt lat="44.51862" lon="0.6991">
        <ele>198</ele>
        <time>2016-07-24T07:11:10Z</time>
      </trkpt>
      <trkpt lat="44.51863" lon="0.69934">
        <ele>198</ele>
        <time>2016-07-24T07:11:15Z</time>
      </trkpt>
      <trkpt lat="44.51863" lon="0.69962">
        <ele>197</ele>
        <time>2016-07-24T07:11:20Z</time>
      </trkpt>
      <trkpt lat="44.51856" lon="0.69994">
        <ele>199</ele>
        <time>2016-07-24T07:11:25Z</time>
      </trkpt>
      <trkpt lat="44.51853" lon="0.70055">
        <ele>197</ele>
        <time>2016-07-24T07:11:32Z</time>
      </trkpt>
      <trkpt lat="44.51845" lon="0.7012">
        <ele>191</ele>
        <time>2016-07-24T07:11:38Z</time>
      </trkpt>
      <trkpt lat="44.51844" lon="0.70135">
        <ele>190</ele>
        <time>2016-07-24T07:11:40Z</time>
      </trkpt>
      <trkpt lat="44.51839" lon="0.70151">
        <ele>190</ele>
        <time>2016-07-24T07:11:45Z</time>
      </trkpt>
      <trkpt lat="44.51835" lon="0.70165">
        <ele>191</ele>
        <time>2016-07-24T07:11:50Z</time>
      </trkpt>
      <trkpt lat="44.51827" lon="0.70189">
        <ele>192</ele>
        <time>2016-07-24T07:11:59Z</time>
      </trkpt>
      <trkpt lat="44.51825" lon="0.70191">
        <ele>192</ele>
        <time>2016-07-24T07:12:00Z</time>
      </trkpt>
      <trkpt lat="44.51814" lon="0.70208">
        <ele>191</ele>
        <time>2016-07-24T07:12:07Z</time>
      </trkpt>
      <trkpt lat="44.51811" lon="0.70216">
        <ele>191</ele>
        <time>2016-07-24T07:12:10Z</time>
      </trkpt>
      <trkpt lat="44.51799" lon="0.70233">
        <ele>190</ele>
        <time>2016-07-24T07:12:18Z</time>
      </trkpt>
      <trkpt lat="44.51795" lon="0.70239">
        <ele>190</ele>
        <time>2016-07-24T07:12:21Z</time>
      </trkpt>
      <trkpt lat="44.51791" lon="0.70247">
        <ele>190</ele>
        <time>2016-07-24T07:12:25Z</time>
      </trkpt>
      <trkpt lat="44.51785" lon="0.70259">
        <ele>190</ele>
        <time>2016-07-24T07:12:30Z</time>
      </trkpt>
      <trkpt lat="44.51778" lon="0.7027">
        <ele>189</ele>
        <time>2016-07-24T07:12:36Z</time>
      </trkpt>
      <trkpt lat="44.51773" lon="0.70276">
        <ele>189</ele>
        <time>2016-07-24T07:12:40Z</time>
      </trkpt>
      <trkpt lat="44.51766" lon="0.70287">
        <ele>189</ele>
        <time>2016-07-24T07:12:45Z</time>
      </trkpt>
      <trkpt lat="44.5176" lon="0.70295">
        <ele>189</ele>
        <time>2016-07-24T07:12:50Z</time>
      </trkpt>
      <trkpt lat="44.51752" lon="0.70307">
        <ele>189</ele>
        <time>2016-07-24T07:12:56Z</time>
      </trkpt>
      <trkpt lat="44.51748" lon="0.70313">
        <ele>189</ele>
        <time>2016-07-24T07:13:00Z</time>
      </trkpt>
      <trkpt lat="44.51744" lon="0.70321">
        <ele>190</ele>
        <time>2016-07-24T07:13:05Z</time>
      </trkpt>
      <trkpt lat="44.51737" lon="0.70332">
        <ele>190</ele>
        <time>2016-07-24T07:13:11Z</time>
      </trkpt>
      <trkpt lat="44.51731" lon="0.70335">
        <ele>190</ele>
        <time>2016-07-24T07:13:15Z</time>
      </trkpt>
      <trkpt lat="44.51718" lon="0.70346">
        <ele>190</ele>
        <time>2016-07-24T07:13:20Z</time>
      </trkpt>
      <trkpt lat="44.517" lon="0.70363">
        <ele>190</ele>
        <time>2016-07-24T07:13:25Z</time>
      </trkpt>
      <trkpt lat="44.51678" lon="0.70399">
        <ele>191</ele>
        <time>2016-07-24T07:13:30Z</time>
      </trkpt>
      <trkpt lat="44.51657" lon="0.70451">
        <ele>193</ele>
        <time>2016-07-24T07:13:39Z</time>
      </trkpt>
      <trkpt lat="44.51639" lon="0.70472">
        <ele>191</ele>
        <time>2016-07-24T07:13:44Z</time>
      </trkpt>
      <trkpt lat="44.51634" lon="0.70481">
        <ele>190</ele>
        <time>2016-07-24T07:13:46Z</time>
      </trkpt>
      <trkpt lat="44.51609" lon="0.70511">
        <ele>189</ele>
        <time>2016-07-24T07:13:53Z</time>
      </trkpt>
      <trkpt lat="44.51599" lon="0.70523">
        <ele>188</ele>
        <time>2016-07-24T07:13:55Z</time>
      </trkpt>
      <trkpt lat="44.51565" lon="0.70553">
        <ele>188</ele>
        <time>2016-07-24T07:14:01Z</time>
      </trkpt>
      <trkpt lat="44.51547" lon="0.7056">
        <ele>188</ele>
        <time>2016-07-24T07:14:05Z</time>
      </trkpt>
      <trkpt lat="44.51531" lon="0.7057">
        <ele>188</ele>
        <time>2016-07-24T07:14:10Z</time>
      </trkpt>
      <trkpt lat="44.51509" lon="0.70579">
        <ele>188</ele>
        <time>2016-07-24T07:14:15Z</time>
      </trkpt>
      <trkpt lat="44.51473" lon="0.70589">
        <ele>189</ele>
        <time>2016-07-24T07:14:22Z</time>
      </trkpt>
      <trkpt lat="44.51458" lon="0.7059">
        <ele>189</ele>
        <time>2016-07-24T07:14:25Z</time>
      </trkpt>
      <trkpt lat="44.51437" lon="0.70592">
        <ele>189</ele>
        <time>2016-07-24T07:14:30Z</time>
      </trkpt>
      <trkpt lat="44.51417" lon="0.70599">
        <ele>190</ele>
        <time>2016-07-24T07:14:35Z</time>
      </trkpt>
      <trkpt lat="44.51384" lon="0.70597">
        <ele>189</ele>
        <time>2016-07-24T07:14:43Z</time>
      </trkpt>
      <trkpt lat="44.51376" lon="0.70596">
        <ele>189</ele>
        <time>2016-07-24T07:14:45Z</time>
      </trkpt>
      <trkpt lat="44.51357" lon="0.70594">
        <ele>189</ele>
        <time>2016-07-24T07:14:50Z</time>
      </trkpt>
      <trkpt lat="44.51338" lon="0.70598">
        <ele>192</ele>
        <time>2016-07-24T07:14:55Z</time>
      </trkpt>
      <trkpt lat="44.51319" lon="0.70596">
        <ele>194</ele>
        <time>2016-07-24T07:15:01Z</time>
      </trkpt>
      <trkpt lat="44.51295" lon="0.70593">
        <ele>198</ele>
        <time>2016-07-24T07:15:09Z</time>
      </trkpt>
      <trkpt lat="44.51291" lon="0.70592">
        <ele>198</ele>
        <time>2016-07-24T07:15:10Z</time>
      </trkpt>
      <trkpt lat="44.51264" lon="0.70586">
        <ele>203</ele>
        <time>2016-07-24T07:15:19Z</time>
      </trkpt>
      <trkpt lat="44.51261" lon="0.70585">
        <ele>203</ele>
        <time>2016-07-24T07:15:20Z</time>
      </trkpt>
      <trkpt lat="44.51248" lon="0.7058">
        <ele>205</ele>
        <time>2016-07-24T07:15:25Z</time>
      </trkpt>
      <trkpt lat="44.51235" lon="0.70582">
        <ele>207</ele>
        <time>2016-07-24T07:15:30Z</time>
      </trkpt>
      <trkpt lat="44.51221" lon="0.70578">
        <ele>207</ele>
        <time>2016-07-24T07:15:35Z</time>
      </trkpt>
      <trkpt lat="44.51208" lon="0.70575">
        <ele>208</ele>
        <time>2016-07-24T07:15:40Z</time>
      </trkpt>
      <trkpt lat="44.51193" lon="0.70572">
        <ele>208</ele>
        <time>2016-07-24T07:15:45Z</time>
      </trkpt>
      <trkpt lat="44.51177" lon="0.70572">
        <ele>208</ele>
        <time>2016-07-24T07:15:50Z</time>
      </trkpt>
      <trkpt lat="44.5116" lon="0.7057">
        <ele>208</ele>
        <time>2016-07-24T07:15:55Z</time>
      </trkpt>
      <trkpt lat="44.51141" lon="0.70566">
        <ele>208</ele>
        <time>2016-07-24T07:16:00Z</time>
      </trkpt>
      <trkpt lat="44.51122" lon="0.70568">
        <ele>208</ele>
        <time>2016-07-24T07:16:05Z</time>
      </trkpt>
      <trkpt lat="44.51101" lon="0.70566">
        <ele>207</ele>
        <time>2016-07-24T07:16:10Z</time>
      </trkpt>
      <trkpt lat="44.51083" lon="0.70565">
        <ele>207</ele>
        <time>2016-07-24T07:16:15Z</time>
      </trkpt>
      <trkpt lat="44.51064" lon="0.70571">
        <ele>206</ele>
        <time>2016-07-24T07:16:20Z</time>
      </trkpt>
      <trkpt lat="44.51038" lon="0.70577">
        <ele>205</ele>
        <time>2016-07-24T07:16:27Z</time>
      </trkpt>
      <trkpt lat="44.51028" lon="0.70582">
        <ele>205</ele>
        <time>2016-07-24T07:16:30Z</time>
      </trkpt>
      <trkpt lat="44.51011" lon="0.7059">
        <ele>204</ele>
        <time>2016-07-24T07:16:35Z</time>
      </trkpt>
      <trkpt lat="44.5098" lon="0.70603">
        <ele>204</ele>
        <time>2016-07-24T07:16:43Z</time>
      </trkpt>
      <trkpt lat="44.50959" lon="0.7061">
        <ele>204</ele>
        <time>2016-07-24T07:16:48Z</time>
      </trkpt>
      <trkpt lat="44.50951" lon="0.70613">
        <ele>204</ele>
        <time>2016-07-24T07:16:50Z</time>
      </trkpt>
      <trkpt lat="44.50931" lon="0.70622">
        <ele>205</ele>
        <time>2016-07-24T07:16:55Z</time>
      </trkpt>
      <trkpt lat="44.50911" lon="0.70629">
        <ele>207</ele>
        <time>2016-07-24T07:17:00Z</time>
      </trkpt>
      <trkpt lat="44.50892" lon="0.70637">
        <ele>209</ele>
        <time>2016-07-24T07:17:05Z</time>
      </trkpt>
      <trkpt lat="44.50876" lon="0.70644">
        <ele>211</ele>
        <time>2016-07-24T07:17:10Z</time>
      </trkpt>
      <trkpt lat="44.5086" lon="0.70647">
        <ele>211</ele>
        <time>2016-07-24T07:17:15Z</time>
      </trkpt>
      <trkpt lat="44.5084" lon="0.70656">
        <ele>212</ele>
        <time>2016-07-24T07:17:20Z</time>
      </trkpt>
      <trkpt lat="44.50823" lon="0.70662">
        <ele>212</ele>
        <time>2016-07-24T07:17:25Z</time>
      </trkpt>
      <trkpt lat="44.50792" lon="0.70674">
        <ele>212</ele>
        <time>2016-07-24T07:17:34Z</time>
      </trkpt>
      <trkpt lat="44.50786" lon="0.70678">
        <ele>212</ele>
        <time>2016-07-24T07:17:35Z</time>
      </trkpt>
      <trkpt lat="44.50763" lon="0.70687">
        <ele>212</ele>
        <time>2016-07-24T07:17:40Z</time>
      </trkpt>
      <trkpt lat="44.50745" lon="0.70698">
        <ele>212</ele>
        <time>2016-07-24T07:17:45Z</time>
      </trkpt>
      <trkpt lat="44.50739" lon="0.70716">
        <ele>212</ele>
        <time>2016-07-24T07:17:50Z</time>
      </trkpt>
      <trkpt lat="44.50743" lon="0.70749">
        <ele>212</ele>
        <time>2016-07-24T07:17:55Z</time>
      </trkpt>
      <trkpt lat="44.50748" lon="0.70775">
        <ele>212</ele>
        <time>2016-07-24T07:18:00Z</time>
      </trkpt>
      <trkpt lat="44.50754" lon="0.70797">
        <ele>212</ele>
        <time>2016-07-24T07:18:05Z</time>
      </trkpt>
      <trkpt lat="44.50761" lon="0.70825">
        <ele>212</ele>
        <time>2016-07-24T07:18:10Z</time>
      </trkpt>
      <trkpt lat="44.50769" lon="0.70854">
        <ele>212</ele>
        <time>2016-07-24T07:18:15Z</time>
      </trkpt>
      <trkpt lat="44.5077" lon="0.70881">
        <ele>212</ele>
        <time>2016-07-24T07:18:20Z</time>
      </trkpt>
      <trkpt lat="44.50769" lon="0.70922">
        <ele>211</ele>
        <time>2016-07-24T07:18:27Z</time>
      </trkpt>
      <trkpt lat="44.50767" lon="0.7094">
        <ele>211</ele>
        <time>2016-07-24T07:18:30Z</time>
      </trkpt>
      <trkpt lat="44.50762" lon="0.70969">
        <ele>211</ele>
        <time>2016-07-24T07:18:35Z</time>
      </trkpt>
      <trkpt lat="44.50755" lon="0.71">
        <ele>211</ele>
        <time>2016-07-24T07:18:40Z</time>
      </trkpt>
      <trkpt lat="44.50747" lon="0.7103">
        <ele>211</ele>
        <time>2016-07-24T07:18:45Z</time>
      </trkpt>
      <trkpt lat="44.50744" lon="0.71062">
        <ele>211</ele>
        <time>2016-07-24T07:18:50Z</time>
      </trkpt>
      <trkpt lat="44.50741" lon="0.71088">
        <ele>210</ele>
        <time>2016-07-24T07:18:55Z</time>
      </trkpt>
      <trkpt lat="44.50741" lon="0.71117">
        <ele>208</ele>
        <time>2016-07-24T07:19:00Z</time>
      </trkpt>
      <trkpt lat="44.50736" lon="0.71153">
        <ele>207</ele>
        <time>2016-07-24T07:19:06Z</time>
      </trkpt>
      <trkpt lat="44.50732" lon="0.71177">
        <ele>207</ele>
        <time>2016-07-24T07:19:10Z</time>
      </trkpt>
      <trkpt lat="44.50727" lon="0.71204">
        <ele>207</ele>
        <time>2016-07-24T07:19:15Z</time>
      </trkpt>
      <trkpt lat="44.50722" lon="0.71229">
        <ele>207</ele>
        <time>2016-07-24T07:19:20Z</time>
      </trkpt>
      <trkpt lat="44.50717" lon="0.71271">
        <ele>207</ele>
        <time>2016-07-24T07:19:27Z</time>
      </trkpt>
      <trkpt lat="44.50712" lon="0.71285">
        <ele>207</ele>
        <time>2016-07-24T07:19:30Z</time>
      </trkpt>
      <trkpt lat="44.50709" lon="0.713">
        <ele>207</ele>
        <time>2016-07-24T07:19:35Z</time>
      </trkpt>
      <trkpt lat="44.50705" lon="0.71324">
        <ele>207</ele>
        <time>2016-07-24T07:19:40Z</time>
      </trkpt>
      <trkpt lat="44.50698" lon="0.71354">
        <ele>205</ele>
        <time>2016-07-24T07:19:45Z</time>
      </trkpt>
      <trkpt lat="44.50693" lon="0.71378">
        <ele>205</ele>
        <time>2016-07-24T07:19:50Z</time>
      </trkpt>
      <trkpt lat="44.50672" lon="0.71427">
        <ele>204</ele>
        <time>2016-07-24T07:19:58Z</time>
      </trkpt>
      <trkpt lat="44.50664" lon="0.71455">
        <ele>203</ele>
        <time>2016-07-24T07:20:04Z</time>
      </trkpt>
      <trkpt lat="44.50661" lon="0.71468">
        <ele>203</ele>
        <time>2016-07-24T07:20:06Z</time>
      </trkpt>
      <trkpt lat="44.50656" lon="0.715">
        <ele>203</ele>
        <time>2016-07-24T07:20:10Z</time>
      </trkpt>
      <trkpt lat="44.50639" lon="0.71554">
        <ele>202</ele>
        <time>2016-07-24T07:20:18Z</time>
      </trkpt>
      <trkpt lat="44.50636" lon="0.71587">
        <ele>200</ele>
        <time>2016-07-24T07:20:23Z</time>
      </trkpt>
      <trkpt lat="44.50647" lon="0.7163">
        <ele>196</ele>
        <time>2016-07-24T07:20:27Z</time>
      </trkpt>
      <trkpt lat="44.50681" lon="0.71692">
        <ele>186</ele>
        <time>2016-07-24T07:20:33Z</time>
      </trkpt>
      <trkpt lat="44.50689" lon="0.71707">
        <ele>184</ele>
        <time>2016-07-24T07:20:35Z</time>
      </trkpt>
      <trkpt lat="44.50676" lon="0.7179">
        <ele>178</ele>
        <time>2016-07-24T07:20:44Z</time>
      </trkpt>
      <trkpt lat="44.50675" lon="0.71799">
        <ele>178</ele>
        <time>2016-07-24T07:20:45Z</time>
      </trkpt>
      <trkpt lat="44.50656" lon="0.71862">
        <ele>174</ele>
        <time>2016-07-24T07:20:53Z</time>
      </trkpt>
      <trkpt lat="44.5065" lon="0.71875">
        <ele>174</ele>
        <time>2016-07-24T07:20:55Z</time>
      </trkpt>
      <trkpt lat="44.50636" lon="0.71927">
        <ele>174</ele>
        <time>2016-07-24T07:21:02Z</time>
      </trkpt>
      <trkpt lat="44.50623" lon="0.71951">
        <ele>175</ele>
        <time>2016-07-24T07:21:08Z</time>
      </trkpt>
      <trkpt lat="44.50606" lon="0.71977">
        <ele>176</ele>
        <time>2016-07-24T07:21:14Z</time>
      </trkpt>
      <trkpt lat="44.50601" lon="0.71985">
        <ele>176</ele>
        <time>2016-07-24T07:21:16Z</time>
      </trkpt>
      <trkpt lat="44.50596" lon="0.72008">
        <ele>177</ele>
        <time>2016-07-24T07:21:20Z</time>
      </trkpt>
      <trkpt lat="44.50585" lon="0.72032">
        <ele>177</ele>
        <time>2016-07-24T07:21:25Z</time>
      </trkpt>
      <trkpt lat="44.5058" lon="0.7206">
        <ele>178</ele>
        <time>2016-07-24T07:21:30Z</time>
      </trkpt>
      <trkpt lat="44.50575" lon="0.72089">
        <ele>178</ele>
        <time>2016-07-24T07:21:35Z</time>
      </trkpt>
      <trkpt lat="44.50571" lon="0.72116">
        <ele>179</ele>
        <time>2016-07-24T07:21:40Z</time>
      </trkpt>
      <trkpt lat="44.50566" lon="0.72138">
        <ele>180</ele>
        <time>2016-07-24T07:21:45Z</time>
      </trkpt>
      <trkpt lat="44.50559" lon="0.7218">
        <ele>181</ele>
        <time>2016-07-24T07:21:53Z</time>
      </trkpt>
      <trkpt lat="44.50556" lon="0.72188">
        <ele>181</ele>
        <time>2016-07-24T07:21:55Z</time>
      </trkpt>
      <trkpt lat="44.5055" lon="0.72214">
        <ele>181</ele>
        <time>2016-07-24T07:22:00Z</time>
      </trkpt>
      <trkpt lat="44.50544" lon="0.72243">
        <ele>182</ele>
        <time>2016-07-24T07:22:05Z</time>
      </trkpt>
      <trkpt lat="44.50539" lon="0.7231">
        <ele>182</ele>
        <time>2016-07-24T07:22:13Z</time>
      </trkpt>
      <trkpt lat="44.50535" lon="0.72329">
        <ele>182</ele>
        <time>2016-07-24T07:22:15Z</time>
      </trkpt>
      <trkpt lat="44.5051" lon="0.72386">
        <ele>182</ele>
        <time>2016-07-24T07:22:21Z</time>
      </trkpt>
      <trkpt lat="44.50485" lon="0.7242">
        <ele>181</ele>
        <time>2016-07-24T07:22:25Z</time>
      </trkpt>
      <trkpt lat="44.50458" lon="0.72481">
        <ele>174</ele>
        <time>2016-07-24T07:22:30Z</time>
      </trkpt>
      <trkpt lat="44.50454" lon="0.72554">
        <ele>171</ele>
        <time>2016-07-24T07:22:35Z</time>
      </trkpt>
      <trkpt lat="44.50449" lon="0.72625">
        <ele>166</ele>
        <time>2016-07-24T07:22:40Z</time>
      </trkpt>
      <trkpt lat="44.5045" lon="0.72713">
        <ele>163</ele>
        <time>2016-07-24T07:22:46Z</time>
      </trkpt>
      <trkpt lat="44.50448" lon="0.72783">
        <ele>163</ele>
        <time>2016-07-24T07:22:51Z</time>
      </trkpt>
      <trkpt lat="44.50447" lon="0.72836">
        <ele>161</ele>
        <time>2016-07-24T07:22:55Z</time>
      </trkpt>
      <trkpt lat="44.50438" lon="0.72901">
        <ele>158</ele>
        <time>2016-07-24T07:23:00Z</time>
      </trkpt>
      <trkpt lat="44.50401" lon="0.72912">
        <ele>158</ele>
        <time>2016-07-24T07:23:06Z</time>
      </trkpt>
      <trkpt lat="44.50379" lon="0.72891">
        <ele>159</ele>
        <time>2016-07-24T07:23:10Z</time>
      </trkpt>
      <trkpt lat="44.50368" lon="0.72888">
        <ele>159</ele>
        <time>2016-07-24T07:23:15Z</time>
      </trkpt>
      <trkpt lat="44.50342" lon="0.7288">
        <ele>158</ele>
        <time>2016-07-24T07:23:22Z</time>
      </trkpt>
      <trkpt lat="44.50329" lon="0.72885">
        <ele>157</ele>
        <time>2016-07-24T07:23:25Z</time>
      </trkpt>
      <trkpt lat="44.50315" lon="0.72885">
        <ele>156</ele>
        <time>2016-07-24T07:23:30Z</time>
      </trkpt>
      <trkpt lat="44.5031" lon="0.72887">
        <ele>156</ele>
        <time>2016-07-24T07:23:36Z</time>
      </trkpt>
      <trkpt lat="44.5031" lon="0.72885">
        <ele>156</ele>
        <time>2016-07-24T07:23:40Z</time>
      </trkpt>
      <trkpt lat="44.50308" lon="0.72886">
        <ele>156</ele>
        <time>2016-07-24T07:23:45Z</time>
      </trkpt>
      <trkpt lat="44.50304" lon="0.72888">
        <ele>156</ele>
        <time>2016-07-24T07:23:51Z</time>
      </trkpt>
      <trkpt lat="44.50302" lon="0.72887">
        <ele>156</ele>
        <time>2016-07-24T07:23:56Z</time>
      </trkpt>
      <trkpt lat="44.503" lon="0.72887">
        <ele>156</ele>
        <time>2016-07-24T07:24:00Z</time>
      </trkpt>
      <trkpt lat="44.50292" lon="0.72889">
        <ele>155</ele>
        <time>2016-07-24T07:24:05Z</time>
      </trkpt>
      <trkpt lat="44.50289" lon="0.7289">
        <ele>155</ele>
        <time>2016-07-24T07:24:10Z</time>
      </trkpt>
      <trkpt lat="44.50286" lon="0.72894">
        <ele>155</ele>
        <time>2016-07-24T07:24:15Z</time>
      </trkpt>
      <trkpt lat="44.50276" lon="0.72897">
        <ele>154</ele>
        <time>2016-07-24T07:24:20Z</time>
      </trkpt>
      <trkpt lat="44.50259" lon="0.72904">
        <ele>153</ele>
        <time>2016-07-24T07:24:25Z</time>
      </trkpt>
      <trkpt lat="44.50238" lon="0.72901">
        <ele>153</ele>
        <time>2016-07-24T07:24:31Z</time>
      </trkpt>
      <trkpt lat="44.50228" lon="0.72906">
        <ele>153</ele>
        <time>2016-07-24T07:24:35Z</time>
      </trkpt>
      <trkpt lat="44.50215" lon="0.72908">
        <ele>153</ele>
        <time>2016-07-24T07:24:40Z</time>
      </trkpt>
      <trkpt lat="44.50204" lon="0.72909">
        <ele>153</ele>
        <time>2016-07-24T07:24:45Z</time>
      </trkpt>
      <trkpt lat="44.50192" lon="0.72915">
        <ele>153</ele>
        <time>2016-07-24T07:24:52Z</time>
      </trkpt>
      <trkpt lat="44.5019" lon="0.72914">
        <ele>153</ele>
        <time>2016-07-24T07:24:55Z</time>
      </trkpt>
      <trkpt lat="44.50196" lon="0.72913">
        <ele>153</ele>
        <time>2016-07-24T07:25:00Z</time>
      </trkpt>
      <trkpt lat="44.50218" lon="0.72905">
        <ele>153</ele>
        <time>2016-07-24T07:25:07Z</time>
      </trkpt>
      <trkpt lat="44.5021" lon="0.72898">
        <ele>152</ele>
        <time>2016-07-24T07:25:11Z</time>
      </trkpt>
      <trkpt lat="44.502" lon="0.72908">
        <ele>153</ele>
        <time>2016-07-24T07:25:15Z</time>
      </trkpt>
      <trkpt lat="44.50184" lon="0.72915">
        <ele>153</ele>
        <time>2016-07-24T07:25:20Z</time>
      </trkpt>
      <trkpt lat="44.50168" lon="0.72919">
        <ele>153</ele>
        <time>2016-07-24T07:25:26Z</time>
      </trkpt>
      <trkpt lat="44.50158" lon="0.72917">
        <ele>153</ele>
        <time>2016-07-24T07:25:30Z</time>
      </trkpt>
      <trkpt lat="44.5014" lon="0.72925">
        <ele>154</ele>
        <time>2016-07-24T07:25:37Z</time>
      </trkpt>
      <trkpt lat="44.50133" lon="0.72928">
        <ele>155</ele>
        <time>2016-07-24T07:25:40Z</time>
      </trkpt>
      <trkpt lat="44.50116" lon="0.7293">
        <ele>156</ele>
        <time>2016-07-24T07:25:46Z</time>
      </trkpt>
      <trkpt lat="44.50104" lon="0.72929">
        <ele>156</ele>
        <time>2016-07-24T07:25:51Z</time>
      </trkpt>
      <trkpt lat="44.50095" lon="0.72929">
        <ele>157</ele>
        <time>2016-07-24T07:25:55Z</time>
      </trkpt>
      <trkpt lat="44.50075" lon="0.72931">
        <ele>158</ele>
        <time>2016-07-24T07:26:02Z</time>
      </trkpt>
      <trkpt lat="44.50071" lon="0.72934">
        <ele>159</ele>
        <time>2016-07-24T07:26:05Z</time>
      </trkpt>
      <trkpt lat="44.5006" lon="0.72932">
        <ele>159</ele>
        <time>2016-07-24T07:26:13Z</time>
      </trkpt>
      <trkpt lat="44.50053" lon="0.72933">
        <ele>159</ele>
        <time>2016-07-24T07:26:16Z</time>
      </trkpt>
      <trkpt lat="44.50047" lon="0.72933">
        <ele>160</ele>
        <time>2016-07-24T07:26:20Z</time>
      </trkpt>
      <trkpt lat="44.50041" lon="0.72931">
        <ele>160</ele>
        <time>2016-07-24T07:26:25Z</time>
      </trkpt>
      <trkpt lat="44.50028" lon="0.72929">
        <ele>160</ele>
        <time>2016-07-24T07:26:32Z</time>
      </trkpt>
      <trkpt lat="44.50021" lon="0.72928">
        <ele>160</ele>
        <time>2016-07-24T07:26:35Z</time>
      </trkpt>
      <trkpt lat="44.50014" lon="0.72927">
        <ele>160</ele>
        <time>2016-07-24T07:26:40Z</time>
      </trkpt>
      <trkpt lat="44.50008" lon="0.72923">
        <ele>160</ele>
        <time>2016-07-24T07:26:45Z</time>
      </trkpt>
      <trkpt lat="44.49991" lon="0.72913">
        <ele>160</ele>
        <time>2016-07-24T07:26:50Z</time>
      </trkpt>
      <trkpt lat="44.49974" lon="0.729">
        <ele>158</ele>
        <time>2016-07-24T07:26:55Z</time>
      </trkpt>
      <trkpt lat="44.4997" lon="0.72899">
        <ele>158</ele>
        <time>2016-07-24T07:27:00Z</time>
      </trkpt>
      <trkpt lat="44.49969" lon="0.72897">
        <ele>158</ele>
        <time>2016-07-24T07:27:05Z</time>
      </trkpt>
      <trkpt lat="44.49973" lon="0.72896">
        <ele>158</ele>
        <time>2016-07-24T07:27:12Z</time>
      </trkpt>
      <trkpt lat="44.49973" lon="0.72895">
        <ele>158</ele>
        <time>2016-07-24T07:27:13Z</time>
      </trkpt>
      <trkpt lat="44.49973" lon="0.72889">
        <ele>158</ele>
        <time>2016-07-24T07:27:18Z</time>
      </trkpt>
      <trkpt lat="44.49971" lon="0.72886">
        <ele>158</ele>
        <time>2016-07-24T07:27:23Z</time>
      </trkpt>
      <trkpt lat="44.49975" lon="0.72875">
        <ele>157</ele>
        <time>2016-07-24T07:27:28Z</time>
      </trkpt>
      <trkpt lat="44.4996" lon="0.72864">
        <ele>155</ele>
        <time>2016-07-24T07:27:33Z</time>
      </trkpt>
      <trkpt lat="44.4995" lon="0.72862">
        <ele>155</ele>
        <time>2016-07-24T07:27:38Z</time>
      </trkpt>
      <trkpt lat="44.49942" lon="0.72843">
        <ele>153</ele>
        <time>2016-07-24T07:27:43Z</time>
      </trkpt>
      <trkpt lat="44.49916" lon="0.72827">
        <ele>151</ele>
        <time>2016-07-24T07:27:49Z</time>
      </trkpt>
      <trkpt lat="44.49892" lon="0.72826">
        <ele>150</ele>
        <time>2016-07-24T07:27:53Z</time>
      </trkpt>
      <trkpt lat="44.49863" lon="0.72831">
        <ele>150</ele>
        <time>2016-07-24T07:27:58Z</time>
      </trkpt>
      <trkpt lat="44.4984" lon="0.72833">
        <ele>150</ele>
        <time>2016-07-24T07:28:03Z</time>
      </trkpt>
      <trkpt lat="44.49798" lon="0.72839">
        <ele>150</ele>
        <time>2016-07-24T07:28:12Z</time>
      </trkpt>
      <trkpt lat="44.49778" lon="0.72835">
        <ele>149</ele>
        <time>2016-07-24T07:28:16Z</time>
      </trkpt>
      <trkpt lat="44.49762" lon="0.72837">
        <ele>149</ele>
        <time>2016-07-24T07:28:19Z</time>
      </trkpt>
      <trkpt lat="44.4974" lon="0.72838">
        <ele>148</ele>
        <time>2016-07-24T07:28:24Z</time>
      </trkpt>
      <trkpt lat="44.49721" lon="0.72841">
        <ele>148</ele>
        <time>2016-07-24T07:28:28Z</time>
      </trkpt>
      <trkpt lat="44.49689" lon="0.72839">
        <ele>148</ele>
        <time>2016-07-24T07:28:35Z</time>
      </trkpt>
      <trkpt lat="44.49677" lon="0.72839">
        <ele>148</ele>
        <time>2016-07-24T07:28:38Z</time>
      </trkpt>
      <trkpt lat="44.4964" lon="0.72855">
        <ele>148</ele>
        <time>2016-07-24T07:28:47Z</time>
      </trkpt>
      <trkpt lat="44.49635" lon="0.72855">
        <ele>148</ele>
        <time>2016-07-24T07:28:48Z</time>
      </trkpt>
      <trkpt lat="44.49602" lon="0.72868">
        <ele>150</ele>
        <time>2016-07-24T07:28:54Z</time>
      </trkpt>
      <trkpt lat="44.49582" lon="0.72881">
        <ele>151</ele>
        <time>2016-07-24T07:28:58Z</time>
      </trkpt>
      <trkpt lat="44.4956" lon="0.72894">
        <ele>152</ele>
        <time>2016-07-24T07:29:03Z</time>
      </trkpt>
      <trkpt lat="44.4955" lon="0.72899">
        <ele>152</ele>
        <time>2016-07-24T07:29:08Z</time>
      </trkpt>
      <trkpt lat="44.49538" lon="0.72907">
        <ele>153</ele>
        <time>2016-07-24T07:29:13Z</time>
      </trkpt>
      <trkpt lat="44.49524" lon="0.72915">
        <ele>153</ele>
        <time>2016-07-24T07:29:18Z</time>
      </trkpt>
      <trkpt lat="44.49499" lon="0.72924">
        <ele>153</ele>
        <time>2016-07-24T07:29:24Z</time>
      </trkpt>
      <trkpt lat="44.49483" lon="0.72933">
        <ele>153</ele>
        <time>2016-07-24T07:29:28Z</time>
      </trkpt>
      <trkpt lat="44.49462" lon="0.72952">
        <ele>153</ele>
        <time>2016-07-24T07:29:34Z</time>
      </trkpt>
      <trkpt lat="44.49446" lon="0.72956">
        <ele>152</ele>
        <time>2016-07-24T07:29:38Z</time>
      </trkpt>
      <trkpt lat="44.49426" lon="0.72979">
        <ele>152</ele>
        <time>2016-07-24T07:29:45Z</time>
      </trkpt>
      <trkpt lat="44.49417" lon="0.72992">
        <ele>151</ele>
        <time>2016-07-24T07:29:48Z</time>
      </trkpt>
      <trkpt lat="44.49399" lon="0.73005">
        <ele>151</ele>
        <time>2016-07-24T07:29:53Z</time>
      </trkpt>
      <trkpt lat="44.49381" lon="0.73027">
        <ele>150</ele>
        <time>2016-07-24T07:29:58Z</time>
      </trkpt>
      <trkpt lat="44.49361" lon="0.73042">
        <ele>149</ele>
        <time>2016-07-24T07:30:03Z</time>
      </trkpt>
      <trkpt lat="44.49334" lon="0.73054">
        <ele>148</ele>
        <time>2016-07-24T07:30:10Z</time>
      </trkpt>
      <trkpt lat="44.49321" lon="0.73063">
        <ele>148</ele>
        <time>2016-07-24T07:30:13Z</time>
      </trkpt>
      <trkpt lat="44.4931" lon="0.73069">
        <ele>147</ele>
        <time>2016-07-24T07:30:18Z</time>
      </trkpt>
      <trkpt lat="44.49302" lon="0.73074">
        <ele>147</ele>
        <time>2016-07-24T07:30:23Z</time>
      </trkpt>
      <trkpt lat="44.49301" lon="0.73073">
        <ele>147</ele>
        <time>2016-07-24T07:30:28Z</time>
      </trkpt>
      <trkpt lat="44.49297" lon="0.73075">
        <ele>147</ele>
        <time>2016-07-24T07:30:31Z</time>
      </trkpt>
      <trkpt lat="44.49285" lon="0.73075">
        <ele>146</ele>
        <time>2016-07-24T07:30:36Z</time>
      </trkpt>
      <trkpt lat="44.49276" lon="0.73086">
        <ele>147</ele>
        <time>2016-07-24T07:30:41Z</time>
      </trkpt>
      <trkpt lat="44.49263" lon="0.73096">
        <ele>147</ele>
        <time>2016-07-24T07:30:46Z</time>
      </trkpt>
      <trkpt lat="44.49252" lon="0.73101">
        <ele>147</ele>
        <time>2016-07-24T07:30:51Z</time>
      </trkpt>
      <trkpt lat="44.49243" lon="0.73109">
        <ele>147</ele>
        <time>2016-07-24T07:30:56Z</time>
      </trkpt>
      <trkpt lat="44.4924" lon="0.73114">
        <ele>147</ele>
        <time>2016-07-24T07:31:01Z</time>
      </trkpt>
      <trkpt lat="44.49238" lon="0.73118">
        <ele>148</ele>
        <time>2016-07-24T07:31:06Z</time>
      </trkpt>
      <trkpt lat="44.49238" lon="0.73119">
        <ele>148</ele>
        <time>2016-07-24T07:31:11Z</time>
      </trkpt>
      <trkpt lat="44.49237" lon="0.7312">
        <ele>148</ele>
        <time>2016-07-24T07:31:14Z</time>
      </trkpt>
      <trkpt lat="44.49237" lon="0.73122">
        <ele>148</ele>
        <time>2016-07-24T07:31:17Z</time>
      </trkpt>
      <trkpt lat="44.49236" lon="0.73122">
        <ele>148</ele>
        <time>2016-07-24T07:31:22Z</time>
      </trkpt>
      <trkpt lat="44.49232" lon="0.73125">
        <ele>148</ele>
        <time>2016-07-24T07:31:25Z</time>
      </trkpt>
      <trkpt lat="44.49227" lon="0.7313">
        <ele>148</ele>
        <time>2016-07-24T07:31:30Z</time>
      </trkpt>
      <trkpt lat="44.49225" lon="0.73131">
        <ele>148</ele>
        <time>2016-07-24T07:31:35Z</time>
      </trkpt>
      <trkpt lat="44.49224" lon="0.73131">
        <ele>148</ele>
        <time>2016-07-24T07:31:40Z</time>
      </trkpt>
      <trkpt lat="44.49224" lon="0.73131">
        <ele>148</ele>
        <time>2016-07-24T07:31:43Z</time>
      </trkpt>
      <trkpt lat="44.49217" lon="0.73132">
        <ele>148</ele>
        <time>2016-07-24T07:31:46Z</time>
      </trkpt>
      <trkpt lat="44.49204" lon="0.73137">
        <ele>149</ele>
        <time>2016-07-24T07:31:51Z</time>
      </trkpt>
      <trkpt lat="44.49192" lon="0.73138">
        <ele>149</ele>
        <time>2016-07-24T07:31:56Z</time>
      </trkpt>
      <trkpt lat="44.49182" lon="0.73137">
        <ele>148</ele>
        <time>2016-07-24T07:32:01Z</time>
      </trkpt>
      <trkpt lat="44.49175" lon="0.73138">
        <ele>148</ele>
        <time>2016-07-24T07:32:06Z</time>
      </trkpt>
      <trkpt lat="44.49169" lon="0.73138">
        <ele>148</ele>
        <time>2016-07-24T07:32:11Z</time>
      </trkpt>
      <trkpt lat="44.49169" lon="0.73137">
        <ele>148</ele>
        <time>2016-07-24T07:32:16Z</time>
      </trkpt>
      <trkpt lat="44.49169" lon="0.73137">
        <ele>148</ele>
        <time>2016-07-24T07:32:19Z</time>
      </trkpt>
      <trkpt lat="44.49163" lon="0.73137">
        <ele>148</ele>
        <time>2016-07-24T07:32:22Z</time>
      </trkpt>
      <trkpt lat="44.49149" lon="0.73141">
        <ele>148</ele>
        <time>2016-07-24T07:32:27Z</time>
      </trkpt>
      <trkpt lat="44.49135" lon="0.73146">
        <ele>147</ele>
        <time>2016-07-24T07:32:32Z</time>
      </trkpt>
      <trkpt lat="44.49121" lon="0.73154">
        <ele>147</ele>
        <time>2016-07-24T07:32:37Z</time>
      </trkpt>
      <trkpt lat="44.4911" lon="0.73166">
        <ele>148</ele>
        <time>2016-07-24T07:32:42Z</time>
      </trkpt>
      <trkpt lat="44.49087" lon="0.73183">
        <ele>148</ele>
        <time>2016-07-24T07:32:48Z</time>
      </trkpt>
      <trkpt lat="44.49074" lon="0.73198">
        <ele>148</ele>
        <time>2016-07-24T07:32:52Z</time>
      </trkpt>
      <trkpt lat="44.49061" lon="0.73213">
        <ele>149</ele>
        <time>2016-07-24T07:32:57Z</time>
      </trkpt>
      <trkpt lat="44.49047" lon="0.73218">
        <ele>148</ele>
        <time>2016-07-24T07:33:02Z</time>
      </trkpt>
      <trkpt lat="44.49031" lon="0.73228">
        <ele>148</ele>
        <time>2016-07-24T07:33:07Z</time>
      </trkpt>
      <trkpt lat="44.49008" lon="0.73237">
        <ele>148</ele>
        <time>2016-07-24T07:33:12Z</time>
      </trkpt>
      <trkpt lat="44.48995" lon="0.73253">
        <ele>150</ele>
        <time>2016-07-24T07:33:17Z</time>
      </trkpt>
      <trkpt lat="44.48973" lon="0.7326">
        <ele>150</ele>
        <time>2016-07-24T07:33:22Z</time>
      </trkpt>
      <trkpt lat="44.48956" lon="0.7327">
        <ele>150</ele>
        <time>2016-07-24T07:33:27Z</time>
      </trkpt>
      <trkpt lat="44.48943" lon="0.73285">
        <ele>151</ele>
        <time>2016-07-24T07:33:32Z</time>
      </trkpt>
      <trkpt lat="44.48931" lon="0.73307">
        <ele>152</ele>
        <time>2016-07-24T07:33:37Z</time>
      </trkpt>
      <trkpt lat="44.48913" lon="0.73323">
        <ele>153</ele>
        <time>2016-07-24T07:33:43Z</time>
      </trkpt>
      <trkpt lat="44.48905" lon="0.73332">
        <ele>154</ele>
        <time>2016-07-24T07:33:47Z</time>
      </trkpt>
      <trkpt lat="44.4889" lon="0.73341">
        <ele>154</ele>
        <time>2016-07-24T07:33:52Z</time>
      </trkpt>
      <trkpt lat="44.48876" lon="0.73345">
        <ele>155</ele>
        <time>2016-07-24T07:33:57Z</time>
      </trkpt>
      <trkpt lat="44.48856" lon="0.73352">
        <ele>156</ele>
        <time>2016-07-24T07:34:02Z</time>
      </trkpt>
      <trkpt lat="44.48833" lon="0.73363">
        <ele>158</ele>
        <time>2016-07-24T07:34:08Z</time>
      </trkpt>
      <trkpt lat="44.48819" lon="0.73372">
        <ele>159</ele>
        <time>2016-07-24T07:34:12Z</time>
      </trkpt>
      <trkpt lat="44.48809" lon="0.73383">
        <ele>160</ele>
        <time>2016-07-24T07:34:17Z</time>
      </trkpt>
      <trkpt lat="44.48804" lon="0.73387">
        <ele>161</ele>
        <time>2016-07-24T07:34:23Z</time>
      </trkpt>
      <trkpt lat="44.48792" lon="0.73392">
        <ele>161</ele>
        <time>2016-07-24T07:34:27Z</time>
      </trkpt>
      <trkpt lat="44.48789" lon="0.73395">
        <ele>161</ele>
        <time>2016-07-24T07:34:32Z</time>
      </trkpt>
      <trkpt lat="44.48784" lon="0.73402">
        <ele>161</ele>
        <time>2016-07-24T07:34:38Z</time>
      </trkpt>
      <trkpt lat="44.48783" lon="0.73402">
        <ele>161</ele>
        <time>2016-07-24T07:34:42Z</time>
      </trkpt>
      <trkpt lat="44.48782" lon="0.73401">
        <ele>162</ele>
        <time>2016-07-24T07:34:45Z</time>
      </trkpt>
      <trkpt lat="44.48777" lon="0.73402">
        <ele>162</ele>
        <time>2016-07-24T07:34:50Z</time>
      </trkpt>
      <trkpt lat="44.48763" lon="0.73401">
        <ele>162</ele>
        <time>2016-07-24T07:34:55Z</time>
      </trkpt>
      <trkpt lat="44.48739" lon="0.73415">
        <ele>162</ele>
        <time>2016-07-24T07:35:02Z</time>
      </trkpt>
      <trkpt lat="44.48731" lon="0.73418">
        <ele>162</ele>
        <time>2016-07-24T07:35:05Z</time>
      </trkpt>
      <trkpt lat="44.487" lon="0.73447">
        <ele>163</ele>
        <time>2016-07-24T07:35:13Z</time>
      </trkpt>
      <trkpt lat="44.48688" lon="0.7347">
        <ele>163</ele>
        <time>2016-07-24T07:35:17Z</time>
      </trkpt>
      <trkpt lat="44.48673" lon="0.735">
        <ele>163</ele>
        <time>2016-07-24T07:35:21Z</time>
      </trkpt>
      <trkpt lat="44.48657" lon="0.73532">
        <ele>163</ele>
        <time>2016-07-24T07:35:29Z</time>
      </trkpt>
      <trkpt lat="44.48654" lon="0.73536">
        <ele>163</ele>
        <time>2016-07-24T07:35:30Z</time>
      </trkpt>
      <trkpt lat="44.48643" lon="0.73565">
        <ele>163</ele>
        <time>2016-07-24T07:35:39Z</time>
      </trkpt>
      <trkpt lat="44.48643" lon="0.73567">
        <ele>163</ele>
        <time>2016-07-24T07:35:40Z</time>
      </trkpt>
      <trkpt lat="44.48644" lon="0.73568">
        <ele>163</ele>
        <time>2016-07-24T07:35:45Z</time>
      </trkpt>
      <trkpt lat="44.4864" lon="0.73572">
        <ele>162</ele>
        <time>2016-07-24T07:35:48Z</time>
      </trkpt>
      <trkpt lat="44.48637" lon="0.73581">
        <ele>162</ele>
        <time>2016-07-24T07:35:53Z</time>
      </trkpt>
      <trkpt lat="44.48639" lon="0.73591">
        <ele>162</ele>
        <time>2016-07-24T07:35:58Z</time>
      </trkpt>
      <trkpt lat="44.48639" lon="0.73595">
        <ele>162</ele>
        <time>2016-07-24T07:36:05Z</time>
      </trkpt>
      <trkpt lat="44.48636" lon="0.73593">
        <ele>162</ele>
        <time>2016-07-24T07:36:12Z</time>
      </trkpt>
      <trkpt lat="44.48636" lon="0.73593">
        <ele>162</ele>
        <time>2016-07-24T07:36:13Z</time>
      </trkpt>
      <trkpt lat="44.48632" lon="0.73596">
        <ele>162</ele>
        <time>2016-07-24T07:36:16Z</time>
      </trkpt>
      <trkpt lat="44.48629" lon="0.73614">
        <ele>161</ele>
        <time>2016-07-24T07:36:21Z</time>
      </trkpt>
      <trkpt lat="44.48621" lon="0.73635">
        <ele>160</ele>
        <time>2016-07-24T07:36:26Z</time>
      </trkpt>
      <trkpt lat="44.48615" lon="0.73656">
        <ele>160</ele>
        <time>2016-07-24T07:36:31Z</time>
      </trkpt>
      <trkpt lat="44.4862" lon="0.7368">
        <ele>159</ele>
        <time>2016-07-24T07:36:36Z</time>
      </trkpt>
      <trkpt lat="44.48626" lon="0.73712">
        <ele>158</ele>
        <time>2016-07-24T07:36:43Z</time>
      </trkpt>
      <trkpt lat="44.48627" lon="0.73725">
        <ele>158</ele>
        <time>2016-07-24T07:36:46Z</time>
      </trkpt>
      <trkpt lat="44.48626" lon="0.73758">
        <ele>158</ele>
        <time>2016-07-24T07:36:52Z</time>
      </trkpt>
      <trkpt lat="44.48625" lon="0.73777">
        <ele>157</ele>
        <time>2016-07-24T07:36:56Z</time>
      </trkpt>
      <trkpt lat="44.48627" lon="0.7382">
        <ele>157</ele>
        <time>2016-07-24T07:37:05Z</time>
      </trkpt>
      <trkpt lat="44.48626" lon="0.73824">
        <ele>157</ele>
        <time>2016-07-24T07:37:06Z</time>
      </trkpt>
      <trkpt lat="44.48631" lon="0.73859">
        <ele>157</ele>
        <time>2016-07-24T07:37:12Z</time>
      </trkpt>
      <trkpt lat="44.48634" lon="0.73884">
        <ele>156</ele>
        <time>2016-07-24T07:37:17Z</time>
      </trkpt>
      <trkpt lat="44.4864" lon="0.73901">
        <ele>156</ele>
        <time>2016-07-24T07:37:21Z</time>
      </trkpt>
      <trkpt lat="44.4864" lon="0.73934">
        <ele>155</ele>
        <time>2016-07-24T07:37:26Z</time>
      </trkpt>
      <trkpt lat="44.48622" lon="0.73973">
        <ele>154</ele>
        <time>2016-07-24T07:37:31Z</time>
      </trkpt>
      <trkpt lat="44.48599" lon="0.74032">
        <ele>152</ele>
        <time>2016-07-24T07:37:40Z</time>
      </trkpt>
      <trkpt lat="44.48597" lon="0.74038">
        <ele>151</ele>
        <time>2016-07-24T07:37:41Z</time>
      </trkpt>
      <trkpt lat="44.48567" lon="0.74056">
        <ele>150</ele>
        <time>2016-07-24T07:37:49Z</time>
      </trkpt>
      <trkpt lat="44.4856" lon="0.74065">
        <ele>150</ele>
        <time>2016-07-24T07:37:53Z</time>
      </trkpt>
      <trkpt lat="44.48549" lon="0.74098">
        <ele>147</ele>
        <time>2016-07-24T07:38:00Z</time>
      </trkpt>
      <trkpt lat="44.48543" lon="0.74114">
        <ele>146</ele>
        <time>2016-07-24T07:38:02Z</time>
      </trkpt>
      <trkpt lat="44.4853" lon="0.74157">
        <ele>141</ele>
        <time>2016-07-24T07:38:06Z</time>
      </trkpt>
      <trkpt lat="44.48518" lon="0.74208">
        <ele>135</ele>
        <time>2016-07-24T07:38:11Z</time>
      </trkpt>
      <trkpt lat="44.4852" lon="0.74252">
        <ele>130</ele>
        <time>2016-07-24T07:38:16Z</time>
      </trkpt>
      <trkpt lat="44.48517" lon="0.74284">
        <ele>127</ele>
        <time>2016-07-24T07:38:21Z</time>
      </trkpt>
      <trkpt lat="44.48517" lon="0.74307">
        <ele>125</ele>
        <time>2016-07-24T07:38:27Z</time>
      </trkpt>
      <trkpt lat="44.4851" lon="0.74346">
        <ele>122</ele>
        <time>2016-07-24T07:38:34Z</time>
      </trkpt>
      <trkpt lat="44.48503" lon="0.7437">
        <ele>120</ele>
        <time>2016-07-24T07:38:37Z</time>
      </trkpt>
      <trkpt lat="44.48497" lon="0.74402">
        <ele>119</ele>
        <time>2016-07-24T07:38:41Z</time>
      </trkpt>
      <trkpt lat="44.48487" lon="0.74442">
        <ele>116</ele>
        <time>2016-07-24T07:38:46Z</time>
      </trkpt>
      <trkpt lat="44.48476" lon="0.74481">
        <ele>114</ele>
        <time>2016-07-24T07:38:51Z</time>
      </trkpt>
      <trkpt lat="44.48467" lon="0.74516">
        <ele>112</ele>
        <time>2016-07-24T07:38:56Z</time>
      </trkpt>
      <trkpt lat="44.48457" lon="0.74553">
        <ele>111</ele>
        <time>2016-07-24T07:39:01Z</time>
      </trkpt>
      <trkpt lat="44.48446" lon="0.7459">
        <ele>111</ele>
        <time>2016-07-24T07:39:06Z</time>
      </trkpt>
      <trkpt lat="44.48433" lon="0.74623">
        <ele>110</ele>
        <time>2016-07-24T07:39:11Z</time>
      </trkpt>
      <trkpt lat="44.48419" lon="0.74659">
        <ele>108</ele>
        <time>2016-07-24T07:39:16Z</time>
      </trkpt>
      <trkpt lat="44.48408" lon="0.74722">
        <ele>106</ele>
        <time>2016-07-24T07:39:21Z</time>
      </trkpt>
      <trkpt lat="44.48399" lon="0.74772">
        <ele>103</ele>
        <time>2016-07-24T07:39:26Z</time>
      </trkpt>
      <trkpt lat="44.48392" lon="0.74798">
        <ele>100</ele>
        <time>2016-07-24T07:39:31Z</time>
      </trkpt>
      <trkpt lat="44.48378" lon="0.74799">
        <ele>100</ele>
        <time>2016-07-24T07:39:36Z</time>
      </trkpt>
      <trkpt lat="44.48342" lon="0.74795">
        <ele>99</ele>
        <time>2016-07-24T07:39:45Z</time>
      </trkpt>
      <trkpt lat="44.48338" lon="0.74796">
        <ele>99</ele>
        <time>2016-07-24T07:39:46Z</time>
      </trkpt>
      <trkpt lat="44.48348" lon="0.74826">
        <ele>97</ele>
        <time>2016-07-24T07:39:51Z</time>
      </trkpt>
      <trkpt lat="44.48356" lon="0.74849">
        <ele>95</ele>
        <time>2016-07-24T07:39:56Z</time>
      </trkpt>
      <trkpt lat="44.48342" lon="0.74882">
        <ele>92</ele>
        <time>2016-07-24T07:40:03Z</time>
      </trkpt>
      <trkpt lat="44.48338" lon="0.74892">
        <ele>92</ele>
        <time>2016-07-24T07:40:06Z</time>
      </trkpt>
      <trkpt lat="44.48335" lon="0.74913">
        <ele>91</ele>
        <time>2016-07-24T07:40:12Z</time>
      </trkpt>
      <trkpt lat="44.4834" lon="0.74926">
        <ele>92</ele>
        <time>2016-07-24T07:40:16Z</time>
      </trkpt>
      <trkpt lat="44.48354" lon="0.7494">
        <ele>93</ele>
        <time>2016-07-24T07:40:21Z</time>
      </trkpt>
      <trkpt lat="44.48367" lon="0.74957">
        <ele>94</ele>
        <time>2016-07-24T07:40:26Z</time>
      </trkpt>
      <trkpt lat="44.48383" lon="0.74965">
        <ele>95</ele>
        <time>2016-07-24T07:40:31Z</time>
      </trkpt>
      <trkpt lat="44.48398" lon="0.74974">
        <ele>95</ele>
        <time>2016-07-24T07:40:36Z</time>
      </trkpt>
      <trkpt lat="44.48413" lon="0.74988">
        <ele>96</ele>
        <time>2016-07-24T07:40:42Z</time>
      </trkpt>
      <trkpt lat="44.48418" lon="0.75">
        <ele>97</ele>
        <time>2016-07-24T07:40:46Z</time>
      </trkpt>
      <trkpt lat="44.48417" lon="0.75017">
        <ele>97</ele>
        <time>2016-07-24T07:40:51Z</time>
      </trkpt>
      <trkpt lat="44.4841" lon="0.75038">
        <ele>97</ele>
        <time>2016-07-24T07:40:56Z</time>
      </trkpt>
      <trkpt lat="44.48413" lon="0.75084">
        <ele>97</ele>
        <time>2016-07-24T07:41:01Z</time>
      </trkpt>
      <trkpt lat="44.48415" lon="0.75132">
        <ele>96</ele>
        <time>2016-07-24T07:41:06Z</time>
      </trkpt>
      <trkpt lat="44.48421" lon="0.75169">
        <ele>93</ele>
        <time>2016-07-24T07:41:11Z</time>
      </trkpt>
      <trkpt lat="44.48407" lon="0.75258">
        <ele>80</ele>
        <time>2016-07-24T07:41:20Z</time>
      </trkpt>
      <trkpt lat="44.48405" lon="0.75287">
        <ele>75</ele>
        <time>2016-07-24T07:41:23Z</time>
      </trkpt>
      <trkpt lat="44.48414" lon="0.75314">
        <ele>73</ele>
        <time>2016-07-24T07:41:26Z</time>
      </trkpt>
      <trkpt lat="44.48432" lon="0.7536">
        <ele>73</ele>
        <time>2016-07-24T07:41:34Z</time>
      </trkpt>
      <trkpt lat="44.48438" lon="0.7537">
        <ele>73</ele>
        <time>2016-07-24T07:41:36Z</time>
      </trkpt>
      <trkpt lat="44.48446" lon="0.75396">
        <ele>74</ele>
        <time>2016-07-24T07:41:41Z</time>
      </trkpt>
      <trkpt lat="44.48464" lon="0.75434">
        <ele>78</ele>
        <time>2016-07-24T07:41:48Z</time>
      </trkpt>
      <trkpt lat="44.48471" lon="0.75457">
        <ele>78</ele>
        <time>2016-07-24T07:41:51Z</time>
      </trkpt>
      <trkpt lat="44.48482" lon="0.75493">
        <ele>76</ele>
        <time>2016-07-24T07:41:57Z</time>
      </trkpt>
      <trkpt lat="44.48484" lon="0.75519">
        <ele>73</ele>
        <time>2016-07-24T07:42:01Z</time>
      </trkpt>
      <trkpt lat="44.48488" lon="0.75554">
        <ele>71</ele>
        <time>2016-07-24T07:42:07Z</time>
      </trkpt>
      <trkpt lat="44.48492" lon="0.75574">
        <ele>71</ele>
        <time>2016-07-24T07:42:11Z</time>
      </trkpt>
      <trkpt lat="44.48505" lon="0.7561">
        <ele>70</ele>
        <time>2016-07-24T07:42:17Z</time>
      </trkpt>
      <trkpt lat="44.48512" lon="0.75647">
        <ele>69</ele>
        <time>2016-07-24T07:42:23Z</time>
      </trkpt>
      <trkpt lat="44.48513" lon="0.75659">
        <ele>69</ele>
        <time>2016-07-24T07:42:26Z</time>
      </trkpt>
      <trkpt lat="44.48517" lon="0.75678">
        <ele>68</ele>
        <time>2016-07-24T07:42:31Z</time>
      </trkpt>
      <trkpt lat="44.48538" lon="0.75688">
        <ele>70</ele>
        <time>2016-07-24T07:42:40Z</time>
      </trkpt>
      <trkpt lat="44.48542" lon="0.7569">
        <ele>71</ele>
        <time>2016-07-24T07:42:41Z</time>
      </trkpt>
      <trkpt lat="44.48564" lon="0.75686">
        <ele>73</ele>
        <time>2016-07-24T07:42:48Z</time>
      </trkpt>
      <trkpt lat="44.48574" lon="0.7568">
        <ele>75</ele>
        <time>2016-07-24T07:42:52Z</time>
      </trkpt>
      <trkpt lat="44.4858" lon="0.75677">
        <ele>76</ele>
        <time>2016-07-24T07:42:57Z</time>
      </trkpt>
      <trkpt lat="44.48586" lon="0.75673">
        <ele>77</ele>
        <time>2016-07-24T07:43:01Z</time>
      </trkpt>
      <trkpt lat="44.48594" lon="0.75674">
        <ele>77</ele>
        <time>2016-07-24T07:43:06Z</time>
      </trkpt>
      <trkpt lat="44.48601" lon="0.75672">
        <ele>78</ele>
        <time>2016-07-24T07:43:11Z</time>
      </trkpt>
      <trkpt lat="44.48607" lon="0.75671">
        <ele>79</ele>
        <time>2016-07-24T07:43:16Z</time>
      </trkpt>
      <trkpt lat="44.48618" lon="0.7567">
        <ele>79</ele>
        <time>2016-07-24T07:43:24Z</time>
      </trkpt>
      <trkpt lat="44.48612" lon="0.75671">
        <ele>79</ele>
        <time>2016-07-24T07:43:28Z</time>
      </trkpt>
      <trkpt lat="44.48602" lon="0.75676">
        <ele>78</ele>
        <time>2016-07-24T07:43:31Z</time>
      </trkpt>
      <trkpt lat="44.48591" lon="0.75692">
        <ele>75</ele>
        <time>2016-07-24T07:43:36Z</time>
      </trkpt>
      <trkpt lat="44.48586" lon="0.75706">
        <ele>74</ele>
        <time>2016-07-24T07:43:41Z</time>
      </trkpt>
      <trkpt lat="44.48588" lon="0.75726">
        <ele>74</ele>
        <time>2016-07-24T07:43:46Z</time>
      </trkpt>
      <trkpt lat="44.48593" lon="0.7575">
        <ele>75</ele>
        <time>2016-07-24T07:43:51Z</time>
      </trkpt>
      <trkpt lat="44.48598" lon="0.75769">
        <ele>76</ele>
        <time>2016-07-24T07:43:56Z</time>
      </trkpt>
      <trkpt lat="44.48602" lon="0.75792">
        <ele>78</ele>
        <time>2016-07-24T07:44:01Z</time>
      </trkpt>
      <trkpt lat="44.48603" lon="0.7582">
        <ele>79</ele>
        <time>2016-07-24T07:44:06Z</time>
      </trkpt>
      <trkpt lat="44.48605" lon="0.7585">
        <ele>79</ele>
        <time>2016-07-24T07:44:11Z</time>
      </trkpt>
      <trkpt lat="44.48603" lon="0.7588">
        <ele>78</ele>
        <time>2016-07-24T07:44:16Z</time>
      </trkpt>
      <trkpt lat="44.48599" lon="0.75909">
        <ele>77</ele>
        <time>2016-07-24T07:44:21Z</time>
      </trkpt>
      <trkpt lat="44.48598" lon="0.7594">
        <ele>77</ele>
        <time>2016-07-24T07:44:26Z</time>
      </trkpt>
      <trkpt lat="44.48598" lon="0.75967">
        <ele>77</ele>
        <time>2016-07-24T07:44:31Z</time>
      </trkpt>
      <trkpt lat="44.486" lon="0.75993">
        <ele>77</ele>
        <time>2016-07-24T07:44:36Z</time>
      </trkpt>
      <trkpt lat="44.48609" lon="0.7602">
        <ele>79</ele>
        <time>2016-07-24T07:44:44Z</time>
      </trkpt>
      <trkpt lat="44.48613" lon="0.76027">
        <ele>79</ele>
        <time>2016-07-24T07:44:46Z</time>
      </trkpt>
      <trkpt lat="44.4862" lon="0.76033">
        <ele>80</ele>
        <time>2016-07-24T07:44:51Z</time>
      </trkpt>
      <trkpt lat="44.48613" lon="0.76031">
        <ele>79</ele>
        <time>2016-07-24T07:44:56Z</time>
      </trkpt>
      <trkpt lat="44.48603" lon="0.76011">
        <ele>78</ele>
        <time>2016-07-24T07:45:01Z</time>
      </trkpt>
      <trkpt lat="44.48595" lon="0.76008">
        <ele>76</ele>
        <time>2016-07-24T07:45:07Z</time>
      </trkpt>
      <trkpt lat="44.48592" lon="0.76021">
        <ele>75</ele>
        <time>2016-07-24T07:45:11Z</time>
      </trkpt>
      <trkpt lat="44.48591" lon="0.76047">
        <ele>74</ele>
        <time>2016-07-24T07:45:17Z</time>
      </trkpt>
      <trkpt lat="44.48583" lon="0.76066">
        <ele>72</ele>
        <time>2016-07-24T07:45:21Z</time>
      </trkpt>
      <trkpt lat="44.4857" lon="0.76095">
        <ele>70</ele>
        <time>2016-07-24T07:45:26Z</time>
      </trkpt>
      <trkpt lat="44.48553" lon="0.76115">
        <ele>68</ele>
        <time>2016-07-24T07:45:32Z</time>
      </trkpt>
      <trkpt lat="44.48541" lon="0.7612">
        <ele>67</ele>
        <time>2016-07-24T07:45:36Z</time>
      </trkpt>
      <trkpt lat="44.48522" lon="0.76124">
        <ele>66</ele>
        <time>2016-07-24T07:45:45Z</time>
      </trkpt>
      <trkpt lat="44.48519" lon="0.76125">
        <ele>66</ele>
        <time>2016-07-24T07:45:46Z</time>
      </trkpt>
      <trkpt lat="44.48508" lon="0.7613">
        <ele>66</ele>
        <time>2016-07-24T07:45:51Z</time>
      </trkpt>
      <trkpt lat="44.48489" lon="0.76136">
        <ele>65</ele>
        <time>2016-07-24T07:45:57Z</time>
      </trkpt>
      <trkpt lat="44.48486" lon="0.76154">
        <ele>65</ele>
        <time>2016-07-24T07:46:01Z</time>
      </trkpt>
      <trkpt lat="44.48502" lon="0.76186">
        <ele>66</ele>
        <time>2016-07-24T07:46:09Z</time>
      </trkpt>
      <trkpt lat="44.48525" lon="0.762">
        <ele>66</ele>
        <time>2016-07-24T07:46:15Z</time>
      </trkpt>
      <trkpt lat="44.48529" lon="0.76201">
        <ele>66</ele>
        <time>2016-07-24T07:46:16Z</time>
      </trkpt>
      <trkpt lat="44.48545" lon="0.76224">
        <ele>67</ele>
        <time>2016-07-24T07:46:23Z</time>
      </trkpt>
      <trkpt lat="44.48531" lon="0.76256">
        <ele>66</ele>
        <time>2016-07-24T07:46:30Z</time>
      </trkpt>
      <trkpt lat="44.48529" lon="0.76261">
        <ele>66</ele>
        <time>2016-07-24T07:46:31Z</time>
      </trkpt>
      <trkpt lat="44.48523" lon="0.76288">
        <ele>65</ele>
        <time>2016-07-24T07:46:36Z</time>
      </trkpt>
      <trkpt lat="44.48519" lon="0.76314">
        <ele>66</ele>
        <time>2016-07-24T07:46:41Z</time>
      </trkpt>
      <trkpt lat="44.48517" lon="0.76339">
        <ele>66</ele>
        <time>2016-07-24T07:46:46Z</time>
      </trkpt>
      <trkpt lat="44.48518" lon="0.76367">
        <ele>67</ele>
        <time>2016-07-24T07:46:51Z</time>
      </trkpt>
      <trkpt lat="44.4852" lon="0.76393">
        <ele>67</ele>
        <time>2016-07-24T07:46:56Z</time>
      </trkpt>
      <trkpt lat="44.48525" lon="0.76414">
        <ele>68</ele>
        <time>2016-07-24T07:47:01Z</time>
      </trkpt>
      <trkpt lat="44.48529" lon="0.76439">
        <ele>68</ele>
        <time>2016-07-24T07:47:06Z</time>
      </trkpt>
      <trkpt lat="44.48521" lon="0.76473">
        <ele>69</ele>
        <time>2016-07-24T07:47:13Z</time>
      </trkpt>
      <trkpt lat="44.48518" lon="0.76487">
        <ele>69</ele>
        <time>2016-07-24T07:47:16Z</time>
      </trkpt>
      <trkpt lat="44.48509" lon="0.76526">
        <ele>69</ele>
        <time>2016-07-24T07:47:24Z</time>
      </trkpt>
      <trkpt lat="44.48506" lon="0.76536">
        <ele>69</ele>
        <time>2016-07-24T07:47:26Z</time>
      </trkpt>
      <trkpt lat="44.48499" lon="0.76556">
        <ele>69</ele>
        <time>2016-07-24T07:47:31Z</time>
      </trkpt>
      <trkpt lat="44.48499" lon="0.76569">
        <ele>69</ele>
        <time>2016-07-24T07:47:36Z</time>
      </trkpt>
      <trkpt lat="44.48499" lon="0.7657">
        <ele>69</ele>
        <time>2016-07-24T07:47:41Z</time>
      </trkpt>
      <trkpt lat="44.48503" lon="0.76568">
        <ele>69</ele>
        <time>2016-07-24T07:47:44Z</time>
      </trkpt>
      <trkpt lat="44.48513" lon="0.76588">
        <ele>69</ele>
        <time>2016-07-24T07:47:52Z</time>
      </trkpt>
      <trkpt lat="44.48512" lon="0.766">
        <ele>69</ele>
        <time>2016-07-24T07:47:54Z</time>
      </trkpt>
      <trkpt lat="44.48514" lon="0.76621">
        <ele>69</ele>
        <time>2016-07-24T07:47:59Z</time>
      </trkpt>
      <trkpt lat="44.48516" lon="0.76646">
        <ele>69</ele>
        <time>2016-07-24T07:48:04Z</time>
      </trkpt>
      <trkpt lat="44.4852" lon="0.7667">
        <ele>70</ele>
        <time>2016-07-24T07:48:09Z</time>
      </trkpt>
      <trkpt lat="44.48522" lon="0.767">
        <ele>69</ele>
        <time>2016-07-24T07:48:15Z</time>
      </trkpt>
      <trkpt lat="44.48524" lon="0.76723">
        <ele>69</ele>
        <time>2016-07-24T07:48:19Z</time>
      </trkpt>
      <trkpt lat="44.48513" lon="0.76746">
        <ele>69</ele>
        <time>2016-07-24T07:48:24Z</time>
      </trkpt>
      <trkpt lat="44.48498" lon="0.76772">
        <ele>69</ele>
        <time>2016-07-24T07:48:31Z</time>
      </trkpt>
      <trkpt lat="44.48492" lon="0.76787">
        <ele>69</ele>
        <time>2016-07-24T07:48:34Z</time>
      </trkpt>
      <trkpt lat="44.48481" lon="0.76822">
        <ele>70</ele>
        <time>2016-07-24T07:48:40Z</time>
      </trkpt>
      <trkpt lat="44.48475" lon="0.76839">
        <ele>70</ele>
        <time>2016-07-24T07:48:44Z</time>
      </trkpt>
      <trkpt lat="44.48469" lon="0.76877">
        <ele>70</ele>
        <time>2016-07-24T07:48:52Z</time>
      </trkpt>
      <trkpt lat="44.48468" lon="0.76884">
        <ele>70</ele>
        <time>2016-07-24T07:48:54Z</time>
      </trkpt>
      <trkpt lat="44.48465" lon="0.76901">
        <ele>71</ele>
        <time>2016-07-24T07:49:00Z</time>
      </trkpt>
      <trkpt lat="44.48456" lon="0.76906">
        <ele>71</ele>
        <time>2016-07-24T07:49:04Z</time>
      </trkpt>
      <trkpt lat="44.48428" lon="0.76907">
        <ele>71</ele>
        <time>2016-07-24T07:49:13Z</time>
      </trkpt>
      <trkpt lat="44.48413" lon="0.7691">
        <ele>72</ele>
        <time>2016-07-24T07:49:18Z</time>
      </trkpt>
      <trkpt lat="44.48404" lon="0.76915">
        <ele>72</ele>
        <time>2016-07-24T07:49:21Z</time>
      </trkpt>
      <trkpt lat="44.48396" lon="0.7692">
        <ele>73</ele>
        <time>2016-07-24T07:49:24Z</time>
      </trkpt>
      <trkpt lat="44.48383" lon="0.76935">
        <ele>73</ele>
        <time>2016-07-24T07:49:29Z</time>
      </trkpt>
      <trkpt lat="44.48373" lon="0.7695">
        <ele>74</ele>
        <time>2016-07-24T07:49:34Z</time>
      </trkpt>
      <trkpt lat="44.48364" lon="0.76967">
        <ele>75</ele>
        <time>2016-07-24T07:49:39Z</time>
      </trkpt>
      <trkpt lat="44.48356" lon="0.76985">
        <ele>76</ele>
        <time>2016-07-24T07:49:44Z</time>
      </trkpt>
      <trkpt lat="44.48344" lon="0.76999">
        <ele>77</ele>
        <time>2016-07-24T07:49:49Z</time>
      </trkpt>
      <trkpt lat="44.48328" lon="0.76998">
        <ele>77</ele>
        <time>2016-07-24T07:49:55Z</time>
      </trkpt>
      <trkpt lat="44.48315" lon="0.76994">
        <ele>78</ele>
        <time>2016-07-24T07:49:59Z</time>
      </trkpt>
      <trkpt lat="44.48299" lon="0.76988">
        <ele>80</ele>
        <time>2016-07-24T07:50:04Z</time>
      </trkpt>
      <trkpt lat="44.48287" lon="0.76982">
        <ele>81</ele>
        <time>2016-07-24T07:50:09Z</time>
      </trkpt>
      <trkpt lat="44.48278" lon="0.76986">
        <ele>82</ele>
        <time>2016-07-24T07:50:16Z</time>
      </trkpt>
      <trkpt lat="44.48274" lon="0.76988">
        <ele>82</ele>
        <time>2016-07-24T07:50:19Z</time>
      </trkpt>
      <trkpt lat="44.48268" lon="0.77003">
        <ele>82</ele>
        <time>2016-07-24T07:50:24Z</time>
      </trkpt>
      <trkpt lat="44.48266" lon="0.77023">
        <ele>80</ele>
        <time>2016-07-24T07:50:29Z</time>
      </trkpt>
      <trkpt lat="44.4827" lon="0.77038">
        <ele>79</ele>
        <time>2016-07-24T07:50:34Z</time>
      </trkpt>
      <trkpt lat="44.48276" lon="0.77047">
        <ele>78</ele>
        <time>2016-07-24T07:50:39Z</time>
      </trkpt>
      <trkpt lat="44.48286" lon="0.7706">
        <ele>77</ele>
        <time>2016-07-24T07:50:44Z</time>
      </trkpt>
      <trkpt lat="44.48293" lon="0.77079">
        <ele>77</ele>
        <time>2016-07-24T07:50:49Z</time>
      </trkpt>
      <trkpt lat="44.48301" lon="0.77092">
        <ele>77</ele>
        <time>2016-07-24T07:50:54Z</time>
      </trkpt>
      <trkpt lat="44.48301" lon="0.77105">
        <ele>77</ele>
        <time>2016-07-24T07:50:59Z</time>
      </trkpt>
      <trkpt lat="44.48299" lon="0.77118">
        <ele>78</ele>
        <time>2016-07-24T07:51:05Z</time>
      </trkpt>
      <trkpt lat="44.48298" lon="0.77125">
        <ele>78</ele>
        <time>2016-07-24T07:51:09Z</time>
      </trkpt>
      <trkpt lat="44.48295" lon="0.77131">
        <ele>79</ele>
        <time>2016-07-24T07:51:14Z</time>
      </trkpt>
      <trkpt lat="44.48293" lon="0.77136">
        <ele>79</ele>
        <time>2016-07-24T07:51:19Z</time>
      </trkpt>
      <trkpt lat="44.4829" lon="0.77142">
        <ele>79</ele>
        <time>2016-07-24T07:51:24Z</time>
      </trkpt>
      <trkpt lat="44.48298" lon="0.77162">
        <ele>82</ele>
        <time>2016-07-24T07:51:33Z</time>
      </trkpt>
      <trkpt lat="44.48305" lon="0.77169">
        <ele>83</ele>
        <time>2016-07-24T07:51:38Z</time>
      </trkpt>
      <trkpt lat="44.48306" lon="0.7717">
        <ele>84</ele>
        <time>2016-07-24T07:51:39Z</time>
      </trkpt>
      <trkpt lat="44.48311" lon="0.77176">
        <ele>85</ele>
        <time>2016-07-24T07:51:44Z</time>
      </trkpt>
      <trkpt lat="44.48315" lon="0.77182">
        <ele>86</ele>
        <time>2016-07-24T07:51:49Z</time>
      </trkpt>
      <trkpt lat="44.48317" lon="0.77188">
        <ele>87</ele>
        <time>2016-07-24T07:51:54Z</time>
      </trkpt>
      <trkpt lat="44.48321" lon="0.77194">
        <ele>88</ele>
        <time>2016-07-24T07:51:59Z</time>
      </trkpt>
      <trkpt lat="44.48326" lon="0.77199">
        <ele>89</ele>
        <time>2016-07-24T07:52:04Z</time>
      </trkpt>
      <trkpt lat="44.48333" lon="0.77199">
        <ele>89</ele>
        <time>2016-07-24T07:52:09Z</time>
      </trkpt>
      <trkpt lat="44.48337" lon="0.77195">
        <ele>90</ele>
        <time>2016-07-24T07:52:14Z</time>
      </trkpt>
      <trkpt lat="44.48344" lon="0.77179">
        <ele>90</ele>
        <time>2016-07-24T07:52:22Z</time>
      </trkpt>
      <trkpt lat="44.48346" lon="0.77177">
        <ele>90</ele>
        <time>2016-07-24T07:52:24Z</time>
      </trkpt>
      <trkpt lat="44.48354" lon="0.77173">
        <ele>91</ele>
        <time>2016-07-24T07:52:29Z</time>
      </trkpt>
      <trkpt lat="44.48365" lon="0.77165">
        <ele>92</ele>
        <time>2016-07-24T07:52:34Z</time>
      </trkpt>
      <trkpt lat="44.48375" lon="0.77152">
        <ele>92</ele>
        <time>2016-07-24T07:52:39Z</time>
      </trkpt>
      <trkpt lat="44.48384" lon="0.77147">
        <ele>93</ele>
        <time>2016-07-24T07:52:44Z</time>
      </trkpt>
      <trkpt lat="44.48395" lon="0.77143">
        <ele>94</ele>
        <time>2016-07-24T07:52:49Z</time>
      </trkpt>
      <trkpt lat="44.48409" lon="0.7714">
        <ele>95</ele>
        <time>2016-07-24T07:52:54Z</time>
      </trkpt>
      <trkpt lat="44.48425" lon="0.77138">
        <ele>96</ele>
        <time>2016-07-24T07:52:59Z</time>
      </trkpt>
      <trkpt lat="44.48449" lon="0.77137">
        <ele>95</ele>
        <time>2016-07-24T07:53:06Z</time>
      </trkpt>
      <trkpt lat="44.4846" lon="0.77135">
        <ele>95</ele>
        <time>2016-07-24T07:53:09Z</time>
      </trkpt>
      <trkpt lat="44.48487" lon="0.7714">
        <ele>93</ele>
        <time>2016-07-24T07:53:15Z</time>
      </trkpt>
      <trkpt lat="44.48502" lon="0.7714">
        <ele>92</ele>
        <time>2016-07-24T07:53:19Z</time>
      </trkpt>
      <trkpt lat="44.48534" lon="0.77118">
        <ele>86</ele>
        <time>2016-07-24T07:53:24Z</time>
      </trkpt>
      <trkpt lat="44.48588" lon="0.77094">
        <ele>73</ele>
        <time>2016-07-24T07:53:29Z</time>
      </trkpt>
      <trkpt lat="44.48652" lon="0.77069">
        <ele>66</ele>
        <time>2016-07-24T07:53:34Z</time>
      </trkpt>
      <trkpt lat="44.48693" lon="0.77023">
        <ele>65</ele>
        <time>2016-07-24T07:53:39Z</time>
      </trkpt>
      <trkpt lat="44.4872" lon="0.76984">
        <ele>66</ele>
        <time>2016-07-24T07:53:44Z</time>
      </trkpt>
      <trkpt lat="44.48756" lon="0.76935">
        <ele>68</ele>
        <time>2016-07-24T07:53:53Z</time>
      </trkpt>
      <trkpt lat="44.48759" lon="0.7693">
        <ele>68</ele>
        <time>2016-07-24T07:53:54Z</time>
      </trkpt>
      <trkpt lat="44.48777" lon="0.76906">
        <ele>70</ele>
        <time>2016-07-24T07:53:59Z</time>
      </trkpt>
      <trkpt lat="44.48795" lon="0.76897">
        <ele>71</ele>
        <time>2016-07-24T07:54:04Z</time>
      </trkpt>
      <trkpt lat="44.48815" lon="0.76894">
        <ele>73</ele>
        <time>2016-07-24T07:54:09Z</time>
      </trkpt>
      <trkpt lat="44.48848" lon="0.7688">
        <ele>76</ele>
        <time>2016-07-24T07:54:18Z</time>
      </trkpt>
      <trkpt lat="44.48851" lon="0.76879">
        <ele>76</ele>
        <time>2016-07-24T07:54:19Z</time>
      </trkpt>
      <trkpt lat="44.4887" lon="0.76877">
        <ele>78</ele>
        <time>2016-07-24T07:54:26Z</time>
      </trkpt>
      <trkpt lat="44.48877" lon="0.76874">
        <ele>79</ele>
        <time>2016-07-24T07:54:29Z</time>
      </trkpt>
      <trkpt lat="44.489" lon="0.76869">
        <ele>82</ele>
        <time>2016-07-24T07:54:38Z</time>
      </trkpt>
      <trkpt lat="44.48913" lon="0.76866">
        <ele>84</ele>
        <time>2016-07-24T07:54:42Z</time>
      </trkpt>
      <trkpt lat="44.48929" lon="0.76864">
        <ele>87</ele>
        <time>2016-07-24T07:54:48Z</time>
      </trkpt>
      <trkpt lat="44.48932" lon="0.76863">
        <ele>87</ele>
        <time>2016-07-24T07:54:49Z</time>
      </trkpt>
      <trkpt lat="44.48945" lon="0.76857">
        <ele>89</ele>
        <time>2016-07-24T07:54:54Z</time>
      </trkpt>
      <trkpt lat="44.48954" lon="0.76849">
        <ele>90</ele>
        <time>2016-07-24T07:54:59Z</time>
      </trkpt>
      <trkpt lat="44.48961" lon="0.76844">
        <ele>91</ele>
        <time>2016-07-24T07:55:04Z</time>
      </trkpt>
      <trkpt lat="44.48968" lon="0.76839">
        <ele>91</ele>
        <time>2016-07-24T07:55:09Z</time>
      </trkpt>
      <trkpt lat="44.48978" lon="0.76839">
        <ele>92</ele>
        <time>2016-07-24T07:55:14Z</time>
      </trkpt>
      <trkpt lat="44.48994" lon="0.76842">
        <ele>92</ele>
        <time>2016-07-24T07:55:20Z</time>
      </trkpt>
      <trkpt lat="44.49007" lon="0.7685">
        <ele>92</ele>
        <time>2016-07-24T07:55:26Z</time>
      </trkpt>
      <trkpt lat="44.49013" lon="0.76856">
        <ele>93</ele>
        <time>2016-07-24T07:55:29Z</time>
      </trkpt>
      <trkpt lat="44.49024" lon="0.76866">
        <ele>93</ele>
        <time>2016-07-24T07:55:34Z</time>
      </trkpt>
      <trkpt lat="44.49035" lon="0.76874">
        <ele>93</ele>
        <time>2016-07-24T07:55:39Z</time>
      </trkpt>
      <trkpt lat="44.49048" lon="0.76887">
        <ele>93</ele>
        <time>2016-07-24T07:55:45Z</time>
      </trkpt>
      <trkpt lat="44.4906" lon="0.76895">
        <ele>93</ele>
        <time>2016-07-24T07:55:50Z</time>
      </trkpt>
      <trkpt lat="44.49079" lon="0.76908">
        <ele>94</ele>
        <time>2016-07-24T07:55:58Z</time>
      </trkpt>
      <trkpt lat="44.49082" lon="0.76909">
        <ele>94</ele>
        <time>2016-07-24T07:55:59Z</time>
      </trkpt>
      <trkpt lat="44.49093" lon="0.7692">
        <ele>94</ele>
        <time>2016-07-24T07:56:04Z</time>
      </trkpt>
      <trkpt lat="44.49103" lon="0.76927">
        <ele>95</ele>
        <time>2016-07-24T07:56:09Z</time>
      </trkpt>
      <trkpt lat="44.49114" lon="0.76932">
        <ele>95</ele>
        <time>2016-07-24T07:56:14Z</time>
      </trkpt>
      <trkpt lat="44.49126" lon="0.76934">
        <ele>96</ele>
        <time>2016-07-24T07:56:19Z</time>
      </trkpt>
      <trkpt lat="44.49139" lon="0.7694">
        <ele>96</ele>
        <time>2016-07-24T07:56:24Z</time>
      </trkpt>
      <trkpt lat="44.49152" lon="0.76945">
        <ele>96</ele>
        <time>2016-07-24T07:56:29Z</time>
      </trkpt>
      <trkpt lat="44.49165" lon="0.76949">
        <ele>96</ele>
        <time>2016-07-24T07:56:34Z</time>
      </trkpt>
      <trkpt lat="44.49181" lon="0.76955">
        <ele>97</ele>
        <time>2016-07-24T07:56:39Z</time>
      </trkpt>
      <trkpt lat="44.49206" lon="0.76967">
        <ele>97</ele>
        <time>2016-07-24T07:56:48Z</time>
      </trkpt>
      <trkpt lat="44.49219" lon="0.76973">
        <ele>97</ele>
        <time>2016-07-24T07:56:52Z</time>
      </trkpt>
      <trkpt lat="44.49238" lon="0.7698">
        <ele>97</ele>
        <time>2016-07-24T07:56:58Z</time>
      </trkpt>
      <trkpt lat="44.49241" lon="0.76981">
        <ele>97</ele>
        <time>2016-07-24T07:56:59Z</time>
      </trkpt>
      <trkpt lat="44.49258" lon="0.76981">
        <ele>97</ele>
        <time>2016-07-24T07:57:04Z</time>
      </trkpt>
      <trkpt lat="44.49275" lon="0.76982">
        <ele>97</ele>
        <time>2016-07-24T07:57:10Z</time>
      </trkpt>
      <trkpt lat="44.4929" lon="0.7698">
        <ele>97</ele>
        <time>2016-07-24T07:57:14Z</time>
      </trkpt>
      <trkpt lat="44.4932" lon="0.76976">
        <ele>97</ele>
        <time>2016-07-24T07:57:22Z</time>
      </trkpt>
      <trkpt lat="44.49327" lon="0.76977">
        <ele>97</ele>
        <time>2016-07-24T07:57:24Z</time>
      </trkpt>
      <trkpt lat="44.49343" lon="0.76982">
        <ele>97</ele>
        <time>2016-07-24T07:57:29Z</time>
      </trkpt>
      <trkpt lat="44.49362" lon="0.76988">
        <ele>97</ele>
        <time>2016-07-24T07:57:34Z</time>
      </trkpt>
      <trkpt lat="44.49381" lon="0.76991">
        <ele>97</ele>
        <time>2016-07-24T07:57:39Z</time>
      </trkpt>
      <trkpt lat="44.49406" lon="0.76997">
        <ele>98</ele>
        <time>2016-07-24T07:57:45Z</time>
      </trkpt>
      <trkpt lat="44.49422" lon="0.77001">
        <ele>98</ele>
        <time>2016-07-24T07:57:49Z</time>
      </trkpt>
      <trkpt lat="44.49446" lon="0.77006">
        <ele>98</ele>
        <time>2016-07-24T07:57:56Z</time>
      </trkpt>
      <trkpt lat="44.49453" lon="0.7701">
        <ele>99</ele>
        <time>2016-07-24T07:57:59Z</time>
      </trkpt>
      <trkpt lat="44.49462" lon="0.77016">
        <ele>99</ele>
        <time>2016-07-24T07:58:04Z</time>
      </trkpt>
      <trkpt lat="44.49457" lon="0.77014">
        <ele>99</ele>
        <time>2016-07-24T07:58:12Z</time>
      </trkpt>
      <trkpt lat="44.49453" lon="0.7701">
        <ele>98</ele>
        <time>2016-07-24T07:58:14Z</time>
      </trkpt>
      <trkpt lat="44.49446" lon="0.76989">
        <ele>98</ele>
        <time>2016-07-24T07:58:19Z</time>
      </trkpt>
      <trkpt lat="44.49447" lon="0.76956">
        <ele>97</ele>
        <time>2016-07-24T07:58:24Z</time>
      </trkpt>
      <trkpt lat="44.49448" lon="0.76928">
        <ele>96</ele>
        <time>2016-07-24T07:58:29Z</time>
      </trkpt>
      <trkpt lat="44.49449" lon="0.769">
        <ele>96</ele>
        <time>2016-07-24T07:58:34Z</time>
      </trkpt>
      <trkpt lat="44.49448" lon="0.76852">
        <ele>95</ele>
        <time>2016-07-24T07:58:43Z</time>
      </trkpt>
      <trkpt lat="44.49449" lon="0.76846">
        <ele>95</ele>
        <time>2016-07-24T07:58:44Z</time>
      </trkpt>
      <trkpt lat="44.49454" lon="0.76795">
        <ele>95</ele>
        <time>2016-07-24T07:58:53Z</time>
      </trkpt>
      <trkpt lat="44.49455" lon="0.76771">
        <ele>94</ele>
        <time>2016-07-24T07:58:57Z</time>
      </trkpt>
      <trkpt lat="44.49457" lon="0.76751">
        <ele>94</ele>
        <time>2016-07-24T07:59:00Z</time>
      </trkpt>
      <trkpt lat="44.49461" lon="0.76722">
        <ele>94</ele>
        <time>2016-07-24T07:59:04Z</time>
      </trkpt>
      <trkpt lat="44.49467" lon="0.76682">
        <ele>93</ele>
        <time>2016-07-24T07:59:09Z</time>
      </trkpt>
      <trkpt lat="44.49462" lon="0.7664">
        <ele>91</ele>
        <time>2016-07-24T07:59:14Z</time>
      </trkpt>
      <trkpt lat="44.49453" lon="0.76565">
        <ele>89</ele>
        <time>2016-07-24T07:59:23Z</time>
      </trkpt>
      <trkpt lat="44.49449" lon="0.76528">
        <ele>88</ele>
        <time>2016-07-24T07:59:27Z</time>
      </trkpt>
      <trkpt lat="44.49448" lon="0.76508">
        <ele>86</ele>
        <time>2016-07-24T07:59:29Z</time>
      </trkpt>
      <trkpt lat="44.49434" lon="0.76422">
        <ele>79</ele>
        <time>2016-07-24T07:59:38Z</time>
      </trkpt>
      <trkpt lat="44.49426" lon="0.76405">
        <ele>77</ele>
        <time>2016-07-24T07:59:40Z</time>
      </trkpt>
      <trkpt lat="44.49386" lon="0.76355">
        <ele>72</ele>
        <time>2016-07-24T07:59:47Z</time>
      </trkpt>
      <trkpt lat="44.49382" lon="0.76352">
        <ele>72</ele>
        <time>2016-07-24T07:59:49Z</time>
      </trkpt>
      <trkpt lat="44.49374" lon="0.76346">
        <ele>72</ele>
        <time>2016-07-24T07:59:54Z</time>
      </trkpt>
      <trkpt lat="44.49374" lon="0.76343">
        <ele>71</ele>
        <time>2016-07-24T08:00:00Z</time>
      </trkpt>
      <trkpt lat="44.49375" lon="0.76343">
        <ele>71</ele>
        <time>2016-07-24T08:00:04Z</time>
      </trkpt>
      <trkpt lat="44.49381" lon="0.76346">
        <ele>72</ele>
        <time>2016-07-24T08:00:08Z</time>
      </trkpt>
      <trkpt lat="44.49391" lon="0.76339">
        <ele>71</ele>
        <time>2016-07-24T08:00:13Z</time>
      </trkpt>
      <trkpt lat="44.49406" lon="0.76339">
        <ele>71</ele>
        <time>2016-07-24T08:00:17Z</time>
      </trkpt>
      <trkpt lat="44.49444" lon="0.76338">
        <ele>72</ele>
        <time>2016-07-24T08:00:25Z</time>
      </trkpt>
      <trkpt lat="44.49453" lon="0.7633">
        <ele>71</ele>
        <time>2016-07-24T08:00:28Z</time>
      </trkpt>
      <trkpt lat="44.49467" lon="0.76319">
        <ele>69</ele>
        <time>2016-07-24T08:00:35Z</time>
      </trkpt>
      <trkpt lat="44.49473" lon="0.76315">
        <ele>69</ele>
        <time>2016-07-24T08:00:37Z</time>
      </trkpt>
      <trkpt lat="44.49489" lon="0.76305">
        <ele>68</ele>
        <time>2016-07-24T08:00:42Z</time>
      </trkpt>
      <trkpt lat="44.49512" lon="0.76303">
        <ele>68</ele>
        <time>2016-07-24T08:00:47Z</time>
      </trkpt>
      <trkpt lat="44.49537" lon="0.76292">
        <ele>67</ele>
        <time>2016-07-24T08:00:52Z</time>
      </trkpt>
      <trkpt lat="44.49553" lon="0.76296">
        <ele>67</ele>
        <time>2016-07-24T08:00:57Z</time>
      </trkpt>
      <trkpt lat="44.49571" lon="0.76303">
        <ele>67</ele>
        <time>2016-07-24T08:01:02Z</time>
      </trkpt>
      <trkpt lat="44.49593" lon="0.76312">
        <ele>67</ele>
        <time>2016-07-24T08:01:08Z</time>
      </trkpt>
      <trkpt lat="44.49606" lon="0.76326">
        <ele>68</ele>
        <time>2016-07-24T08:01:13Z</time>
      </trkpt>
      <trkpt lat="44.49626" lon="0.76345">
        <ele>68</ele>
        <time>2016-07-24T08:01:17Z</time>
      </trkpt>
      <trkpt lat="44.49643" lon="0.76356">
        <ele>68</ele>
        <time>2016-07-24T08:01:22Z</time>
      </trkpt>
      <trkpt lat="44.49665" lon="0.76368">
        <ele>67</ele>
        <time>2016-07-24T08:01:28Z</time>
      </trkpt>
      <trkpt lat="44.4968" lon="0.76386">
        <ele>67</ele>
        <time>2016-07-24T08:01:32Z</time>
      </trkpt>
      <trkpt lat="44.49703" lon="0.76415">
        <ele>68</ele>
        <time>2016-07-24T08:01:40Z</time>
      </trkpt>
      <trkpt lat="44.4971" lon="0.76425">
        <ele>68</ele>
        <time>2016-07-24T08:01:42Z</time>
      </trkpt>
      <trkpt lat="44.49745" lon="0.76458">
        <ele>67</ele>
        <time>2016-07-24T08:01:49Z</time>
      </trkpt>
      <trkpt lat="44.49756" lon="0.76467">
        <ele>67</ele>
        <time>2016-07-24T08:01:52Z</time>
      </trkpt>
      <trkpt lat="44.4978" lon="0.76479">
        <ele>67</ele>
        <time>2016-07-24T08:01:57Z</time>
      </trkpt>
      <trkpt lat="44.49799" lon="0.76494">
        <ele>66</ele>
        <time>2016-07-24T08:02:02Z</time>
      </trkpt>
      <trkpt lat="44.49815" lon="0.76506">
        <ele>66</ele>
        <time>2016-07-24T08:02:08Z</time>
      </trkpt>
      <trkpt lat="44.49829" lon="0.76515">
        <ele>67</ele>
        <time>2016-07-24T08:02:12Z</time>
      </trkpt>
      <trkpt lat="44.49839" lon="0.76527">
        <ele>67</ele>
        <time>2016-07-24T08:02:17Z</time>
      </trkpt>
      <trkpt lat="44.49869" lon="0.76554">
        <ele>68</ele>
        <time>2016-07-24T08:02:25Z</time>
      </trkpt>
      <trkpt lat="44.49882" lon="0.76559">
        <ele>67</ele>
        <time>2016-07-24T08:02:28Z</time>
      </trkpt>
      <trkpt lat="44.49892" lon="0.76567">
        <ele>67</ele>
        <time>2016-07-24T08:02:32Z</time>
      </trkpt>
      <trkpt lat="44.49911" lon="0.76581">
        <ele>67</ele>
        <time>2016-07-24T08:02:37Z</time>
      </trkpt>
      <trkpt lat="44.49932" lon="0.76585">
        <ele>67</ele>
        <time>2016-07-24T08:02:42Z</time>
      </trkpt>
      <trkpt lat="44.49951" lon="0.7659">
        <ele>66</ele>
        <time>2016-07-24T08:02:47Z</time>
      </trkpt>
      <trkpt lat="44.49971" lon="0.76598">
        <ele>66</ele>
        <time>2016-07-24T08:02:53Z</time>
      </trkpt>
      <trkpt lat="44.49997" lon="0.76617">
        <ele>66</ele>
        <time>2016-07-24T08:03:01Z</time>
      </trkpt>
      <trkpt lat="44.50016" lon="0.76629">
        <ele>66</ele>
        <time>2016-07-24T08:03:06Z</time>
      </trkpt>
      <trkpt lat="44.50021" lon="0.76633">
        <ele>66</ele>
        <time>2016-07-24T08:03:07Z</time>
      </trkpt>
      <trkpt lat="44.50036" lon="0.76643">
        <ele>66</ele>
        <time>2016-07-24T08:03:12Z</time>
      </trkpt>
      <trkpt lat="44.50052" lon="0.76654">
        <ele>65</ele>
        <time>2016-07-24T08:03:17Z</time>
      </trkpt>
      <trkpt lat="44.5008" lon="0.76675">
        <ele>66</ele>
        <time>2016-07-24T08:03:25Z</time>
      </trkpt>
      <trkpt lat="44.50087" lon="0.76679">
        <ele>66</ele>
        <time>2016-07-24T08:03:27Z</time>
      </trkpt>
      <trkpt lat="44.50105" lon="0.76691">
        <ele>66</ele>
        <time>2016-07-24T08:03:32Z</time>
      </trkpt>
      <trkpt lat="44.50129" lon="0.76702">
        <ele>66</ele>
        <time>2016-07-24T08:03:37Z</time>
      </trkpt>
      <trkpt lat="44.50161" lon="0.76714">
        <ele>67</ele>
        <time>2016-07-24T08:03:45Z</time>
      </trkpt>
      <trkpt lat="44.50168" lon="0.76718">
        <ele>67</ele>
        <time>2016-07-24T08:03:47Z</time>
      </trkpt>
      <trkpt lat="44.50197" lon="0.76718">
        <ele>67</ele>
        <time>2016-07-24T08:03:54Z</time>
      </trkpt>
      <trkpt lat="44.50207" lon="0.76726">
        <ele>67</ele>
        <time>2016-07-24T08:03:57Z</time>
      </trkpt>
      <trkpt lat="44.50232" lon="0.76736">
        <ele>67</ele>
        <time>2016-07-24T08:04:04Z</time>
      </trkpt>
      <trkpt lat="44.50244" lon="0.7674">
        <ele>67</ele>
        <time>2016-07-24T08:04:07Z</time>
      </trkpt>
      <trkpt lat="44.50259" lon="0.76754">
        <ele>67</ele>
        <time>2016-07-24T08:04:12Z</time>
      </trkpt>
      <trkpt lat="44.5028" lon="0.76759">
        <ele>67</ele>
        <time>2016-07-24T08:04:17Z</time>
      </trkpt>
      <trkpt lat="44.50299" lon="0.76771">
        <ele>67</ele>
        <time>2016-07-24T08:04:22Z</time>
      </trkpt>
      <trkpt lat="44.50312" lon="0.7679">
        <ele>68</ele>
        <time>2016-07-24T08:04:27Z</time>
      </trkpt>
      <trkpt lat="44.50323" lon="0.76809">
        <ele>69</ele>
        <time>2016-07-24T08:04:32Z</time>
      </trkpt>
      <trkpt lat="44.50337" lon="0.76829">
        <ele>69</ele>
        <time>2016-07-24T08:04:37Z</time>
      </trkpt>
      <trkpt lat="44.50352" lon="0.76846">
        <ele>70</ele>
        <time>2016-07-24T08:04:46Z</time>
      </trkpt>
      <trkpt lat="44.50355" lon="0.76848">
        <ele>70</ele>
        <time>2016-07-24T08:04:48Z</time>
      </trkpt>
      <trkpt lat="44.50362" lon="0.76846">
        <ele>70</ele>
        <time>2016-07-24T08:04:52Z</time>
      </trkpt>
      <trkpt lat="44.50381" lon="0.7684">
        <ele>71</ele>
        <time>2016-07-24T08:05:01Z</time>
      </trkpt>
      <trkpt lat="44.50384" lon="0.76839">
        <ele>71</ele>
        <time>2016-07-24T08:05:02Z</time>
      </trkpt>
      <trkpt lat="44.50397" lon="0.76831">
        <ele>71</ele>
        <time>2016-07-24T08:05:07Z</time>
      </trkpt>
      <trkpt lat="44.50412" lon="0.76822">
        <ele>71</ele>
        <time>2016-07-24T08:05:12Z</time>
      </trkpt>
      <trkpt lat="44.50431" lon="0.76811">
        <ele>72</ele>
        <time>2016-07-24T08:05:19Z</time>
      </trkpt>
      <trkpt lat="44.50446" lon="0.76803">
        <ele>72</ele>
        <time>2016-07-24T08:05:24Z</time>
      </trkpt>
      <trkpt lat="44.50454" lon="0.76799">
        <ele>72</ele>
        <time>2016-07-24T08:05:27Z</time>
      </trkpt>
      <trkpt lat="44.5047" lon="0.76792">
        <ele>72</ele>
        <time>2016-07-24T08:05:32Z</time>
      </trkpt>
      <trkpt lat="44.50486" lon="0.76781">
        <ele>73</ele>
        <time>2016-07-24T08:05:37Z</time>
      </trkpt>
      <trkpt lat="44.50506" lon="0.76766">
        <ele>72</ele>
        <time>2016-07-24T08:05:42Z</time>
      </trkpt>
      <trkpt lat="44.50528" lon="0.76749">
        <ele>73</ele>
        <time>2016-07-24T08:05:47Z</time>
      </trkpt>
      <trkpt lat="44.50551" lon="0.76734">
        <ele>73</ele>
        <time>2016-07-24T08:05:52Z</time>
      </trkpt>
      <trkpt lat="44.50574" lon="0.76713">
        <ele>73</ele>
        <time>2016-07-24T08:05:57Z</time>
      </trkpt>
      <trkpt lat="44.50594" lon="0.76686">
        <ele>73</ele>
        <time>2016-07-24T08:06:02Z</time>
      </trkpt>
      <trkpt lat="44.50613" lon="0.76658">
        <ele>74</ele>
        <time>2016-07-24T08:06:07Z</time>
      </trkpt>
      <trkpt lat="44.50629" lon="0.76637">
        <ele>74</ele>
        <time>2016-07-24T08:06:12Z</time>
      </trkpt>
      <trkpt lat="44.50645" lon="0.76618">
        <ele>74</ele>
        <time>2016-07-24T08:06:17Z</time>
      </trkpt>
      <trkpt lat="44.50661" lon="0.76603">
        <ele>74</ele>
        <time>2016-07-24T08:06:22Z</time>
      </trkpt>
      <trkpt lat="44.50678" lon="0.76583">
        <ele>75</ele>
        <time>2016-07-24T08:06:28Z</time>
      </trkpt>
      <trkpt lat="44.50689" lon="0.76571">
        <ele>75</ele>
        <time>2016-07-24T08:06:32Z</time>
      </trkpt>
      <trkpt lat="44.507" lon="0.76557">
        <ele>75</ele>
        <time>2016-07-24T08:06:37Z</time>
      </trkpt>
      <trkpt lat="44.50713" lon="0.76541">
        <ele>75</ele>
        <time>2016-07-24T08:06:42Z</time>
      </trkpt>
      <trkpt lat="44.50727" lon="0.76525">
        <ele>74</ele>
        <time>2016-07-24T08:06:47Z</time>
      </trkpt>
      <trkpt lat="44.50741" lon="0.76508">
        <ele>74</ele>
        <time>2016-07-24T08:06:52Z</time>
      </trkpt>
      <trkpt lat="44.50756" lon="0.76491">
        <ele>74</ele>
        <time>2016-07-24T08:06:57Z</time>
      </trkpt>
      <trkpt lat="44.50772" lon="0.76471">
        <ele>74</ele>
        <time>2016-07-24T08:07:02Z</time>
      </trkpt>
      <trkpt lat="44.50789" lon="0.76448">
        <ele>74</ele>
        <time>2016-07-24T08:07:07Z</time>
      </trkpt>
      <trkpt lat="44.50803" lon="0.7642">
        <ele>74</ele>
        <time>2016-07-24T08:07:16Z</time>
      </trkpt>
      <trkpt lat="44.50806" lon="0.76417">
        <ele>74</ele>
        <time>2016-07-24T08:07:17Z</time>
      </trkpt>
      <trkpt lat="44.50821" lon="0.76421">
        <ele>74</ele>
        <time>2016-07-24T08:07:22Z</time>
      </trkpt>
      <trkpt lat="44.50839" lon="0.76434">
        <ele>75</ele>
        <time>2016-07-24T08:07:27Z</time>
      </trkpt>
      <trkpt lat="44.5086" lon="0.76443">
        <ele>75</ele>
        <time>2016-07-24T08:07:32Z</time>
      </trkpt>
      <trkpt lat="44.50885" lon="0.76447">
        <ele>75</ele>
        <time>2016-07-24T08:07:37Z</time>
      </trkpt>
      <trkpt lat="44.50907" lon="0.76453">
        <ele>75</ele>
        <time>2016-07-24T08:07:42Z</time>
      </trkpt>
      <trkpt lat="44.5093" lon="0.76458">
        <ele>75</ele>
        <time>2016-07-24T08:07:47Z</time>
      </trkpt>
      <trkpt lat="44.50953" lon="0.76462">
        <ele>74</ele>
        <time>2016-07-24T08:07:52Z</time>
      </trkpt>
      <trkpt lat="44.50973" lon="0.76466">
        <ele>73</ele>
        <time>2016-07-24T08:07:57Z</time>
      </trkpt>
      <trkpt lat="44.50994" lon="0.7647">
        <ele>72</ele>
        <time>2016-07-24T08:08:02Z</time>
      </trkpt>
      <trkpt lat="44.51013" lon="0.76477">
        <ele>72</ele>
        <time>2016-07-24T08:08:07Z</time>
      </trkpt>
      <trkpt lat="44.51033" lon="0.76485">
        <ele>72</ele>
        <time>2016-07-24T08:08:12Z</time>
      </trkpt>
      <trkpt lat="44.51064" lon="0.76491">
        <ele>73</ele>
        <time>2016-07-24T08:08:19Z</time>
      </trkpt>
      <trkpt lat="44.51076" lon="0.76494">
        <ele>73</ele>
        <time>2016-07-24T08:08:22Z</time>
      </trkpt>
      <trkpt lat="44.51105" lon="0.76517">
        <ele>73</ele>
        <time>2016-07-24T08:08:31Z</time>
      </trkpt>
      <trkpt lat="44.5112" lon="0.76536">
        <ele>73</ele>
        <time>2016-07-24T08:08:36Z</time>
      </trkpt>
      <trkpt lat="44.51123" lon="0.76539">
        <ele>74</ele>
        <time>2016-07-24T08:08:37Z</time>
      </trkpt>
      <trkpt lat="44.51137" lon="0.76552">
        <ele>74</ele>
        <time>2016-07-24T08:08:42Z</time>
      </trkpt>
      <trkpt lat="44.51149" lon="0.76568">
        <ele>74</ele>
        <time>2016-07-24T08:08:47Z</time>
      </trkpt>
      <trkpt lat="44.51169" lon="0.76594">
        <ele>73</ele>
        <time>2016-07-24T08:08:55Z</time>
      </trkpt>
      <trkpt lat="44.51173" lon="0.76599">
        <ele>73</ele>
        <time>2016-07-24T08:08:57Z</time>
      </trkpt>
      <trkpt lat="44.51184" lon="0.76614">
        <ele>74</ele>
        <time>2016-07-24T08:09:02Z</time>
      </trkpt>
      <trkpt lat="44.51198" lon="0.76632">
        <ele>74</ele>
        <time>2016-07-24T08:09:07Z</time>
      </trkpt>
      <trkpt lat="44.51217" lon="0.76643">
        <ele>75</ele>
        <time>2016-07-24T08:09:13Z</time>
      </trkpt>
      <trkpt lat="44.51229" lon="0.76648">
        <ele>76</ele>
        <time>2016-07-24T08:09:17Z</time>
      </trkpt>
      <trkpt lat="44.51246" lon="0.76654">
        <ele>76</ele>
        <time>2016-07-24T08:09:22Z</time>
      </trkpt>
      <trkpt lat="44.51268" lon="0.76664">
        <ele>77</ele>
        <time>2016-07-24T08:09:27Z</time>
      </trkpt>
      <trkpt lat="44.51288" lon="0.76672">
        <ele>78</ele>
        <time>2016-07-24T08:09:32Z</time>
      </trkpt>
      <trkpt lat="44.51313" lon="0.76685">
        <ele>78</ele>
        <time>2016-07-24T08:09:39Z</time>
      </trkpt>
      <trkpt lat="44.51327" lon="0.76689">
        <ele>78</ele>
        <time>2016-07-24T08:09:43Z</time>
      </trkpt>
      <trkpt lat="44.51348" lon="0.76696">
        <ele>77</ele>
        <time>2016-07-24T08:09:50Z</time>
      </trkpt>
      <trkpt lat="44.51354" lon="0.76698">
        <ele>77</ele>
        <time>2016-07-24T08:09:52Z</time>
      </trkpt>
      <trkpt lat="44.51371" lon="0.76704">
        <ele>77</ele>
        <time>2016-07-24T08:09:57Z</time>
      </trkpt>
      <trkpt lat="44.51389" lon="0.7671">
        <ele>77</ele>
        <time>2016-07-24T08:10:02Z</time>
      </trkpt>
      <trkpt lat="44.51408" lon="0.76717">
        <ele>76</ele>
        <time>2016-07-24T08:10:07Z</time>
      </trkpt>
      <trkpt lat="44.51427" lon="0.76726">
        <ele>76</ele>
        <time>2016-07-24T08:10:12Z</time>
      </trkpt>
      <trkpt lat="44.51445" lon="0.76735">
        <ele>76</ele>
        <time>2016-07-24T08:10:17Z</time>
      </trkpt>
      <trkpt lat="44.51454" lon="0.76738">
        <ele>76</ele>
        <time>2016-07-24T08:10:22Z</time>
      </trkpt>
      <trkpt lat="44.5146" lon="0.76744">
        <ele>76</ele>
        <time>2016-07-24T08:10:27Z</time>
      </trkpt>
      <trkpt lat="44.51463" lon="0.76752">
        <ele>76</ele>
        <time>2016-07-24T08:10:32Z</time>
      </trkpt>
      <trkpt lat="44.51464" lon="0.76757">
        <ele>76</ele>
        <time>2016-07-24T08:10:37Z</time>
      </trkpt>
      <trkpt lat="44.51464" lon="0.76759">
        <ele>76</ele>
        <time>2016-07-24T08:10:45Z</time>
      </trkpt>
      <trkpt lat="44.51464" lon="0.76759">
        <ele>76</ele>
        <time>2016-07-24T08:10:46Z</time>
      </trkpt>
      <trkpt lat="44.51464" lon="0.7676">
        <ele>76</ele>
        <time>2016-07-24T08:10:49Z</time>
      </trkpt>
      <trkpt lat="44.51464" lon="0.7676">
        <ele>76</ele>
        <time>2016-07-24T08:10:52Z</time>
      </trkpt>
      <trkpt lat="44.51464" lon="0.7676">
        <ele>76</ele>
        <time>2016-07-24T08:10:55Z</time>
      </trkpt>
      <trkpt lat="44.51464" lon="0.7676">
        <ele>76</ele>
        <time>2016-07-24T08:10:58Z</time>
      </trkpt>
      <trkpt lat="44.51464" lon="0.7676">
        <ele>76</ele>
        <time>2016-07-24T08:11:01Z</time>
      </trkpt>
      <trkpt lat="44.51464" lon="0.7676">
        <ele>76</ele>
        <time>2016-07-24T08:11:04Z</time>
      </trkpt>
      <trkpt lat="44.51464" lon="0.7676">
        <ele>76</ele>
        <time>2016-07-24T08:11:07Z</time>
      </trkpt>
      <trkpt lat="44.51464" lon="0.7676">
        <ele>76</ele>
        <time>2016-07-24T08:11:10Z</time>
      </trkpt>
      <trkpt lat="44.51464" lon="0.7676">
        <ele>76</ele>
        <time>2016-07-24T08:11:13Z</time>
      </trkpt>
      <trkpt lat="44.51464" lon="0.7676">
        <ele>76</ele>
        <time>2016-07-24T08:11:18Z</time>
      </trkpt>
      <trkpt lat="44.51464" lon="0.7676">
        <ele>76</ele>
        <time>2016-07-24T08:11:19Z</time>
      </trkpt>
      <trkpt lat="44.51464" lon="0.7676">
        <ele>76</ele>
        <time>2016-07-24T08:11:22Z</time>
      </trkpt>
      <trkpt lat="44.51464" lon="0.7676">
        <ele>76</ele>
        <time>2016-07-24T08:11:25Z</time>
      </trkpt>
      <trkpt lat="44.51464" lon="0.7676">
        <ele>76</ele>
        <time>2016-07-24T08:11:28Z</time>
      </trkpt>
      <trkpt lat="44.51464" lon="0.7676">
        <ele>76</ele>
        <time>2016-07-24T08:11:31Z</time>
      </trkpt>
      <trkpt lat="44.51464" lon="0.7676">
        <ele>76</ele>
        <time>2016-07-24T08:11:34Z</time>
      </trkpt>
      <trkpt lat="44.51464" lon="0.7676">
        <ele>76</ele>
        <time>2016-07-24T08:11:37Z</time>
      </trkpt>
      <trkpt lat="44.51464" lon="0.7676">
        <ele>76</ele>
        <time>2016-07-24T08:11:40Z</time>
      </trkpt>
      <trkpt lat="44.51464" lon="0.7676">
        <ele>76</ele>
        <time>2016-07-24T08:11:43Z</time>
      </trkpt>
      <trkpt lat="44.51464" lon="0.7676">
        <ele>76</ele>
        <time>2016-07-24T08:11:46Z</time>
      </trkpt>
      <trkpt lat="44.51464" lon="0.7676">
        <ele>76</ele>
        <time>2016-07-24T08:11:51Z</time>
      </trkpt>
      <trkpt lat="44.51464" lon="0.7676">
        <ele>76</ele>
        <time>2016-07-24T08:11:52Z</time>
      </trkpt>
      <trkpt lat="44.51464" lon="0.7676">
        <ele>76</ele>
        <time>2016-07-24T08:11:56Z</time>
      </trkpt>
      <trkpt lat="44.51464" lon="0.7676">
        <ele>76</ele>
        <time>2016-07-24T08:11:58Z</time>
      </trkpt>
      <trkpt lat="44.51464" lon="0.7676">
        <ele>76</ele>
        <time>2016-07-24T08:12:01Z</time>
      </trkpt>
      <trkpt lat="44.51464" lon="0.76761">
        <ele>76</ele>
        <time>2016-07-24T08:12:04Z</time>
      </trkpt>
      <trkpt lat="44.51465" lon="0.7676">
        <ele>76</ele>
        <time>2016-07-24T08:12:07Z</time>
      </trkpt>
      <trkpt lat="44.51465" lon="0.7676">
        <ele>76</ele>
        <time>2016-07-24T08:12:10Z</time>
      </trkpt>
      <trkpt lat="44.51465" lon="0.7676">
        <ele>76</ele>
        <time>2016-07-24T08:12:13Z</time>
      </trkpt>
      <trkpt lat="44.51465" lon="0.7676">
        <ele>76</ele>
        <time>2016-07-24T08:12:16Z</time>
      </trkpt>
      <trkpt lat="44.51465" lon="0.7676">
        <ele>76</ele>
        <time>2016-07-24T08:12:19Z</time>
      </trkpt>
      <trkpt lat="44.51465" lon="0.7676">
        <ele>76</ele>
        <time>2016-07-24T08:12:22Z</time>
      </trkpt>
      <trkpt lat="44.51465" lon="0.7676">
        <ele>76</ele>
        <time>2016-07-24T08:12:25Z</time>
      </trkpt>
      <trkpt lat="44.51465" lon="0.7676">
        <ele>76</ele>
        <time>2016-07-24T08:12:28Z</time>
      </trkpt>
      <trkpt lat="44.51466" lon="0.76761">
        <ele>76</ele>
        <time>2016-07-24T08:12:31Z</time>
      </trkpt>
      <trkpt lat="44.51465" lon="0.76775">
        <ele>77</ele>
        <time>2016-07-24T08:12:38Z</time>
      </trkpt>
      <trkpt lat="44.51462" lon="0.76784">
        <ele>77</ele>
        <time>2016-07-24T08:12:41Z</time>
      </trkpt>
      <trkpt lat="44.51458" lon="0.76794">
        <ele>77</ele>
        <time>2016-07-24T08:12:46Z</time>
      </trkpt>
      <trkpt lat="44.51454" lon="0.76805">
        <ele>77</ele>
        <time>2016-07-24T08:12:51Z</time>
      </trkpt>
      <trkpt lat="44.51451" lon="0.76818">
        <ele>78</ele>
        <time>2016-07-24T08:12:56Z</time>
      </trkpt>
      <trkpt lat="44.51446" lon="0.76827">
        <ele>79</ele>
        <time>2016-07-24T08:13:01Z</time>
      </trkpt>
      <trkpt lat="44.51445" lon="0.76837">
        <ele>80</ele>
        <time>2016-07-24T08:13:06Z</time>
      </trkpt>
      <trkpt lat="44.51437" lon="0.76854">
        <ele>83</ele>
        <time>2016-07-24T08:13:15Z</time>
      </trkpt>
      <trkpt lat="44.51439" lon="0.76857">
        <ele>83</ele>
        <time>2016-07-24T08:13:17Z</time>
      </trkpt>
      <trkpt lat="44.51434" lon="0.76863">
        <ele>84</ele>
        <time>2016-07-24T08:13:21Z</time>
      </trkpt>
      <trkpt lat="44.51425" lon="0.76885">
        <ele>86</ele>
        <time>2016-07-24T08:13:29Z</time>
      </trkpt>
      <trkpt lat="44.51422" lon="0.7689">
        <ele>86</ele>
        <time>2016-07-24T08:13:31Z</time>
      </trkpt>
      <trkpt lat="44.51417" lon="0.76904">
        <ele>87</ele>
        <time>2016-07-24T08:13:36Z</time>
      </trkpt>
      <trkpt lat="44.51412" lon="0.76917">
        <ele>88</ele>
        <time>2016-07-24T08:13:41Z</time>
      </trkpt>
      <trkpt lat="44.51404" lon="0.76932">
        <ele>88</ele>
        <time>2016-07-24T08:13:46Z</time>
      </trkpt>
      <trkpt lat="44.51396" lon="0.7695">
        <ele>89</ele>
        <time>2016-07-24T08:13:51Z</time>
      </trkpt>
      <trkpt lat="44.5139" lon="0.76968">
        <ele>89</ele>
        <time>2016-07-24T08:13:56Z</time>
      </trkpt>
      <trkpt lat="44.51384" lon="0.76983">
        <ele>89</ele>
        <time>2016-07-24T08:14:01Z</time>
      </trkpt>
      <trkpt lat="44.5138" lon="0.77007">
        <ele>89</ele>
        <time>2016-07-24T08:14:07Z</time>
      </trkpt>
      <trkpt lat="44.51381" lon="0.77041">
        <ele>90</ele>
        <time>2016-07-24T08:14:14Z</time>
      </trkpt>
      <trkpt lat="44.51382" lon="0.77051">
        <ele>91</ele>
        <time>2016-07-24T08:14:16Z</time>
      </trkpt>
      <trkpt lat="44.51375" lon="0.77079">
        <ele>91</ele>
        <time>2016-07-24T08:14:21Z</time>
      </trkpt>
      <trkpt lat="44.51371" lon="0.77107">
        <ele>91</ele>
        <time>2016-07-24T08:14:26Z</time>
      </trkpt>
      <trkpt lat="44.5137" lon="0.77142">
        <ele>91</ele>
        <time>2016-07-24T08:14:32Z</time>
      </trkpt>
      <trkpt lat="44.51365" lon="0.77179">
        <ele>91</ele>
        <time>2016-07-24T08:14:40Z</time>
      </trkpt>
      <trkpt lat="44.51366" lon="0.77185">
        <ele>91</ele>
        <time>2016-07-24T08:14:41Z</time>
      </trkpt>
      <trkpt lat="44.51356" lon="0.77224">
        <ele>93</ele>
        <time>2016-07-24T08:14:49Z</time>
      </trkpt>
      <trkpt lat="44.51352" lon="0.77252">
        <ele>96</ele>
        <time>2016-07-24T08:14:55Z</time>
      </trkpt>
      <trkpt lat="44.5135" lon="0.77261">
        <ele>96</ele>
        <time>2016-07-24T08:14:57Z</time>
      </trkpt>
      <trkpt lat="44.51345" lon="0.77277">
        <ele>97</ele>
        <time>2016-07-24T08:15:01Z</time>
      </trkpt>
      <trkpt lat="44.5134" lon="0.77305">
        <ele>98</ele>
        <time>2016-07-24T08:15:06Z</time>
      </trkpt>
      <trkpt lat="44.51336" lon="0.77333">
        <ele>99</ele>
        <time>2016-07-24T08:15:11Z</time>
      </trkpt>
      <trkpt lat="44.51331" lon="0.77358">
        <ele>100</ele>
        <time>2016-07-24T08:15:16Z</time>
      </trkpt>
      <trkpt lat="44.51319" lon="0.77378">
        <ele>100</ele>
        <time>2016-07-24T08:15:23Z</time>
      </trkpt>
      <trkpt lat="44.51318" lon="0.77392">
        <ele>100</ele>
        <time>2016-07-24T08:15:26Z</time>
      </trkpt>
      <trkpt lat="44.51316" lon="0.77407">
        <ele>100</ele>
        <time>2016-07-24T08:15:31Z</time>
      </trkpt>
      <trkpt lat="44.51315" lon="0.77421">
        <ele>100</ele>
        <time>2016-07-24T08:15:36Z</time>
      </trkpt>
      <trkpt lat="44.51313" lon="0.77433">
        <ele>100</ele>
        <time>2016-07-24T08:15:41Z</time>
      </trkpt>
      <trkpt lat="44.51304" lon="0.77446">
        <ele>100</ele>
        <time>2016-07-24T08:15:50Z</time>
      </trkpt>
      <trkpt lat="44.51302" lon="0.77447">
        <ele>100</ele>
        <time>2016-07-24T08:15:51Z</time>
      </trkpt>
      <trkpt lat="44.51279" lon="0.77447">
        <ele>100</ele>
        <time>2016-07-24T08:16:00Z</time>
      </trkpt>
      <trkpt lat="44.51274" lon="0.77453">
        <ele>100</ele>
        <time>2016-07-24T08:16:03Z</time>
      </trkpt>
      <trkpt lat="44.51276" lon="0.77464">
        <ele>100</ele>
        <time>2016-07-24T08:16:06Z</time>
      </trkpt>
      <trkpt lat="44.51284" lon="0.77482">
        <ele>100</ele>
        <time>2016-07-24T08:16:12Z</time>
      </trkpt>
      <trkpt lat="44.51296" lon="0.77513">
        <ele>101</ele>
        <time>2016-07-24T08:16:20Z</time>
      </trkpt>
      <trkpt lat="44.513" lon="0.77523">
        <ele>101</ele>
        <time>2016-07-24T08:16:22Z</time>
      </trkpt>
      <trkpt lat="44.51307" lon="0.77545">
        <ele>101</ele>
        <time>2016-07-24T08:16:26Z</time>
      </trkpt>
      <trkpt lat="44.51322" lon="0.77582">
        <ele>103</ele>
        <time>2016-07-24T08:16:35Z</time>
      </trkpt>
      <trkpt lat="44.5133" lon="0.77597">
        <ele>103</ele>
        <time>2016-07-24T08:16:39Z</time>
      </trkpt>
      <trkpt lat="44.51332" lon="0.77605">
        <ele>103</ele>
        <time>2016-07-24T08:16:41Z</time>
      </trkpt>
      <trkpt lat="44.51341" lon="0.77621">
        <ele>104</ele>
        <time>2016-07-24T08:16:46Z</time>
      </trkpt>
      <trkpt lat="44.51349" lon="0.77635">
        <ele>104</ele>
        <time>2016-07-24T08:16:51Z</time>
      </trkpt>
      <trkpt lat="44.51356" lon="0.77646">
        <ele>105</ele>
        <time>2016-07-24T08:16:56Z</time>
      </trkpt>
      <trkpt lat="44.51364" lon="0.77676">
        <ele>105</ele>
        <time>2016-07-24T08:17:04Z</time>
      </trkpt>
      <trkpt lat="44.51366" lon="0.77683">
        <ele>106</ele>
        <time>2016-07-24T08:17:06Z</time>
      </trkpt>
      <trkpt lat="44.51373" lon="0.77713">
        <ele>106</ele>
        <time>2016-07-24T08:17:13Z</time>
      </trkpt>
      <trkpt lat="44.51385" lon="0.7774">
        <ele>106</ele>
        <time>2016-07-24T08:17:20Z</time>
      </trkpt>
      <trkpt lat="44.51391" lon="0.77761">
        <ele>106</ele>
        <time>2016-07-24T08:17:25Z</time>
      </trkpt>
      <trkpt lat="44.51394" lon="0.77778">
        <ele>106</ele>
        <time>2016-07-24T08:17:29Z</time>
      </trkpt>
      <trkpt lat="44.51396" lon="0.77797">
        <ele>106</ele>
        <time>2016-07-24T08:17:33Z</time>
      </trkpt>
      <trkpt lat="44.51395" lon="0.77807">
        <ele>106</ele>
        <time>2016-07-24T08:17:36Z</time>
      </trkpt>
      <trkpt lat="44.51398" lon="0.77809">
        <ele>106</ele>
        <time>2016-07-24T08:17:41Z</time>
      </trkpt>
      <trkpt lat="44.51409" lon="0.77805">
        <ele>105</ele>
        <time>2016-07-24T08:17:46Z</time>
      </trkpt>
      <trkpt lat="44.51422" lon="0.77801">
        <ele>105</ele>
        <time>2016-07-24T08:17:51Z</time>
      </trkpt>
      <trkpt lat="44.51437" lon="0.77791">
        <ele>104</ele>
        <time>2016-07-24T08:17:57Z</time>
      </trkpt>
      <trkpt lat="44.51458" lon="0.7778">
        <ele>104</ele>
        <time>2016-07-24T08:18:03Z</time>
      </trkpt>
      <trkpt lat="44.51471" lon="0.77774">
        <ele>103</ele>
        <time>2016-07-24T08:18:07Z</time>
      </trkpt>
      <trkpt lat="44.51485" lon="0.77767">
        <ele>103</ele>
        <time>2016-07-24T08:18:11Z</time>
      </trkpt>
      <trkpt lat="44.51507" lon="0.7776">
        <ele>102</ele>
        <time>2016-07-24T08:18:16Z</time>
      </trkpt>
      <trkpt lat="44.51531" lon="0.77754">
        <ele>101</ele>
        <time>2016-07-24T08:18:21Z</time>
      </trkpt>
      <trkpt lat="44.51561" lon="0.77745">
        <ele>100</ele>
        <time>2016-07-24T08:18:27Z</time>
      </trkpt>
      <trkpt lat="44.51581" lon="0.77737">
        <ele>100</ele>
        <time>2016-07-24T08:18:31Z</time>
      </trkpt>
      <trkpt lat="44.51602" lon="0.77728">
        <ele>99</ele>
        <time>2016-07-24T08:18:36Z</time>
      </trkpt>
      <trkpt lat="44.51627" lon="0.77717">
        <ele>99</ele>
        <time>2016-07-24T08:18:41Z</time>
      </trkpt>
      <trkpt lat="44.51647" lon="0.77707">
        <ele>99</ele>
        <time>2016-07-24T08:18:46Z</time>
      </trkpt>
      <trkpt lat="44.51667" lon="0.77694">
        <ele>99</ele>
        <time>2016-07-24T08:18:51Z</time>
      </trkpt>
      <trkpt lat="44.51696" lon="0.77663">
        <ele>97</ele>
        <time>2016-07-24T08:18:59Z</time>
      </trkpt>
      <trkpt lat="44.51702" lon="0.77657">
        <ele>97</ele>
        <time>2016-07-24T08:19:01Z</time>
      </trkpt>
      <trkpt lat="44.51725" lon="0.77632">
        <ele>95</ele>
        <time>2016-07-24T08:19:07Z</time>
      </trkpt>
      <trkpt lat="44.51737" lon="0.77615">
        <ele>94</ele>
        <time>2016-07-24T08:19:11Z</time>
      </trkpt>
      <trkpt lat="44.51757" lon="0.77587">
        <ele>92</ele>
        <time>2016-07-24T08:19:17Z</time>
      </trkpt>
      <trkpt lat="44.51784" lon="0.77559">
        <ele>91</ele>
        <time>2016-07-24T08:19:24Z</time>
      </trkpt>
      <trkpt lat="44.51792" lon="0.7755">
        <ele>91</ele>
        <time>2016-07-24T08:19:26Z</time>
      </trkpt>
      <trkpt lat="44.51813" lon="0.77507">
        <ele>90</ele>
        <time>2016-07-24T08:19:34Z</time>
      </trkpt>
      <trkpt lat="44.51821" lon="0.7749">
        <ele>90</ele>
        <time>2016-07-24T08:19:37Z</time>
      </trkpt>
      <trkpt lat="44.5184" lon="0.77453">
        <ele>90</ele>
        <time>2016-07-24T08:19:43Z</time>
      </trkpt>
      <trkpt lat="44.51852" lon="0.77432">
        <ele>90</ele>
        <time>2016-07-24T08:19:47Z</time>
      </trkpt>
      <trkpt lat="44.51856" lon="0.77418">
        <ele>89</ele>
        <time>2016-07-24T08:19:53Z</time>
      </trkpt>
      <trkpt lat="44.51856" lon="0.77409">
        <ele>89</ele>
        <time>2016-07-24T08:19:56Z</time>
      </trkpt>
      <trkpt lat="44.51852" lon="0.77405">
        <ele>89</ele>
        <time>2016-07-24T08:20:01Z</time>
      </trkpt>
      <trkpt lat="44.51861" lon="0.7742">
        <ele>89</ele>
        <time>2016-07-24T08:20:06Z</time>
      </trkpt>
      <trkpt lat="44.51872" lon="0.77438">
        <ele>90</ele>
        <time>2016-07-24T08:20:11Z</time>
      </trkpt>
      <trkpt lat="44.51884" lon="0.77477">
        <ele>89</ele>
        <time>2016-07-24T08:20:20Z</time>
      </trkpt>
      <trkpt lat="44.51885" lon="0.77481">
        <ele>89</ele>
        <time>2016-07-24T08:20:21Z</time>
      </trkpt>
      <trkpt lat="44.51893" lon="0.77505">
        <ele>90</ele>
        <time>2016-07-24T08:20:26Z</time>
      </trkpt>
      <trkpt lat="44.51898" lon="0.77529">
        <ele>90</ele>
        <time>2016-07-24T08:20:31Z</time>
      </trkpt>
      <trkpt lat="44.51901" lon="0.77552">
        <ele>90</ele>
        <time>2016-07-24T08:20:36Z</time>
      </trkpt>
      <trkpt lat="44.51907" lon="0.7758">
        <ele>90</ele>
        <time>2016-07-24T08:20:41Z</time>
      </trkpt>
      <trkpt lat="44.51908" lon="0.77605">
        <ele>90</ele>
        <time>2016-07-24T08:20:46Z</time>
      </trkpt>
      <trkpt lat="44.51924" lon="0.77614">
        <ele>90</ele>
        <time>2016-07-24T08:20:51Z</time>
      </trkpt>
      <trkpt lat="44.51945" lon="0.7762">
        <ele>90</ele>
        <time>2016-07-24T08:20:56Z</time>
      </trkpt>
      <trkpt lat="44.51976" lon="0.77631">
        <ele>90</ele>
        <time>2016-07-24T08:21:05Z</time>
      </trkpt>
      <trkpt lat="44.51976" lon="0.77634">
        <ele>90</ele>
        <time>2016-07-24T08:21:06Z</time>
      </trkpt>
      <trkpt lat="44.51982" lon="0.77655">
        <ele>91</ele>
        <time>2016-07-24T08:21:12Z</time>
      </trkpt>
      <trkpt lat="44.51982" lon="0.77667">
        <ele>91</ele>
        <time>2016-07-24T08:21:16Z</time>
      </trkpt>
      <trkpt lat="44.51988" lon="0.77679">
        <ele>91</ele>
        <time>2016-07-24T08:21:21Z</time>
      </trkpt>
      <trkpt lat="44.51999" lon="0.77685">
        <ele>92</ele>
        <time>2016-07-24T08:21:26Z</time>
      </trkpt>
      <trkpt lat="44.52017" lon="0.77685">
        <ele>92</ele>
        <time>2016-07-24T08:21:31Z</time>
      </trkpt>
      <trkpt lat="44.52034" lon="0.77683">
        <ele>93</ele>
        <time>2016-07-24T08:21:36Z</time>
      </trkpt>
      <trkpt lat="44.52051" lon="0.77684">
        <ele>94</ele>
        <time>2016-07-24T08:21:41Z</time>
      </trkpt>
      <trkpt lat="44.52071" lon="0.77685">
        <ele>95</ele>
        <time>2016-07-24T08:21:48Z</time>
      </trkpt>
      <trkpt lat="44.52078" lon="0.77686">
        <ele>95</ele>
        <time>2016-07-24T08:21:51Z</time>
      </trkpt>
      <trkpt lat="44.52088" lon="0.77673">
        <ele>95</ele>
        <time>2016-07-24T08:21:57Z</time>
      </trkpt>
      <trkpt lat="44.52089" lon="0.77651">
        <ele>95</ele>
        <time>2016-07-24T08:22:01Z</time>
      </trkpt>
      <trkpt lat="44.52088" lon="0.77628">
        <ele>94</ele>
        <time>2016-07-24T08:22:06Z</time>
      </trkpt>
      <trkpt lat="44.52086" lon="0.77599">
        <ele>93</ele>
        <time>2016-07-24T08:22:12Z</time>
      </trkpt>
      <trkpt lat="44.5209" lon="0.77585">
        <ele>93</ele>
        <time>2016-07-24T08:22:16Z</time>
      </trkpt>
      <trkpt lat="44.52109" lon="0.77582">
        <ele>94</ele>
        <time>2016-07-24T08:22:22Z</time>
      </trkpt>
      <trkpt lat="44.52133" lon="0.77584">
        <ele>95</ele>
        <time>2016-07-24T08:22:28Z</time>
      </trkpt>
      <trkpt lat="44.52144" lon="0.77586">
        <ele>95</ele>
        <time>2016-07-24T08:22:31Z</time>
      </trkpt>
      <trkpt lat="44.52166" lon="0.77591">
        <ele>97</ele>
        <time>2016-07-24T08:22:36Z</time>
      </trkpt>
      <trkpt lat="44.52202" lon="0.77592">
        <ele>99</ele>
        <time>2016-07-24T08:22:45Z</time>
      </trkpt>
      <trkpt lat="44.52206" lon="0.77592">
        <ele>99</ele>
        <time>2016-07-24T08:22:46Z</time>
      </trkpt>
      <trkpt lat="44.5222" lon="0.77585">
        <ele>100</ele>
        <time>2016-07-24T08:22:51Z</time>
      </trkpt>
      <trkpt lat="44.52232" lon="0.77583">
        <ele>100</ele>
        <time>2016-07-24T08:22:56Z</time>
      </trkpt>
      <trkpt lat="44.52243" lon="0.77584">
        <ele>101</ele>
        <time>2016-07-24T08:23:01Z</time>
      </trkpt>
      <trkpt lat="44.52259" lon="0.77581">
        <ele>101</ele>
        <time>2016-07-24T08:23:08Z</time>
      </trkpt>
      <trkpt lat="44.52264" lon="0.77577">
        <ele>101</ele>
        <time>2016-07-24T08:23:11Z</time>
      </trkpt>
      <trkpt lat="44.52277" lon="0.7758">
        <ele>101</ele>
        <time>2016-07-24T08:23:16Z</time>
      </trkpt>
      <trkpt lat="44.52295" lon="0.77579">
        <ele>101</ele>
        <time>2016-07-24T08:23:23Z</time>
      </trkpt>
      <trkpt lat="44.52309" lon="0.77581">
        <ele>101</ele>
        <time>2016-07-24T08:23:28Z</time>
      </trkpt>
      <trkpt lat="44.5232" lon="0.77582">
        <ele>101</ele>
        <time>2016-07-24T08:23:31Z</time>
      </trkpt>
      <trkpt lat="44.52339" lon="0.77582">
        <ele>101</ele>
        <time>2016-07-24T08:23:36Z</time>
      </trkpt>
      <trkpt lat="44.52369" lon="0.77586">
        <ele>100</ele>
        <time>2016-07-24T08:23:41Z</time>
      </trkpt>
      <trkpt lat="44.52403" lon="0.77585">
        <ele>100</ele>
        <time>2016-07-24T08:23:46Z</time>
      </trkpt>
      <trkpt lat="44.52433" lon="0.77583">
        <ele>100</ele>
        <time>2016-07-24T08:23:51Z</time>
      </trkpt>
      <trkpt lat="44.52456" lon="0.77578">
        <ele>99</ele>
        <time>2016-07-24T08:23:56Z</time>
      </trkpt>
      <trkpt lat="44.52498" lon="0.77574">
        <ele>100</ele>
        <time>2016-07-24T08:24:04Z</time>
      </trkpt>
      <trkpt lat="44.52508" lon="0.77574">
        <ele>100</ele>
        <time>2016-07-24T08:24:06Z</time>
      </trkpt>
      <trkpt lat="44.52532" lon="0.77569">
        <ele>101</ele>
        <time>2016-07-24T08:24:11Z</time>
      </trkpt>
      <trkpt lat="44.52555" lon="0.77567">
        <ele>102</ele>
        <time>2016-07-24T08:24:16Z</time>
      </trkpt>
      <trkpt lat="44.52576" lon="0.77564">
        <ele>104</ele>
        <time>2016-07-24T08:24:21Z</time>
      </trkpt>
      <trkpt lat="44.52598" lon="0.77567">
        <ele>105</ele>
        <time>2016-07-24T08:24:26Z</time>
      </trkpt>
      <trkpt lat="44.52627" lon="0.77567">
        <ele>107</ele>
        <time>2016-07-24T08:24:33Z</time>
      </trkpt>
      <trkpt lat="44.52637" lon="0.77562">
        <ele>108</ele>
        <time>2016-07-24T08:24:36Z</time>
      </trkpt>
      <trkpt lat="44.52653" lon="0.77558">
        <ele>109</ele>
        <time>2016-07-24T08:24:41Z</time>
      </trkpt>
      <trkpt lat="44.5267" lon="0.77551">
        <ele>110</ele>
        <time>2016-07-24T08:24:46Z</time>
      </trkpt>
      <trkpt lat="44.52691" lon="0.77536">
        <ele>111</ele>
        <time>2016-07-24T08:24:53Z</time>
      </trkpt>
      <trkpt lat="44.527" lon="0.77528">
        <ele>111</ele>
        <time>2016-07-24T08:24:56Z</time>
      </trkpt>
      <trkpt lat="44.52714" lon="0.77516">
        <ele>111</ele>
        <time>2016-07-24T08:25:01Z</time>
      </trkpt>
      <trkpt lat="44.52728" lon="0.77499">
        <ele>112</ele>
        <time>2016-07-24T08:25:09Z</time>
      </trkpt>
      <trkpt lat="44.52732" lon="0.77495">
        <ele>112</ele>
        <time>2016-07-24T08:25:11Z</time>
      </trkpt>
      <trkpt lat="44.52752" lon="0.77479">
        <ele>113</ele>
        <time>2016-07-24T08:25:19Z</time>
      </trkpt>
      <trkpt lat="44.52754" lon="0.77477">
        <ele>113</ele>
        <time>2016-07-24T08:25:21Z</time>
      </trkpt>
      <trkpt lat="44.52762" lon="0.77472">
        <ele>114</ele>
        <time>2016-07-24T08:25:26Z</time>
      </trkpt>
      <trkpt lat="44.52776" lon="0.77456">
        <ele>114</ele>
        <time>2016-07-24T08:25:35Z</time>
      </trkpt>
      <trkpt lat="44.52778" lon="0.77455">
        <ele>115</ele>
        <time>2016-07-24T08:25:36Z</time>
      </trkpt>
      <trkpt lat="44.52782" lon="0.77444">
        <ele>114</ele>
        <time>2016-07-24T08:25:42Z</time>
      </trkpt>
      <trkpt lat="44.52787" lon="0.77436">
        <ele>114</ele>
        <time>2016-07-24T08:25:47Z</time>
      </trkpt>
      <trkpt lat="44.52792" lon="0.77423">
        <ele>114</ele>
        <time>2016-07-24T08:25:51Z</time>
      </trkpt>
      <trkpt lat="44.52796" lon="0.77411">
        <ele>113</ele>
        <time>2016-07-24T08:25:56Z</time>
      </trkpt>
      <trkpt lat="44.52801" lon="0.77399">
        <ele>113</ele>
        <time>2016-07-24T08:26:03Z</time>
      </trkpt>
      <trkpt lat="44.52803" lon="0.77393">
        <ele>113</ele>
        <time>2016-07-24T08:26:06Z</time>
      </trkpt>
      <trkpt lat="44.52809" lon="0.77387">
        <ele>113</ele>
        <time>2016-07-24T08:26:12Z</time>
      </trkpt>
      <trkpt lat="44.5282" lon="0.77383">
        <ele>113</ele>
        <time>2016-07-24T08:26:20Z</time>
      </trkpt>
      <trkpt lat="44.52822" lon="0.77383">
        <ele>113</ele>
        <time>2016-07-24T08:26:21Z</time>
      </trkpt>
      <trkpt lat="44.52833" lon="0.7738">
        <ele>114</ele>
        <time>2016-07-24T08:26:27Z</time>
      </trkpt>
      <trkpt lat="44.52841" lon="0.77374">
        <ele>114</ele>
        <time>2016-07-24T08:26:31Z</time>
      </trkpt>
      <trkpt lat="44.52867" lon="0.77357">
        <ele>115</ele>
        <time>2016-07-24T08:26:40Z</time>
      </trkpt>
      <trkpt lat="44.5287" lon="0.77354">
        <ele>115</ele>
        <time>2016-07-24T08:26:41Z</time>
      </trkpt>
      <trkpt lat="44.52886" lon="0.77339">
        <ele>116</ele>
        <time>2016-07-24T08:26:47Z</time>
      </trkpt>
      <trkpt lat="44.52893" lon="0.77329">
        <ele>116</ele>
        <time>2016-07-24T08:26:51Z</time>
      </trkpt>
      <trkpt lat="44.52901" lon="0.77313">
        <ele>116</ele>
        <time>2016-07-24T08:26:56Z</time>
      </trkpt>
      <trkpt lat="44.52906" lon="0.77292">
        <ele>117</ele>
        <time>2016-07-24T08:27:01Z</time>
      </trkpt>
      <trkpt lat="44.52908" lon="0.77266">
        <ele>118</ele>
        <time>2016-07-24T08:27:06Z</time>
      </trkpt>
      <trkpt lat="44.52914" lon="0.77227">
        <ele>122</ele>
        <time>2016-07-24T08:27:15Z</time>
      </trkpt>
      <trkpt lat="44.52921" lon="0.77217">
        <ele>123</ele>
        <time>2016-07-24T08:27:18Z</time>
      </trkpt>
      <trkpt lat="44.52932" lon="0.77199">
        <ele>125</ele>
        <time>2016-07-24T08:27:23Z</time>
      </trkpt>
      <trkpt lat="44.52937" lon="0.77189">
        <ele>126</ele>
        <time>2016-07-24T08:27:26Z</time>
      </trkpt>
      <trkpt lat="44.52942" lon="0.7718">
        <ele>127</ele>
        <time>2016-07-24T08:27:31Z</time>
      </trkpt>
      <trkpt lat="44.52944" lon="0.77171">
        <ele>128</ele>
        <time>2016-07-24T08:27:36Z</time>
      </trkpt>
      <trkpt lat="44.52947" lon="0.77158">
        <ele>129</ele>
        <time>2016-07-24T08:27:41Z</time>
      </trkpt>
      <trkpt lat="44.5295" lon="0.7715">
        <ele>129</ele>
        <time>2016-07-24T08:27:46Z</time>
      </trkpt>
      <trkpt lat="44.52953" lon="0.77141">
        <ele>130</ele>
        <time>2016-07-24T08:27:51Z</time>
      </trkpt>
      <trkpt lat="44.52957" lon="0.7713">
        <ele>131</ele>
        <time>2016-07-24T08:27:56Z</time>
      </trkpt>
      <trkpt lat="44.5296" lon="0.77116">
        <ele>132</ele>
        <time>2016-07-24T08:28:02Z</time>
      </trkpt>
      <trkpt lat="44.52965" lon="0.77106">
        <ele>133</ele>
        <time>2016-07-24T08:28:06Z</time>
      </trkpt>
      <trkpt lat="44.52974" lon="0.77092">
        <ele>135</ele>
        <time>2016-07-24T08:28:13Z</time>
      </trkpt>
      <trkpt lat="44.52977" lon="0.77086">
        <ele>135</ele>
        <time>2016-07-24T08:28:16Z</time>
      </trkpt>
      <trkpt lat="44.52982" lon="0.7708">
        <ele>136</ele>
        <time>2016-07-24T08:28:21Z</time>
      </trkpt>
      <trkpt lat="44.52989" lon="0.77072">
        <ele>138</ele>
        <time>2016-07-24T08:28:26Z</time>
      </trkpt>
      <trkpt lat="44.52997" lon="0.77067">
        <ele>139</ele>
        <time>2016-07-24T08:28:31Z</time>
      </trkpt>
      <trkpt lat="44.53007" lon="0.7706">
        <ele>141</ele>
        <time>2016-07-24T08:28:38Z</time>
      </trkpt>
      <trkpt lat="44.53016" lon="0.77052">
        <ele>142</ele>
        <time>2016-07-24T08:28:43Z</time>
      </trkpt>
      <trkpt lat="44.53019" lon="0.77049">
        <ele>143</ele>
        <time>2016-07-24T08:28:46Z</time>
      </trkpt>
      <trkpt lat="44.53024" lon="0.77046">
        <ele>144</ele>
        <time>2016-07-24T08:28:51Z</time>
      </trkpt>
      <trkpt lat="44.53031" lon="0.77041">
        <ele>145</ele>
        <time>2016-07-24T08:29:00Z</time>
      </trkpt>
      <trkpt lat="44.5303" lon="0.77034">
        <ele>145</ele>
        <time>2016-07-24T08:29:04Z</time>
      </trkpt>
      <trkpt lat="44.53029" lon="0.77032">
        <ele>145</ele>
        <time>2016-07-24T08:29:06Z</time>
      </trkpt>
      <trkpt lat="44.53027" lon="0.77023">
        <ele>145</ele>
        <time>2016-07-24T08:29:11Z</time>
      </trkpt>
      <trkpt lat="44.53027" lon="0.77014">
        <ele>146</ele>
        <time>2016-07-24T08:29:16Z</time>
      </trkpt>
      <trkpt lat="44.53026" lon="0.76998">
        <ele>147</ele>
        <time>2016-07-24T08:29:21Z</time>
      </trkpt>
      <trkpt lat="44.53024" lon="0.76981">
        <ele>147</ele>
        <time>2016-07-24T08:29:26Z</time>
      </trkpt>
      <trkpt lat="44.53024" lon="0.76963">
        <ele>148</ele>
        <time>2016-07-24T08:29:31Z</time>
      </trkpt>
      <trkpt lat="44.53023" lon="0.76948">
        <ele>148</ele>
        <time>2016-07-24T08:29:36Z</time>
      </trkpt>
      <trkpt lat="44.53026" lon="0.76916">
        <ele>149</ele>
        <time>2016-07-24T08:29:45Z</time>
      </trkpt>
      <trkpt lat="44.53026" lon="0.76907">
        <ele>149</ele>
        <time>2016-07-24T08:29:48Z</time>
      </trkpt>
      <trkpt lat="44.53025" lon="0.76902">
        <ele>149</ele>
        <time>2016-07-24T08:29:51Z</time>
      </trkpt>
      <trkpt lat="44.53003" lon="0.76893">
        <ele>147</ele>
        <time>2016-07-24T08:29:56Z</time>
      </trkpt>
      <trkpt lat="44.52952" lon="0.76844">
        <ele>140</ele>
        <time>2016-07-24T08:30:05Z</time>
      </trkpt>
      <trkpt lat="44.52949" lon="0.76835">
        <ele>140</ele>
        <time>2016-07-24T08:30:06Z</time>
      </trkpt>
      <trkpt lat="44.52934" lon="0.7678">
        <ele>135</ele>
        <time>2016-07-24T08:30:11Z</time>
      </trkpt>
      <trkpt lat="44.52936" lon="0.76682">
        <ele>132</ele>
        <time>2016-07-24T08:30:19Z</time>
      </trkpt>
      <trkpt lat="44.52942" lon="0.76606">
        <ele>130</ele>
        <time>2016-07-24T08:30:25Z</time>
      </trkpt>
      <trkpt lat="44.52943" lon="0.76593">
        <ele>129</ele>
        <time>2016-07-24T08:30:26Z</time>
      </trkpt>
      <trkpt lat="44.5295" lon="0.76532">
        <ele>126</ele>
        <time>2016-07-24T08:30:31Z</time>
      </trkpt>
      <trkpt lat="44.52952" lon="0.76445">
        <ele>122</ele>
        <time>2016-07-24T08:30:38Z</time>
      </trkpt>
      <trkpt lat="44.52939" lon="0.76386">
        <ele>122</ele>
        <time>2016-07-24T08:30:43Z</time>
      </trkpt>
      <trkpt lat="44.52922" lon="0.76356">
        <ele>122</ele>
        <time>2016-07-24T08:30:46Z</time>
      </trkpt>
      <trkpt lat="44.52883" lon="0.76296">
        <ele>122</ele>
        <time>2016-07-24T08:30:53Z</time>
      </trkpt>
      <trkpt lat="44.52869" lon="0.76273">
        <ele>122</ele>
        <time>2016-07-24T08:30:56Z</time>
      </trkpt>
      <trkpt lat="44.5285" lon="0.76245">
        <ele>122</ele>
        <time>2016-07-24T08:31:01Z</time>
      </trkpt>
      <trkpt lat="44.52833" lon="0.76221">
        <ele>122</ele>
        <time>2016-07-24T08:31:06Z</time>
      </trkpt>
      <trkpt lat="44.52817" lon="0.76193">
        <ele>121</ele>
        <time>2016-07-24T08:31:11Z</time>
      </trkpt>
      <trkpt lat="44.52799" lon="0.76165">
        <ele>121</ele>
        <time>2016-07-24T08:31:16Z</time>
      </trkpt>
      <trkpt lat="44.52787" lon="0.76132">
        <ele>121</ele>
        <time>2016-07-24T08:31:21Z</time>
      </trkpt>
      <trkpt lat="44.52773" lon="0.76093">
        <ele>120</ele>
        <time>2016-07-24T08:31:27Z</time>
      </trkpt>
      <trkpt lat="44.52764" lon="0.76062">
        <ele>120</ele>
        <time>2016-07-24T08:31:31Z</time>
      </trkpt>
      <trkpt lat="44.5275" lon="0.76029">
        <ele>119</ele>
        <time>2016-07-24T08:31:36Z</time>
      </trkpt>
      <trkpt lat="44.52738" lon="0.75994">
        <ele>118</ele>
        <time>2016-07-24T08:31:41Z</time>
      </trkpt>
      <trkpt lat="44.5272" lon="0.75937">
        <ele>117</ele>
        <time>2016-07-24T08:31:49Z</time>
      </trkpt>
      <trkpt lat="44.52714" lon="0.75923">
        <ele>117</ele>
        <time>2016-07-24T08:31:51Z</time>
      </trkpt>
      <trkpt lat="44.52699" lon="0.75889">
        <ele>116</ele>
        <time>2016-07-24T08:31:56Z</time>
      </trkpt>
      <trkpt lat="44.52686" lon="0.75852">
        <ele>115</ele>
        <time>2016-07-24T08:32:01Z</time>
      </trkpt>
      <trkpt lat="44.52671" lon="0.75819">
        <ele>115</ele>
        <time>2016-07-24T08:32:06Z</time>
      </trkpt>
      <trkpt lat="44.52656" lon="0.75788">
        <ele>115</ele>
        <time>2016-07-24T08:32:11Z</time>
      </trkpt>
      <trkpt lat="44.52663" lon="0.75751">
        <ele>115</ele>
        <time>2016-07-24T08:32:16Z</time>
      </trkpt>
      <trkpt lat="44.52695" lon="0.75688">
        <ele>114</ele>
        <time>2016-07-24T08:32:24Z</time>
      </trkpt>
      <trkpt lat="44.527" lon="0.75673">
        <ele>113</ele>
        <time>2016-07-24T08:32:26Z</time>
      </trkpt>
      <trkpt lat="44.5271" lon="0.75642">
        <ele>113</ele>
        <time>2016-07-24T08:32:31Z</time>
      </trkpt>
      <trkpt lat="44.52738" lon="0.75607">
        <ele>112</ele>
        <time>2016-07-24T08:32:39Z</time>
      </trkpt>
      <trkpt lat="44.52744" lon="0.75601">
        <ele>112</ele>
        <time>2016-07-24T08:32:41Z</time>
      </trkpt>
      <trkpt lat="44.52745" lon="0.75578">
        <ele>111</ele>
        <time>2016-07-24T08:32:46Z</time>
      </trkpt>
      <trkpt lat="44.52733" lon="0.75566">
        <ele>111</ele>
        <time>2016-07-24T08:32:54Z</time>
      </trkpt>
      <trkpt lat="44.52726" lon="0.75564">
        <ele>111</ele>
        <time>2016-07-24T08:32:56Z</time>
      </trkpt>
      <trkpt lat="44.52704" lon="0.75559">
        <ele>111</ele>
        <time>2016-07-24T08:33:02Z</time>
      </trkpt>
      <trkpt lat="44.52689" lon="0.75549">
        <ele>111</ele>
        <time>2016-07-24T08:33:06Z</time>
      </trkpt>
      <trkpt lat="44.52673" lon="0.75528">
        <ele>110</ele>
        <time>2016-07-24T08:33:11Z</time>
      </trkpt>
      <trkpt lat="44.52659" lon="0.75501">
        <ele>110</ele>
        <time>2016-07-24T08:33:16Z</time>
      </trkpt>
      <trkpt lat="44.52643" lon="0.75479">
        <ele>109</ele>
        <time>2016-07-24T08:33:22Z</time>
      </trkpt>
      <trkpt lat="44.52642" lon="0.75468">
        <ele>109</ele>
        <time>2016-07-24T08:33:26Z</time>
      </trkpt>
      <trkpt lat="44.52648" lon="0.75436">
        <ele>109</ele>
        <time>2016-07-24T08:33:31Z</time>
      </trkpt>
      <trkpt lat="44.52658" lon="0.75399">
        <ele>108</ele>
        <time>2016-07-24T08:33:36Z</time>
      </trkpt>
      <trkpt lat="44.52666" lon="0.75366">
        <ele>108</ele>
        <time>2016-07-24T08:33:41Z</time>
      </trkpt>
      <trkpt lat="44.52674" lon="0.75333">
        <ele>108</ele>
        <time>2016-07-24T08:33:46Z</time>
      </trkpt>
      <trkpt lat="44.52679" lon="0.753">
        <ele>108</ele>
        <time>2016-07-24T08:33:51Z</time>
      </trkpt>
      <trkpt lat="44.52689" lon="0.75269">
        <ele>107</ele>
        <time>2016-07-24T08:33:56Z</time>
      </trkpt>
      <trkpt lat="44.527" lon="0.75249">
        <ele>107</ele>
        <time>2016-07-24T08:34:01Z</time>
      </trkpt>
      <trkpt lat="44.52696" lon="0.75236">
        <ele>106</ele>
        <time>2016-07-24T08:34:06Z</time>
      </trkpt>
      <trkpt lat="44.52698" lon="0.75226">
        <ele>106</ele>
        <time>2016-07-24T08:34:11Z</time>
      </trkpt>
      <trkpt lat="44.52709" lon="0.75246">
        <ele>107</ele>
        <time>2016-07-24T08:34:18Z</time>
      </trkpt>
      <trkpt lat="44.52712" lon="0.7525">
        <ele>107</ele>
        <time>2016-07-24T08:34:21Z</time>
      </trkpt>
      <trkpt lat="44.52714" lon="0.75252">
        <ele>107</ele>
        <time>2016-07-24T08:34:28Z</time>
      </trkpt>
      <trkpt lat="44.52714" lon="0.75251">
        <ele>107</ele>
        <time>2016-07-24T08:34:31Z</time>
      </trkpt>
      <trkpt lat="44.52714" lon="0.75251">
        <ele>107</ele>
        <time>2016-07-24T08:34:34Z</time>
      </trkpt>
      <trkpt lat="44.52714" lon="0.75251">
        <ele>107</ele>
        <time>2016-07-24T08:34:37Z</time>
      </trkpt>
      <trkpt lat="44.52713" lon="0.75251">
        <ele>107</ele>
        <time>2016-07-24T08:34:40Z</time>
      </trkpt>
      <trkpt lat="44.52713" lon="0.75251">
        <ele>107</ele>
        <time>2016-07-24T08:34:43Z</time>
      </trkpt>
      <trkpt lat="44.52713" lon="0.75251">
        <ele>107</ele>
        <time>2016-07-24T08:34:46Z</time>
      </trkpt>
      <trkpt lat="44.52713" lon="0.75251">
        <ele>107</ele>
        <time>2016-07-24T08:34:51Z</time>
      </trkpt>
      <trkpt lat="44.52713" lon="0.75251">
        <ele>107</ele>
        <time>2016-07-24T08:34:52Z</time>
      </trkpt>
      <trkpt lat="44.52713" lon="0.75251">
        <ele>107</ele>
        <time>2016-07-24T08:34:57Z</time>
      </trkpt>
      <trkpt lat="44.52713" lon="0.75251">
        <ele>107</ele>
        <time>2016-07-24T08:34:58Z</time>
      </trkpt>
      <trkpt lat="44.52713" lon="0.75251">
        <ele>107</ele>
        <time>2016-07-24T08:35:01Z</time>
      </trkpt>
      <trkpt lat="44.52713" lon="0.75251">
        <ele>107</ele>
        <time>2016-07-24T08:35:06Z</time>
      </trkpt>
      <trkpt lat="44.52713" lon="0.75251">
        <ele>107</ele>
        <time>2016-07-24T08:35:07Z</time>
      </trkpt>
      <trkpt lat="44.52713" lon="0.75251">
        <ele>107</ele>
        <time>2016-07-24T08:35:11Z</time>
      </trkpt>
      <trkpt lat="44.52713" lon="0.75251">
        <ele>107</ele>
        <time>2016-07-24T08:35:15Z</time>
      </trkpt>
      <trkpt lat="44.52713" lon="0.75251">
        <ele>107</ele>
        <time>2016-07-24T08:35:16Z</time>
      </trkpt>
      <trkpt lat="44.52713" lon="0.75251">
        <ele>107</ele>
        <time>2016-07-24T08:35:19Z</time>
      </trkpt>
      <trkpt lat="44.52712" lon="0.75249">
        <ele>107</ele>
        <time>2016-07-24T08:35:24Z</time>
      </trkpt>
      <trkpt lat="44.52715" lon="0.75251">
        <ele>107</ele>
        <time>2016-07-24T08:35:27Z</time>
      </trkpt>
      <trkpt lat="44.52715" lon="0.75251">
        <ele>107</ele>
        <time>2016-07-24T08:35:30Z</time>
      </trkpt>
      <trkpt lat="44.52712" lon="0.75251">
        <ele>107</ele>
        <time>2016-07-24T08:35:33Z</time>
      </trkpt>
      <trkpt lat="44.52715" lon="0.75251">
        <ele>107</ele>
        <time>2016-07-24T08:35:38Z</time>
      </trkpt>
      <trkpt lat="44.52713" lon="0.75247">
        <ele>107</ele>
        <time>2016-07-24T08:35:43Z</time>
      </trkpt>
      <trkpt lat="44.52706" lon="0.7526">
        <ele>107</ele>
        <time>2016-07-24T08:35:48Z</time>
      </trkpt>
      <trkpt lat="44.52709" lon="0.75273">
        <ele>108</ele>
        <time>2016-07-24T08:35:53Z</time>
      </trkpt>
      <trkpt lat="44.52715" lon="0.75285">
        <ele>108</ele>
        <time>2016-07-24T08:35:59Z</time>
      </trkpt>
      <trkpt lat="44.5271" lon="0.75304">
        <ele>108</ele>
        <time>2016-07-24T08:36:07Z</time>
      </trkpt>
      <trkpt lat="44.52704" lon="0.75314">
        <ele>108</ele>
        <time>2016-07-24T08:36:11Z</time>
      </trkpt>
      <trkpt lat="44.52702" lon="0.75321">
        <ele>108</ele>
        <time>2016-07-24T08:36:13Z</time>
      </trkpt>
      <trkpt lat="44.527" lon="0.75336">
        <ele>108</ele>
        <time>2016-07-24T08:36:18Z</time>
      </trkpt>
      <trkpt lat="44.52709" lon="0.75363">
        <ele>108</ele>
        <time>2016-07-24T08:36:27Z</time>
      </trkpt>
      <trkpt lat="44.5271" lon="0.75365">
        <ele>108</ele>
        <time>2016-07-24T08:36:28Z</time>
      </trkpt>
      <trkpt lat="44.52718" lon="0.75377">
        <ele>108</ele>
        <time>2016-07-24T08:36:33Z</time>
      </trkpt>
      <trkpt lat="44.52725" lon="0.75388">
        <ele>108</ele>
        <time>2016-07-24T08:36:38Z</time>
      </trkpt>
      <trkpt lat="44.52738" lon="0.75395">
        <ele>108</ele>
        <time>2016-07-24T08:36:43Z</time>
      </trkpt>
      <trkpt lat="44.5275" lon="0.75403">
        <ele>108</ele>
        <time>2016-07-24T08:36:48Z</time>
      </trkpt>
      <trkpt lat="44.52767" lon="0.75409">
        <ele>107</ele>
        <time>2016-07-24T08:36:54Z</time>
      </trkpt>
      <trkpt lat="44.52776" lon="0.75414">
        <ele>107</ele>
        <time>2016-07-24T08:36:58Z</time>
      </trkpt>
      <trkpt lat="44.52788" lon="0.75433">
        <ele>106</ele>
        <time>2016-07-24T08:37:04Z</time>
      </trkpt>
      <trkpt lat="44.5279" lon="0.75459">
        <ele>107</ele>
        <time>2016-07-24T08:37:12Z</time>
      </trkpt>
      <trkpt lat="44.52789" lon="0.75463">
        <ele>107</ele>
        <time>2016-07-24T08:37:13Z</time>
      </trkpt>
      <trkpt lat="44.52783" lon="0.75483">
        <ele>108</ele>
        <time>2016-07-24T08:37:18Z</time>
      </trkpt>
      <trkpt lat="44.52775" lon="0.75509">
        <ele>109</ele>
        <time>2016-07-24T08:37:25Z</time>
      </trkpt>
      <trkpt lat="44.52772" lon="0.75516">
        <ele>110</ele>
        <time>2016-07-24T08:37:30Z</time>
      </trkpt>
      <trkpt lat="44.52773" lon="0.75516">
        <ele>110</ele>
        <time>2016-07-24T08:37:33Z</time>
      </trkpt>
      <trkpt lat="44.52773" lon="0.75516">
        <ele>110</ele>
        <time>2016-07-24T08:37:36Z</time>
      </trkpt>
      <trkpt lat="44.52772" lon="0.75515">
        <ele>110</ele>
        <time>2016-07-24T08:37:39Z</time>
      </trkpt>
      <trkpt lat="44.52773" lon="0.75515">
        <ele>110</ele>
        <time>2016-07-24T08:37:44Z</time>
      </trkpt>
      <trkpt lat="44.52774" lon="0.75518">
        <ele>110</ele>
        <time>2016-07-24T08:37:47Z</time>
      </trkpt>
      <trkpt lat="44.52773" lon="0.75529">
        <ele>110</ele>
        <time>2016-07-24T08:37:52Z</time>
      </trkpt>
      <trkpt lat="44.52766" lon="0.75541">
        <ele>110</ele>
        <time>2016-07-24T08:37:57Z</time>
      </trkpt>
      <trkpt lat="44.52758" lon="0.75553">
        <ele>111</ele>
        <time>2016-07-24T08:38:02Z</time>
      </trkpt>
      <trkpt lat="44.52745" lon="0.75586">
        <ele>111</ele>
        <time>2016-07-24T08:38:11Z</time>
      </trkpt>
      <trkpt lat="44.52745" lon="0.7559">
        <ele>112</ele>
        <time>2016-07-24T08:38:12Z</time>
      </trkpt>
      <trkpt lat="44.52763" lon="0.75594">
        <ele>111</ele>
        <time>2016-07-24T08:38:17Z</time>
      </trkpt>
      <trkpt lat="44.528" lon="0.75581">
        <ele>110</ele>
        <time>2016-07-24T08:38:26Z</time>
      </trkpt>
      <trkpt lat="44.5282" lon="0.756">
        <ele>110</ele>
        <time>2016-07-24T08:38:31Z</time>
      </trkpt>
      <trkpt lat="44.52825" lon="0.75607">
        <ele>110</ele>
        <time>2016-07-24T08:38:32Z</time>
      </trkpt>
      <trkpt lat="44.52846" lon="0.75635">
        <ele>110</ele>
        <time>2016-07-24T08:38:38Z</time>
      </trkpt>
      <trkpt lat="44.52859" lon="0.75651">
        <ele>110</ele>
        <time>2016-07-24T08:38:42Z</time>
      </trkpt>
      <trkpt lat="44.52881" lon="0.75669">
        <ele>110</ele>
        <time>2016-07-24T08:38:48Z</time>
      </trkpt>
      <trkpt lat="44.529" lon="0.75674">
        <ele>110</ele>
        <time>2016-07-24T08:38:52Z</time>
      </trkpt>
      <trkpt lat="44.52917" lon="0.75638">
        <ele>111</ele>
        <time>2016-07-24T08:38:58Z</time>
      </trkpt>
      <trkpt lat="44.52931" lon="0.75609">
        <ele>111</ele>
        <time>2016-07-24T08:39:03Z</time>
      </trkpt>
      <trkpt lat="44.52944" lon="0.75585">
        <ele>112</ele>
        <time>2016-07-24T08:39:07Z</time>
      </trkpt>
      <trkpt lat="44.52968" lon="0.75557">
        <ele>113</ele>
        <time>2016-07-24T08:39:14Z</time>
      </trkpt>
      <trkpt lat="44.52993" lon="0.75529">
        <ele>115</ele>
        <time>2016-07-24T08:39:21Z</time>
      </trkpt>
      <trkpt lat="44.52996" lon="0.75525">
        <ele>115</ele>
        <time>2016-07-24T08:39:22Z</time>
      </trkpt>
      <trkpt lat="44.53014" lon="0.75508">
        <ele>115</ele>
        <time>2016-07-24T08:39:27Z</time>
      </trkpt>
      <trkpt lat="44.53047" lon="0.75482">
        <ele>116</ele>
        <time>2016-07-24T08:39:36Z</time>
      </trkpt>
      <trkpt lat="44.53058" lon="0.7548">
        <ele>116</ele>
        <time>2016-07-24T08:39:39Z</time>
      </trkpt>
      <trkpt lat="44.53069" lon="0.75479">
        <ele>117</ele>
        <time>2016-07-24T08:39:42Z</time>
      </trkpt>
      <trkpt lat="44.53088" lon="0.75476">
        <ele>117</ele>
        <time>2016-07-24T08:39:47Z</time>
      </trkpt>
      <trkpt lat="44.53106" lon="0.75477">
        <ele>118</ele>
        <time>2016-07-24T08:39:53Z</time>
      </trkpt>
      <trkpt lat="44.53122" lon="0.75478">
        <ele>118</ele>
        <time>2016-07-24T08:40:01Z</time>
      </trkpt>
      <trkpt lat="44.53129" lon="0.75482">
        <ele>118</ele>
        <time>2016-07-24T08:40:04Z</time>
      </trkpt>
      <trkpt lat="44.53137" lon="0.75482">
        <ele>118</ele>
        <time>2016-07-24T08:40:09Z</time>
      </trkpt>
      <trkpt lat="44.53145" lon="0.75483">
        <ele>118</ele>
        <time>2016-07-24T08:40:12Z</time>
      </trkpt>
      <trkpt lat="44.53175" lon="0.75479">
        <ele>118</ele>
        <time>2016-07-24T08:40:21Z</time>
      </trkpt>
      <trkpt lat="44.53179" lon="0.75479">
        <ele>118</ele>
        <time>2016-07-24T08:40:22Z</time>
      </trkpt>
      <trkpt lat="44.53199" lon="0.75454">
        <ele>117</ele>
        <time>2016-07-24T08:40:27Z</time>
      </trkpt>
      <trkpt lat="44.53205" lon="0.75411">
        <ele>116</ele>
        <time>2016-07-24T08:40:32Z</time>
      </trkpt>
      <trkpt lat="44.53212" lon="0.75364">
        <ele>114</ele>
        <time>2016-07-24T08:40:37Z</time>
      </trkpt>
      <trkpt lat="44.53214" lon="0.75319">
        <ele>113</ele>
        <time>2016-07-24T08:40:42Z</time>
      </trkpt>
      <trkpt lat="44.53218" lon="0.75283">
        <ele>112</ele>
        <time>2016-07-24T08:40:47Z</time>
      </trkpt>
      <trkpt lat="44.53225" lon="0.75245">
        <ele>112</ele>
        <time>2016-07-24T08:40:52Z</time>
      </trkpt>
      <trkpt lat="44.53235" lon="0.75217">
        <ele>112</ele>
        <time>2016-07-24T08:40:57Z</time>
      </trkpt>
      <trkpt lat="44.53243" lon="0.75188">
        <ele>113</ele>
        <time>2016-07-24T08:41:02Z</time>
      </trkpt>
      <trkpt lat="44.53256" lon="0.75154">
        <ele>113</ele>
        <time>2016-07-24T08:41:08Z</time>
      </trkpt>
      <trkpt lat="44.53279" lon="0.75117">
        <ele>114</ele>
        <time>2016-07-24T08:41:16Z</time>
      </trkpt>
      <trkpt lat="44.53283" lon="0.75116">
        <ele>114</ele>
        <time>2016-07-24T08:41:17Z</time>
      </trkpt>
      <trkpt lat="44.53303" lon="0.75126">
        <ele>114</ele>
        <time>2016-07-24T08:41:22Z</time>
      </trkpt>
      <trkpt lat="44.53324" lon="0.75122">
        <ele>115</ele>
        <time>2016-07-24T08:41:27Z</time>
      </trkpt>
      <trkpt lat="44.53336" lon="0.75089">
        <ele>113</ele>
        <time>2016-07-24T08:41:32Z</time>
      </trkpt>
      <trkpt lat="44.53347" lon="0.75054">
        <ele>111</ele>
        <time>2016-07-24T08:41:37Z</time>
      </trkpt>
      <trkpt lat="44.53355" lon="0.75019">
        <ele>110</ele>
        <time>2016-07-24T08:41:42Z</time>
      </trkpt>
      <trkpt lat="44.53368" lon="0.74972">
        <ele>108</ele>
        <time>2016-07-24T08:41:49Z</time>
      </trkpt>
      <trkpt lat="44.53373" lon="0.74952">
        <ele>107</ele>
        <time>2016-07-24T08:41:52Z</time>
      </trkpt>
      <trkpt lat="44.53383" lon="0.74915">
        <ele>106</ele>
        <time>2016-07-24T08:41:58Z</time>
      </trkpt>
      <trkpt lat="44.53397" lon="0.74867">
        <ele>104</ele>
        <time>2016-07-24T08:42:05Z</time>
      </trkpt>
      <trkpt lat="44.534" lon="0.74852">
        <ele>103</ele>
        <time>2016-07-24T08:42:07Z</time>
      </trkpt>
      <trkpt lat="44.53409" lon="0.74814">
        <ele>100</ele>
        <time>2016-07-24T08:42:12Z</time>
      </trkpt>
      <trkpt lat="44.53413" lon="0.74774">
        <ele>96</ele>
        <time>2016-07-24T08:42:18Z</time>
      </trkpt>
      <trkpt lat="44.53406" lon="0.74752">
        <ele>94</ele>
        <time>2016-07-24T08:42:22Z</time>
      </trkpt>
      <trkpt lat="44.53387" lon="0.74694">
        <ele>88</ele>
        <time>2016-07-24T08:42:29Z</time>
      </trkpt>
      <trkpt lat="44.53379" lon="0.74672">
        <ele>85</ele>
        <time>2016-07-24T08:42:32Z</time>
      </trkpt>
      <trkpt lat="44.53369" lon="0.74652">
        <ele>83</ele>
        <time>2016-07-24T08:42:37Z</time>
      </trkpt>
      <trkpt lat="44.5335" lon="0.74601">
        <ele>79</ele>
        <time>2016-07-24T08:42:46Z</time>
      </trkpt>
      <trkpt lat="44.53354" lon="0.7458">
        <ele>79</ele>
        <time>2016-07-24T08:42:50Z</time>
      </trkpt>
      <trkpt lat="44.53358" lon="0.74553">
        <ele>79</ele>
        <time>2016-07-24T08:42:55Z</time>
      </trkpt>
      <trkpt lat="44.53358" lon="0.7455">
        <ele>79</ele>
        <time>2016-07-24T08:42:57Z</time>
      </trkpt>
      <trkpt lat="44.5336" lon="0.74545">
        <ele>78</ele>
        <time>2016-07-24T08:43:05Z</time>
      </trkpt>
      <trkpt lat="44.5336" lon="0.74545">
        <ele>78</ele>
        <time>2016-07-24T08:43:07Z</time>
      </trkpt>
      <trkpt lat="44.53359" lon="0.74543">
        <ele>78</ele>
        <time>2016-07-24T08:43:10Z</time>
      </trkpt>
      <trkpt lat="44.53361" lon="0.74536">
        <ele>78</ele>
        <time>2016-07-24T08:43:15Z</time>
      </trkpt>
      <trkpt lat="44.53363" lon="0.74524">
        <ele>78</ele>
        <time>2016-07-24T08:43:20Z</time>
      </trkpt>
      <trkpt lat="44.53366" lon="0.74503">
        <ele>78</ele>
        <time>2016-07-24T08:43:25Z</time>
      </trkpt>
      <trkpt lat="44.53371" lon="0.74463">
        <ele>78</ele>
        <time>2016-07-24T08:43:30Z</time>
      </trkpt>
      <trkpt lat="44.53379" lon="0.74418">
        <ele>78</ele>
        <time>2016-07-24T08:43:35Z</time>
      </trkpt>
      <trkpt lat="44.53393" lon="0.74387">
        <ele>78</ele>
        <time>2016-07-24T08:43:40Z</time>
      </trkpt>
      <trkpt lat="44.53409" lon="0.74337">
        <ele>76</ele>
        <time>2016-07-24T08:43:47Z</time>
      </trkpt>
      <trkpt lat="44.53414" lon="0.74319">
        <ele>76</ele>
        <time>2016-07-24T08:43:52Z</time>
      </trkpt>
      <trkpt lat="44.53413" lon="0.74299">
        <ele>75</ele>
        <time>2016-07-24T08:43:56Z</time>
      </trkpt>
      <trkpt lat="44.53401" lon="0.74251">
        <ele>75</ele>
        <time>2016-07-24T08:44:04Z</time>
      </trkpt>
      <trkpt lat="44.53398" lon="0.74233">
        <ele>75</ele>
        <time>2016-07-24T08:44:07Z</time>
      </trkpt>
      <trkpt lat="44.53396" lon="0.74214">
        <ele>75</ele>
        <time>2016-07-24T08:44:10Z</time>
      </trkpt>
      <trkpt lat="44.53396" lon="0.74175">
        <ele>75</ele>
        <time>2016-07-24T08:44:16Z</time>
      </trkpt>
      <trkpt lat="44.53394" lon="0.74149">
        <ele>74</ele>
        <time>2016-07-24T08:44:20Z</time>
      </trkpt>
      <trkpt lat="44.53391" lon="0.74125">
        <ele>74</ele>
        <time>2016-07-24T08:44:25Z</time>
      </trkpt>
      <trkpt lat="44.53391" lon="0.74119">
        <ele>74</ele>
        <time>2016-07-24T08:44:30Z</time>
      </trkpt>
      <trkpt lat="44.53391" lon="0.74117">
        <ele>74</ele>
        <time>2016-07-24T08:44:36Z</time>
      </trkpt>
      <trkpt lat="44.53391" lon="0.74115">
        <ele>74</ele>
        <time>2016-07-24T08:44:38Z</time>
      </trkpt>
      <trkpt lat="44.53393" lon="0.74107">
        <ele>74</ele>
        <time>2016-07-24T08:44:44Z</time>
      </trkpt>
      <trkpt lat="44.53394" lon="0.74105">
        <ele>74</ele>
        <time>2016-07-24T08:44:49Z</time>
      </trkpt>
      <trkpt lat="44.53393" lon="0.74104">
        <ele>74</ele>
        <time>2016-07-24T08:44:51Z</time>
      </trkpt>
      <trkpt lat="44.53394" lon="0.74104">
        <ele>74</ele>
        <time>2016-07-24T08:44:56Z</time>
      </trkpt>
      <trkpt lat="44.53393" lon="0.74104">
        <ele>74</ele>
        <time>2016-07-24T08:44:59Z</time>
      </trkpt>
      <trkpt lat="44.53393" lon="0.74103">
        <ele>74</ele>
        <time>2016-07-24T08:45:04Z</time>
      </trkpt>
      <trkpt lat="44.53393" lon="0.74103">
        <ele>74</ele>
        <time>2016-07-24T08:45:05Z</time>
      </trkpt>
      <trkpt lat="44.53399" lon="0.74085">
        <ele>75</ele>
        <time>2016-07-24T08:45:10Z</time>
      </trkpt>
      <trkpt lat="44.53402" lon="0.74057">
        <ele>76</ele>
        <time>2016-07-24T08:45:15Z</time>
      </trkpt>
      <trkpt lat="44.53404" lon="0.74025">
        <ele>78</ele>
        <time>2016-07-24T08:45:21Z</time>
      </trkpt>
      <trkpt lat="44.53401" lon="0.74001">
        <ele>83</ele>
        <time>2016-07-24T08:45:25Z</time>
      </trkpt>
      <trkpt lat="44.53388" lon="0.73979">
        <ele>89</ele>
        <time>2016-07-24T08:45:30Z</time>
      </trkpt>
      <trkpt lat="44.5337" lon="0.73976">
        <ele>93</ele>
        <time>2016-07-24T08:45:35Z</time>
      </trkpt>
      <trkpt lat="44.53343" lon="0.7397">
        <ele>97</ele>
        <time>2016-07-24T08:45:44Z</time>
      </trkpt>
      <trkpt lat="44.5334" lon="0.7397">
        <ele>97</ele>
        <time>2016-07-24T08:45:45Z</time>
      </trkpt>
      <trkpt lat="44.53326" lon="0.73972">
        <ele>98</ele>
        <time>2016-07-24T08:45:50Z</time>
      </trkpt>
      <trkpt lat="44.53305" lon="0.73971">
        <ele>97</ele>
        <time>2016-07-24T08:45:57Z</time>
      </trkpt>
      <trkpt lat="44.53294" lon="0.7397">
        <ele>97</ele>
        <time>2016-07-24T08:46:00Z</time>
      </trkpt>
      <trkpt lat="44.53274" lon="0.73957">
        <ele>96</ele>
        <time>2016-07-24T08:46:08Z</time>
      </trkpt>
      <trkpt lat="44.53272" lon="0.73954">
        <ele>96</ele>
        <time>2016-07-24T08:46:11Z</time>
      </trkpt>
      <trkpt lat="44.53265" lon="0.73951">
        <ele>95</ele>
        <time>2016-07-24T08:46:15Z</time>
      </trkpt>
      <trkpt lat="44.53259" lon="0.73946">
        <ele>95</ele>
        <time>2016-07-24T08:46:20Z</time>
      </trkpt>
      <trkpt lat="44.53253" lon="0.73937">
        <ele>95</ele>
        <time>2016-07-24T08:46:25Z</time>
      </trkpt>
      <trkpt lat="44.53252" lon="0.73926">
        <ele>96</ele>
        <time>2016-07-24T08:46:30Z</time>
      </trkpt>
      <trkpt lat="44.53251" lon="0.73919">
        <ele>97</ele>
        <time>2016-07-24T08:46:35Z</time>
      </trkpt>
      <trkpt lat="44.53249" lon="0.73907">
        <ele>98</ele>
        <time>2016-07-24T08:46:44Z</time>
      </trkpt>
      <trkpt lat="44.53249" lon="0.73905">
        <ele>98</ele>
        <time>2016-07-24T08:46:45Z</time>
      </trkpt>
      <trkpt lat="44.53251" lon="0.739">
        <ele>99</ele>
        <time>2016-07-24T08:46:50Z</time>
      </trkpt>
      <trkpt lat="44.53257" lon="0.73896">
        <ele>100</ele>
        <time>2016-07-24T08:46:55Z</time>
      </trkpt>
      <trkpt lat="44.53259" lon="0.73894">
        <ele>100</ele>
        <time>2016-07-24T08:47:00Z</time>
      </trkpt>
      <trkpt lat="44.53263" lon="0.73891">
        <ele>100</ele>
        <time>2016-07-24T08:47:05Z</time>
      </trkpt>
      <trkpt lat="44.53267" lon="0.73886">
        <ele>101</ele>
        <time>2016-07-24T08:47:10Z</time>
      </trkpt>
      <trkpt lat="44.53272" lon="0.73879">
        <ele>101</ele>
        <time>2016-07-24T08:47:17Z</time>
      </trkpt>
      <trkpt lat="44.53274" lon="0.73875">
        <ele>102</ele>
        <time>2016-07-24T08:47:20Z</time>
      </trkpt>
      <trkpt lat="44.53278" lon="0.7387">
        <ele>102</ele>
        <time>2016-07-24T08:47:25Z</time>
      </trkpt>
      <trkpt lat="44.53282" lon="0.73865">
        <ele>103</ele>
        <time>2016-07-24T08:47:30Z</time>
      </trkpt>
      <trkpt lat="44.53287" lon="0.73861">
        <ele>103</ele>
        <time>2016-07-24T08:47:35Z</time>
      </trkpt>
      <trkpt lat="44.53289" lon="0.73855">
        <ele>103</ele>
        <time>2016-07-24T08:47:40Z</time>
      </trkpt>
      <trkpt lat="44.53295" lon="0.73852">
        <ele>104</ele>
        <time>2016-07-24T08:47:45Z</time>
      </trkpt>
      <trkpt lat="44.53299" lon="0.73846">
        <ele>104</ele>
        <time>2016-07-24T08:47:50Z</time>
      </trkpt>
      <trkpt lat="44.53304" lon="0.7384">
        <ele>104</ele>
        <time>2016-07-24T08:47:55Z</time>
      </trkpt>
      <trkpt lat="44.53307" lon="0.73833">
        <ele>105</ele>
        <time>2016-07-24T08:48:00Z</time>
      </trkpt>
      <trkpt lat="44.53311" lon="0.73829">
        <ele>105</ele>
        <time>2016-07-24T08:48:05Z</time>
      </trkpt>
      <trkpt lat="44.53316" lon="0.73824">
        <ele>106</ele>
        <time>2016-07-24T08:48:11Z</time>
      </trkpt>
      <trkpt lat="44.5332" lon="0.73818">
        <ele>106</ele>
        <time>2016-07-24T08:48:16Z</time>
      </trkpt>
      <trkpt lat="44.53325" lon="0.73814">
        <ele>106</ele>
        <time>2016-07-24T08:48:20Z</time>
      </trkpt>
      <trkpt lat="44.53328" lon="0.73804">
        <ele>107</ele>
        <time>2016-07-24T08:48:25Z</time>
      </trkpt>
      <trkpt lat="44.53328" lon="0.73801">
        <ele>107</ele>
        <time>2016-07-24T08:48:32Z</time>
      </trkpt>
      <trkpt lat="44.53329" lon="0.73801">
        <ele>107</ele>
        <time>2016-07-24T08:48:33Z</time>
      </trkpt>
      <trkpt lat="44.5333" lon="0.738">
        <ele>107</ele>
        <time>2016-07-24T08:48:36Z</time>
      </trkpt>
      <trkpt lat="44.5333" lon="0.73799">
        <ele>107</ele>
        <time>2016-07-24T08:48:41Z</time>
      </trkpt>
      <trkpt lat="44.5333" lon="0.73799">
        <ele>107</ele>
        <time>2016-07-24T08:48:44Z</time>
      </trkpt>
      <trkpt lat="44.5333" lon="0.73798">
        <ele>107</ele>
        <time>2016-07-24T08:48:47Z</time>
      </trkpt>
      <trkpt lat="44.5333" lon="0.73797">
        <ele>107</ele>
        <time>2016-07-24T08:48:50Z</time>
      </trkpt>
      <trkpt lat="44.53329" lon="0.73797">
        <ele>107</ele>
        <time>2016-07-24T08:48:53Z</time>
      </trkpt>
      <trkpt lat="44.53329" lon="0.73796">
        <ele>107</ele>
        <time>2016-07-24T08:48:56Z</time>
      </trkpt>
      <trkpt lat="44.53329" lon="0.73796">
        <ele>107</ele>
        <time>2016-07-24T08:48:59Z</time>
      </trkpt>
      <trkpt lat="44.53329" lon="0.73796">
        <ele>107</ele>
        <time>2016-07-24T08:49:02Z</time>
      </trkpt>
      <trkpt lat="44.53329" lon="0.73796">
        <ele>107</ele>
        <time>2016-07-24T08:49:05Z</time>
      </trkpt>
      <trkpt lat="44.53329" lon="0.73796">
        <ele>107</ele>
        <time>2016-07-24T08:49:08Z</time>
      </trkpt>
      <trkpt lat="44.53329" lon="0.73796">
        <ele>107</ele>
        <time>2016-07-24T08:49:11Z</time>
      </trkpt>
      <trkpt lat="44.53329" lon="0.73796">
        <ele>107</ele>
        <time>2016-07-24T08:49:14Z</time>
      </trkpt>
      <trkpt lat="44.53329" lon="0.73796">
        <ele>107</ele>
        <time>2016-07-24T08:49:17Z</time>
      </trkpt>
      <trkpt lat="44.53329" lon="0.73796">
        <ele>107</ele>
        <time>2016-07-24T08:49:20Z</time>
      </trkpt>
      <trkpt lat="44.53329" lon="0.73796">
        <ele>107</ele>
        <time>2016-07-24T08:49:23Z</time>
      </trkpt>
      <trkpt lat="44.5333" lon="0.73797">
        <ele>107</ele>
        <time>2016-07-24T08:49:26Z</time>
      </trkpt>
      <trkpt lat="44.53331" lon="0.73792">
        <ele>107</ele>
        <time>2016-07-24T08:49:29Z</time>
      </trkpt>
      <trkpt lat="44.53323" lon="0.73784">
        <ele>107</ele>
        <time>2016-07-24T08:49:34Z</time>
      </trkpt>
      <trkpt lat="44.53316" lon="0.73764">
        <ele>106</ele>
        <time>2016-07-24T08:49:42Z</time>
      </trkpt>
      <trkpt lat="44.53314" lon="0.73759">
        <ele>105</ele>
        <time>2016-07-24T08:49:44Z</time>
      </trkpt>
      <trkpt lat="44.53309" lon="0.73745">
        <ele>105</ele>
        <time>2016-07-24T08:49:49Z</time>
      </trkpt>
      <trkpt lat="44.53307" lon="0.73731">
        <ele>104</ele>
        <time>2016-07-24T08:49:54Z</time>
      </trkpt>
      <trkpt lat="44.53302" lon="0.73717">
        <ele>103</ele>
        <time>2016-07-24T08:49:59Z</time>
      </trkpt>
      <trkpt lat="44.53295" lon="0.73696">
        <ele>103</ele>
        <time>2016-07-24T08:50:04Z</time>
      </trkpt>
      <trkpt lat="44.53288" lon="0.73674">
        <ele>104</ele>
        <time>2016-07-24T08:50:09Z</time>
      </trkpt>
      <trkpt lat="44.53277" lon="0.73648">
        <ele>105</ele>
        <time>2016-07-24T08:50:15Z</time>
      </trkpt>
      <trkpt lat="44.5327" lon="0.73637">
        <ele>106</ele>
        <time>2016-07-24T08:50:19Z</time>
      </trkpt>
      <trkpt lat="44.53264" lon="0.73642">
        <ele>106</ele>
        <time>2016-07-24T08:50:24Z</time>
      </trkpt>
      <trkpt lat="44.53272" lon="0.73656">
        <ele>105</ele>
        <time>2016-07-24T08:50:31Z</time>
      </trkpt>
      <trkpt lat="44.53276" lon="0.73666">
        <ele>104</ele>
        <time>2016-07-24T08:50:34Z</time>
      </trkpt>
      <trkpt lat="44.53284" lon="0.7368">
        <ele>103</ele>
        <time>2016-07-24T08:50:39Z</time>
      </trkpt>
      <trkpt lat="44.53299" lon="0.73718">
        <ele>103</ele>
        <time>2016-07-24T08:50:47Z</time>
      </trkpt>
      <trkpt lat="44.53305" lon="0.73729">
        <ele>104</ele>
        <time>2016-07-24T08:50:49Z</time>
      </trkpt>
      <trkpt lat="44.53313" lon="0.73754">
        <ele>105</ele>
        <time>2016-07-24T08:50:54Z</time>
      </trkpt>
      <trkpt lat="44.53318" lon="0.7378">
        <ele>106</ele>
        <time>2016-07-24T08:50:59Z</time>
      </trkpt>
      <trkpt lat="44.53339" lon="0.73793">
        <ele>108</ele>
        <time>2016-07-24T08:51:05Z</time>
      </trkpt>
      <trkpt lat="44.53351" lon="0.73781">
        <ele>109</ele>
        <time>2016-07-24T08:51:09Z</time>
      </trkpt>
      <trkpt lat="44.53373" lon="0.73778">
        <ele>111</ele>
        <time>2016-07-24T08:51:14Z</time>
      </trkpt>
      <trkpt lat="44.53397" lon="0.73809">
        <ele>111</ele>
        <time>2016-07-24T08:51:21Z</time>
      </trkpt>
      <trkpt lat="44.5341" lon="0.73823">
        <ele>111</ele>
        <time>2016-07-24T08:51:24Z</time>
      </trkpt>
      <trkpt lat="44.53456" lon="0.73854">
        <ele>107</ele>
        <time>2016-07-24T08:51:32Z</time>
      </trkpt>
      <trkpt lat="44.53472" lon="0.73865">
        <ele>107</ele>
        <time>2016-07-24T08:51:35Z</time>
      </trkpt>
      <trkpt lat="44.53489" lon="0.73878">
        <ele>107</ele>
        <time>2016-07-24T08:51:39Z</time>
      </trkpt>
      <trkpt lat="44.53513" lon="0.73872">
        <ele>109</ele>
        <time>2016-07-24T08:51:44Z</time>
      </trkpt>
      <trkpt lat="44.53536" lon="0.73854">
        <ele>110</ele>
        <time>2016-07-24T08:51:49Z</time>
      </trkpt>
      <trkpt lat="44.53558" lon="0.73837">
        <ele>112</ele>
        <time>2016-07-24T08:51:55Z</time>
      </trkpt>
      <trkpt lat="44.53573" lon="0.73826">
        <ele>113</ele>
        <time>2016-07-24T08:51:59Z</time>
      </trkpt>
      <trkpt lat="44.53598" lon="0.73806">
        <ele>115</ele>
        <time>2016-07-24T08:52:06Z</time>
      </trkpt>
      <trkpt lat="44.53609" lon="0.73796">
        <ele>116</ele>
        <time>2016-07-24T08:52:09Z</time>
      </trkpt>
      <trkpt lat="44.53629" lon="0.73785">
        <ele>117</ele>
        <time>2016-07-24T08:52:14Z</time>
      </trkpt>
      <trkpt lat="44.53651" lon="0.73772">
        <ele>119</ele>
        <time>2016-07-24T08:52:21Z</time>
      </trkpt>
      <trkpt lat="44.53659" lon="0.73768">
        <ele>119</ele>
        <time>2016-07-24T08:52:24Z</time>
      </trkpt>
      <trkpt lat="44.53676" lon="0.7376">
        <ele>120</ele>
        <time>2016-07-24T08:52:29Z</time>
      </trkpt>
      <trkpt lat="44.53704" lon="0.73757">
        <ele>121</ele>
        <time>2016-07-24T08:52:38Z</time>
      </trkpt>
      <trkpt lat="44.53711" lon="0.73756">
        <ele>121</ele>
        <time>2016-07-24T08:52:42Z</time>
      </trkpt>
      <trkpt lat="44.53717" lon="0.73757">
        <ele>121</ele>
        <time>2016-07-24T08:52:46Z</time>
      </trkpt>
      <trkpt lat="44.53721" lon="0.73757">
        <ele>121</ele>
        <time>2016-07-24T08:52:49Z</time>
      </trkpt>
      <trkpt lat="44.53728" lon="0.73759">
        <ele>121</ele>
        <time>2016-07-24T08:52:54Z</time>
      </trkpt>
      <trkpt lat="44.53719" lon="0.73752">
        <ele>121</ele>
        <time>2016-07-24T08:53:00Z</time>
      </trkpt>
      <trkpt lat="44.5372" lon="0.7374">
        <ele>122</ele>
        <time>2016-07-24T08:53:04Z</time>
      </trkpt>
      <trkpt lat="44.53724" lon="0.73724">
        <ele>122</ele>
        <time>2016-07-24T08:53:09Z</time>
      </trkpt>
      <trkpt lat="44.53727" lon="0.7371">
        <ele>122</ele>
        <time>2016-07-24T08:53:14Z</time>
      </trkpt>
      <trkpt lat="44.53734" lon="0.73694">
        <ele>122</ele>
        <time>2016-07-24T08:53:19Z</time>
      </trkpt>
      <trkpt lat="44.53742" lon="0.73678">
        <ele>122</ele>
        <time>2016-07-24T08:53:24Z</time>
      </trkpt>
      <trkpt lat="44.5375" lon="0.73663">
        <ele>122</ele>
        <time>2016-07-24T08:53:29Z</time>
      </trkpt>
      <trkpt lat="44.53759" lon="0.73647">
        <ele>122</ele>
        <time>2016-07-24T08:53:34Z</time>
      </trkpt>
      <trkpt lat="44.5377" lon="0.73629">
        <ele>122</ele>
        <time>2016-07-24T08:53:39Z</time>
      </trkpt>
      <trkpt lat="44.53777" lon="0.73608">
        <ele>122</ele>
        <time>2016-07-24T08:53:44Z</time>
      </trkpt>
      <trkpt lat="44.53784" lon="0.73587">
        <ele>123</ele>
        <time>2016-07-24T08:53:49Z</time>
      </trkpt>
      <trkpt lat="44.53794" lon="0.73551">
        <ele>124</ele>
        <time>2016-07-24T08:53:57Z</time>
      </trkpt>
      <trkpt lat="44.53796" lon="0.73543">
        <ele>124</ele>
        <time>2016-07-24T08:53:59Z</time>
      </trkpt>
      <trkpt lat="44.53801" lon="0.73509">
        <ele>126</ele>
        <time>2016-07-24T08:54:06Z</time>
      </trkpt>
      <trkpt lat="44.53803" lon="0.73494">
        <ele>127</ele>
        <time>2016-07-24T08:54:09Z</time>
      </trkpt>
      <trkpt lat="44.53806" lon="0.73475">
        <ele>128</ele>
        <time>2016-07-24T08:54:14Z</time>
      </trkpt>
      <trkpt lat="44.53809" lon="0.73459">
        <ele>128</ele>
        <time>2016-07-24T08:54:19Z</time>
      </trkpt>
      <trkpt lat="44.5381" lon="0.73442">
        <ele>129</ele>
        <time>2016-07-24T08:54:24Z</time>
      </trkpt>
      <trkpt lat="44.53812" lon="0.73426">
        <ele>129</ele>
        <time>2016-07-24T08:54:29Z</time>
      </trkpt>
      <trkpt lat="44.53813" lon="0.73408">
        <ele>130</ele>
        <time>2016-07-24T08:54:34Z</time>
      </trkpt>
      <trkpt lat="44.53811" lon="0.7339">
        <ele>131</ele>
        <time>2016-07-24T08:54:39Z</time>
      </trkpt>
      <trkpt lat="44.53807" lon="0.73372">
        <ele>133</ele>
        <time>2016-07-24T08:54:46Z</time>
      </trkpt>
      <trkpt lat="44.53807" lon="0.73364">
        <ele>134</ele>
        <time>2016-07-24T08:54:49Z</time>
      </trkpt>
      <trkpt lat="44.53806" lon="0.73354">
        <ele>135</ele>
        <time>2016-07-24T08:54:54Z</time>
      </trkpt>
      <trkpt lat="44.53806" lon="0.73344">
        <ele>136</ele>
        <time>2016-07-24T08:55:00Z</time>
      </trkpt>
      <trkpt lat="44.53806" lon="0.73337">
        <ele>137</ele>
        <time>2016-07-24T08:55:05Z</time>
      </trkpt>
      <trkpt lat="44.53806" lon="0.73331">
        <ele>137</ele>
        <time>2016-07-24T08:55:09Z</time>
      </trkpt>
      <trkpt lat="44.53806" lon="0.73326">
        <ele>138</ele>
        <time>2016-07-24T08:55:14Z</time>
      </trkpt>
      <trkpt lat="44.53805" lon="0.73314">
        <ele>139</ele>
        <time>2016-07-24T08:55:21Z</time>
      </trkpt>
      <trkpt lat="44.53803" lon="0.73309">
        <ele>140</ele>
        <time>2016-07-24T08:55:24Z</time>
      </trkpt>
      <trkpt lat="44.53803" lon="0.73302">
        <ele>141</ele>
        <time>2016-07-24T08:55:29Z</time>
      </trkpt>
      <trkpt lat="44.538" lon="0.73293">
        <ele>141</ele>
        <time>2016-07-24T08:55:34Z</time>
      </trkpt>
      <trkpt lat="44.53798" lon="0.73286">
        <ele>142</ele>
        <time>2016-07-24T08:55:39Z</time>
      </trkpt>
      <trkpt lat="44.53795" lon="0.7327">
        <ele>143</ele>
        <time>2016-07-24T08:55:47Z</time>
      </trkpt>
      <trkpt lat="44.53795" lon="0.73267">
        <ele>143</ele>
        <time>2016-07-24T08:55:49Z</time>
      </trkpt>
      <trkpt lat="44.53795" lon="0.73259">
        <ele>143</ele>
        <time>2016-07-24T08:55:54Z</time>
      </trkpt>
      <trkpt lat="44.53794" lon="0.73247">
        <ele>143</ele>
        <time>2016-07-24T08:55:59Z</time>
      </trkpt>
      <trkpt lat="44.53795" lon="0.73227">
        <ele>143</ele>
        <time>2016-07-24T08:56:07Z</time>
      </trkpt>
      <trkpt lat="44.53796" lon="0.73222">
        <ele>143</ele>
        <time>2016-07-24T08:56:09Z</time>
      </trkpt>
      <trkpt lat="44.53801" lon="0.73214">
        <ele>143</ele>
        <time>2016-07-24T08:56:17Z</time>
      </trkpt>
      <trkpt lat="44.53802" lon="0.7321">
        <ele>143</ele>
        <time>2016-07-24T08:56:19Z</time>
      </trkpt>
      <trkpt lat="44.5381" lon="0.73201">
        <ele>143</ele>
        <time>2016-07-24T08:56:24Z</time>
      </trkpt>
      <trkpt lat="44.53818" lon="0.73184">
        <ele>143</ele>
        <time>2016-07-24T08:56:30Z</time>
      </trkpt>
      <trkpt lat="44.53827" lon="0.73165">
        <ele>143</ele>
        <time>2016-07-24T08:56:38Z</time>
      </trkpt>
      <trkpt lat="44.53827" lon="0.73162">
        <ele>143</ele>
        <time>2016-07-24T08:56:40Z</time>
      </trkpt>
      <trkpt lat="44.5383" lon="0.73153">
        <ele>143</ele>
        <time>2016-07-24T08:56:44Z</time>
      </trkpt>
      <trkpt lat="44.53839" lon="0.73133">
        <ele>142</ele>
        <time>2016-07-24T08:56:51Z</time>
      </trkpt>
      <trkpt lat="44.53843" lon="0.73124">
        <ele>142</ele>
        <time>2016-07-24T08:56:54Z</time>
      </trkpt>
      <trkpt lat="44.53846" lon="0.73114">
        <ele>142</ele>
        <time>2016-07-24T08:56:59Z</time>
      </trkpt>
      <trkpt lat="44.53854" lon="0.73095">
        <ele>142</ele>
        <time>2016-07-24T08:57:07Z</time>
      </trkpt>
      <trkpt lat="44.53855" lon="0.73072">
        <ele>142</ele>
        <time>2016-07-24T08:57:12Z</time>
      </trkpt>
      <trkpt lat="44.53861" lon="0.73055">
        <ele>142</ele>
        <time>2016-07-24T08:57:17Z</time>
      </trkpt>
      <trkpt lat="44.53863" lon="0.73049">
        <ele>142</ele>
        <time>2016-07-24T08:57:19Z</time>
      </trkpt>
      <trkpt lat="44.53871" lon="0.73038">
        <ele>143</ele>
        <time>2016-07-24T08:57:24Z</time>
      </trkpt>
      <trkpt lat="44.53879" lon="0.73024">
        <ele>143</ele>
        <time>2016-07-24T08:57:29Z</time>
      </trkpt>
      <trkpt lat="44.53886" lon="0.73016">
        <ele>143</ele>
        <time>2016-07-24T08:57:34Z</time>
      </trkpt>
      <trkpt lat="44.53895" lon="0.73004">
        <ele>143</ele>
        <time>2016-07-24T08:57:39Z</time>
      </trkpt>
      <trkpt lat="44.53907" lon="0.72983">
        <ele>144</ele>
        <time>2016-07-24T08:57:44Z</time>
      </trkpt>
      <trkpt lat="44.5392" lon="0.72972">
        <ele>144</ele>
        <time>2016-07-24T08:57:49Z</time>
      </trkpt>
      <trkpt lat="44.53932" lon="0.72957">
        <ele>144</ele>
        <time>2016-07-24T08:57:54Z</time>
      </trkpt>
      <trkpt lat="44.53942" lon="0.72944">
        <ele>144</ele>
        <time>2016-07-24T08:57:59Z</time>
      </trkpt>
      <trkpt lat="44.53951" lon="0.72937">
        <ele>144</ele>
        <time>2016-07-24T08:58:04Z</time>
      </trkpt>
      <trkpt lat="44.53954" lon="0.72929">
        <ele>144</ele>
        <time>2016-07-24T08:58:09Z</time>
      </trkpt>
      <trkpt lat="44.53966" lon="0.72923">
        <ele>144</ele>
        <time>2016-07-24T08:58:14Z</time>
      </trkpt>
      <trkpt lat="44.53975" lon="0.72917">
        <ele>144</ele>
        <time>2016-07-24T08:58:19Z</time>
      </trkpt>
      <trkpt lat="44.53994" lon="0.72917">
        <ele>143</ele>
        <time>2016-07-24T08:58:24Z</time>
      </trkpt>
      <trkpt lat="44.54018" lon="0.72903">
        <ele>143</ele>
        <time>2016-07-24T08:58:29Z</time>
      </trkpt>
      <trkpt lat="44.5405" lon="0.72874">
        <ele>142</ele>
        <time>2016-07-24T08:58:35Z</time>
      </trkpt>
      <trkpt lat="44.54069" lon="0.72855">
        <ele>142</ele>
        <time>2016-07-24T08:58:39Z</time>
      </trkpt>
      <trkpt lat="44.54095" lon="0.72837">
        <ele>142</ele>
        <time>2016-07-24T08:58:44Z</time>
      </trkpt>
      <trkpt lat="44.54121" lon="0.72837">
        <ele>142</ele>
        <time>2016-07-24T08:58:49Z</time>
      </trkpt>
      <trkpt lat="44.54148" lon="0.72842">
        <ele>142</ele>
        <time>2016-07-24T08:58:54Z</time>
      </trkpt>
      <trkpt lat="44.54171" lon="0.72834">
        <ele>141</ele>
        <time>2016-07-24T08:58:59Z</time>
      </trkpt>
      <trkpt lat="44.54204" lon="0.72811">
        <ele>140</ele>
        <time>2016-07-24T08:59:07Z</time>
      </trkpt>
      <trkpt lat="44.54231" lon="0.72794">
        <ele>138</ele>
        <time>2016-07-24T08:59:13Z</time>
      </trkpt>
      <trkpt lat="44.54235" lon="0.72791">
        <ele>138</ele>
        <time>2016-07-24T08:59:14Z</time>
      </trkpt>
      <trkpt lat="44.54263" lon="0.72769">
        <ele>137</ele>
        <time>2016-07-24T08:59:19Z</time>
      </trkpt>
      <trkpt lat="44.54284" lon="0.72744">
        <ele>136</ele>
        <time>2016-07-24T08:59:24Z</time>
      </trkpt>
      <trkpt lat="44.54305" lon="0.72726">
        <ele>136</ele>
        <time>2016-07-24T08:59:29Z</time>
      </trkpt>
      <trkpt lat="44.54334" lon="0.7271">
        <ele>136</ele>
        <time>2016-07-24T08:59:36Z</time>
      </trkpt>
      <trkpt lat="44.54345" lon="0.72703">
        <ele>136</ele>
        <time>2016-07-24T08:59:39Z</time>
      </trkpt>
      <trkpt lat="44.54368" lon="0.72686">
        <ele>137</ele>
        <time>2016-07-24T08:59:45Z</time>
      </trkpt>
      <trkpt lat="44.54383" lon="0.72679">
        <ele>137</ele>
        <time>2016-07-24T08:59:49Z</time>
      </trkpt>
      <trkpt lat="44.54403" lon="0.72662">
        <ele>138</ele>
        <time>2016-07-24T08:59:54Z</time>
      </trkpt>
      <trkpt lat="44.5442" lon="0.72654">
        <ele>139</ele>
        <time>2016-07-24T08:59:59Z</time>
      </trkpt>
      <trkpt lat="44.54438" lon="0.72645">
        <ele>140</ele>
        <time>2016-07-24T09:00:04Z</time>
      </trkpt>
      <trkpt lat="44.54457" lon="0.72639">
        <ele>140</ele>
        <time>2016-07-24T09:00:10Z</time>
      </trkpt>
      <trkpt lat="44.5447" lon="0.72635">
        <ele>141</ele>
        <time>2016-07-24T09:00:14Z</time>
      </trkpt>
      <trkpt lat="44.54486" lon="0.72629">
        <ele>140</ele>
        <time>2016-07-24T09:00:19Z</time>
      </trkpt>
      <trkpt lat="44.54503" lon="0.72625">
        <ele>140</ele>
        <time>2016-07-24T09:00:24Z</time>
      </trkpt>
      <trkpt lat="44.5452" lon="0.72615">
        <ele>140</ele>
        <time>2016-07-24T09:00:29Z</time>
      </trkpt>
      <trkpt lat="44.54536" lon="0.72607">
        <ele>141</ele>
        <time>2016-07-24T09:00:34Z</time>
      </trkpt>
      <trkpt lat="44.54551" lon="0.72599">
        <ele>142</ele>
        <time>2016-07-24T09:00:39Z</time>
      </trkpt>
      <trkpt lat="44.54565" lon="0.72589">
        <ele>142</ele>
        <time>2016-07-24T09:00:44Z</time>
      </trkpt>
      <trkpt lat="44.54578" lon="0.72582">
        <ele>143</ele>
        <time>2016-07-24T09:00:49Z</time>
      </trkpt>
      <trkpt lat="44.54596" lon="0.72568">
        <ele>143</ele>
        <time>2016-07-24T09:00:58Z</time>
      </trkpt>
      <trkpt lat="44.54598" lon="0.72565">
        <ele>143</ele>
        <time>2016-07-24T09:00:59Z</time>
      </trkpt>
      <trkpt lat="44.54608" lon="0.72556">
        <ele>143</ele>
        <time>2016-07-24T09:01:04Z</time>
      </trkpt>
      <trkpt lat="44.54617" lon="0.7255">
        <ele>144</ele>
        <time>2016-07-24T09:01:09Z</time>
      </trkpt>
      <trkpt lat="44.54626" lon="0.72541">
        <ele>144</ele>
        <time>2016-07-24T09:01:14Z</time>
      </trkpt>
      <trkpt lat="44.54637" lon="0.72534">
        <ele>144</ele>
        <time>2016-07-24T09:01:19Z</time>
      </trkpt>
      <trkpt lat="44.54646" lon="0.72525">
        <ele>144</ele>
        <time>2016-07-24T09:01:24Z</time>
      </trkpt>
      <trkpt lat="44.54658" lon="0.72512">
        <ele>144</ele>
        <time>2016-07-24T09:01:29Z</time>
      </trkpt>
      <trkpt lat="44.5467" lon="0.72502">
        <ele>144</ele>
        <time>2016-07-24T09:01:34Z</time>
      </trkpt>
      <trkpt lat="44.54683" lon="0.72489">
        <ele>144</ele>
        <time>2016-07-24T09:01:39Z</time>
      </trkpt>
      <trkpt lat="44.54693" lon="0.72467">
        <ele>144</ele>
        <time>2016-07-24T09:01:44Z</time>
      </trkpt>
      <trkpt lat="44.54702" lon="0.72454">
        <ele>143</ele>
        <time>2016-07-24T09:01:49Z</time>
      </trkpt>
      <trkpt lat="44.5472" lon="0.72435">
        <ele>143</ele>
        <time>2016-07-24T09:01:54Z</time>
      </trkpt>
      <trkpt lat="44.54733" lon="0.72419">
        <ele>142</ele>
        <time>2016-07-24T09:02:00Z</time>
      </trkpt>
      <trkpt lat="44.54749" lon="0.72409">
        <ele>142</ele>
        <time>2016-07-24T09:02:04Z</time>
      </trkpt>
      <trkpt lat="44.54781" lon="0.724">
        <ele>143</ele>
        <time>2016-07-24T09:02:12Z</time>
      </trkpt>
      <trkpt lat="44.54788" lon="0.72391">
        <ele>143</ele>
        <time>2016-07-24T09:02:14Z</time>
      </trkpt>
      <trkpt lat="44.54798" lon="0.72391">
        <ele>143</ele>
        <time>2016-07-24T09:02:19Z</time>
      </trkpt>
      <trkpt lat="44.5483" lon="0.72373">
        <ele>143</ele>
        <time>2016-07-24T09:02:28Z</time>
      </trkpt>
      <trkpt lat="44.54835" lon="0.72361">
        <ele>143</ele>
        <time>2016-07-24T09:02:31Z</time>
      </trkpt>
      <trkpt lat="44.54847" lon="0.72341">
        <ele>142</ele>
        <time>2016-07-24T09:02:37Z</time>
      </trkpt>
      <trkpt lat="44.54867" lon="0.7233">
        <ele>142</ele>
        <time>2016-07-24T09:02:43Z</time>
      </trkpt>
      <trkpt lat="44.54871" lon="0.72328">
        <ele>142</ele>
        <time>2016-07-24T09:02:44Z</time>
      </trkpt>
      <trkpt lat="44.54888" lon="0.72314">
        <ele>142</ele>
        <time>2016-07-24T09:02:49Z</time>
      </trkpt>
      <trkpt lat="44.54925" lon="0.72287">
        <ele>142</ele>
        <time>2016-07-24T09:02:58Z</time>
      </trkpt>
      <trkpt lat="44.5493" lon="0.72285">
        <ele>142</ele>
        <time>2016-07-24T09:02:59Z</time>
      </trkpt>
      <trkpt lat="44.5495" lon="0.72275">
        <ele>142</ele>
        <time>2016-07-24T09:03:04Z</time>
      </trkpt>
      <trkpt lat="44.5497" lon="0.72261">
        <ele>142</ele>
        <time>2016-07-24T09:03:09Z</time>
      </trkpt>
      <trkpt lat="44.54987" lon="0.72253">
        <ele>143</ele>
        <time>2016-07-24T09:03:14Z</time>
      </trkpt>
      <trkpt lat="44.55004" lon="0.72232">
        <ele>142</ele>
        <time>2016-07-24T09:03:19Z</time>
      </trkpt>
      <trkpt lat="44.55029" lon="0.72217">
        <ele>142</ele>
        <time>2016-07-24T09:03:25Z</time>
      </trkpt>
      <trkpt lat="44.55047" lon="0.722">
        <ele>142</ele>
        <time>2016-07-24T09:03:29Z</time>
      </trkpt>
      <trkpt lat="44.55067" lon="0.72184">
        <ele>141</ele>
        <time>2016-07-24T09:03:34Z</time>
      </trkpt>
      <trkpt lat="44.55086" lon="0.72173">
        <ele>140</ele>
        <time>2016-07-24T09:03:39Z</time>
      </trkpt>
      <trkpt lat="44.55116" lon="0.72158">
        <ele>140</ele>
        <time>2016-07-24T09:03:47Z</time>
      </trkpt>
      <trkpt lat="44.55124" lon="0.72153">
        <ele>140</ele>
        <time>2016-07-24T09:03:49Z</time>
      </trkpt>
      <trkpt lat="44.55145" lon="0.72145">
        <ele>140</ele>
        <time>2016-07-24T09:03:54Z</time>
      </trkpt>
      <trkpt lat="44.55167" lon="0.72135">
        <ele>141</ele>
        <time>2016-07-24T09:03:59Z</time>
      </trkpt>
      <trkpt lat="44.55207" lon="0.72106">
        <ele>142</ele>
        <time>2016-07-24T09:04:08Z</time>
      </trkpt>
      <trkpt lat="44.55211" lon="0.72102">
        <ele>142</ele>
        <time>2016-07-24T09:04:09Z</time>
      </trkpt>
      <trkpt lat="44.55236" lon="0.72097">
        <ele>143</ele>
        <time>2016-07-24T09:04:15Z</time>
      </trkpt>
      <trkpt lat="44.55256" lon="0.72085">
        <ele>144</ele>
        <time>2016-07-24T09:04:20Z</time>
      </trkpt>
      <trkpt lat="44.55273" lon="0.7208">
        <ele>144</ele>
        <time>2016-07-24T09:04:24Z</time>
      </trkpt>
      <trkpt lat="44.55299" lon="0.72067">
        <ele>145</ele>
        <time>2016-07-24T09:04:31Z</time>
      </trkpt>
      <trkpt lat="44.55308" lon="0.72062">
        <ele>146</ele>
        <time>2016-07-24T09:04:34Z</time>
      </trkpt>
      <trkpt lat="44.55324" lon="0.72053">
        <ele>146</ele>
        <time>2016-07-24T09:04:39Z</time>
      </trkpt>
      <trkpt lat="44.55344" lon="0.72042">
        <ele>147</ele>
        <time>2016-07-24T09:04:44Z</time>
      </trkpt>
      <trkpt lat="44.55363" lon="0.72034">
        <ele>147</ele>
        <time>2016-07-24T09:04:49Z</time>
      </trkpt>
      <trkpt lat="44.5538" lon="0.72024">
        <ele>148</ele>
        <time>2016-07-24T09:04:54Z</time>
      </trkpt>
      <trkpt lat="44.55399" lon="0.72007">
        <ele>147</ele>
        <time>2016-07-24T09:04:59Z</time>
      </trkpt>
      <trkpt lat="44.55422" lon="0.71997">
        <ele>148</ele>
        <time>2016-07-24T09:05:06Z</time>
      </trkpt>
      <trkpt lat="44.5543" lon="0.71993">
        <ele>148</ele>
        <time>2016-07-24T09:05:09Z</time>
      </trkpt>
      <trkpt lat="44.55448" lon="0.71983">
        <ele>148</ele>
        <time>2016-07-24T09:05:14Z</time>
      </trkpt>
      <trkpt lat="44.55463" lon="0.71973">
        <ele>149</ele>
        <time>2016-07-24T09:05:19Z</time>
      </trkpt>
      <trkpt lat="44.55479" lon="0.71955">
        <ele>148</ele>
        <time>2016-07-24T09:05:24Z</time>
      </trkpt>
      <trkpt lat="44.55492" lon="0.71941">
        <ele>148</ele>
        <time>2016-07-24T09:05:29Z</time>
      </trkpt>
      <trkpt lat="44.55504" lon="0.71927">
        <ele>147</ele>
        <time>2016-07-24T09:05:34Z</time>
      </trkpt>
      <trkpt lat="44.55518" lon="0.7191">
        <ele>147</ele>
        <time>2016-07-24T09:05:40Z</time>
      </trkpt>
      <trkpt lat="44.55535" lon="0.71887">
        <ele>146</ele>
        <time>2016-07-24T09:05:47Z</time>
      </trkpt>
      <trkpt lat="44.55543" lon="0.71878">
        <ele>145</ele>
        <time>2016-07-24T09:05:49Z</time>
      </trkpt>
      <trkpt lat="44.55557" lon="0.71848">
        <ele>143</ele>
        <time>2016-07-24T09:05:55Z</time>
      </trkpt>
      <trkpt lat="44.55544" lon="0.71815">
        <ele>141</ele>
        <time>2016-07-24T09:06:00Z</time>
      </trkpt>
      <trkpt lat="44.55534" lon="0.71791">
        <ele>141</ele>
        <time>2016-07-24T09:06:04Z</time>
      </trkpt>
      <trkpt lat="44.55521" lon="0.71764">
        <ele>141</ele>
        <time>2016-07-24T09:06:09Z</time>
      </trkpt>
      <trkpt lat="44.55507" lon="0.71717">
        <ele>141</ele>
        <time>2016-07-24T09:06:17Z</time>
      </trkpt>
      <trkpt lat="44.55503" lon="0.71707">
        <ele>141</ele>
        <time>2016-07-24T09:06:19Z</time>
      </trkpt>
      <trkpt lat="44.55494" lon="0.71677">
        <ele>142</ele>
        <time>2016-07-24T09:06:24Z</time>
      </trkpt>
      <trkpt lat="44.55486" lon="0.71646">
        <ele>144</ele>
        <time>2016-07-24T09:06:29Z</time>
      </trkpt>
      <trkpt lat="44.55475" lon="0.71616">
        <ele>146</ele>
        <time>2016-07-24T09:06:34Z</time>
      </trkpt>
      <trkpt lat="44.55471" lon="0.71583">
        <ele>148</ele>
        <time>2016-07-24T09:06:39Z</time>
      </trkpt>
      <trkpt lat="44.55468" lon="0.71553">
        <ele>150</ele>
        <time>2016-07-24T09:06:44Z</time>
      </trkpt>
      <trkpt lat="44.55464" lon="0.71513">
        <ele>153</ele>
        <time>2016-07-24T09:06:52Z</time>
      </trkpt>
      <trkpt lat="44.55464" lon="0.71491">
        <ele>155</ele>
        <time>2016-07-24T09:06:58Z</time>
      </trkpt>
      <trkpt lat="44.55464" lon="0.71487">
        <ele>155</ele>
        <time>2016-07-24T09:06:59Z</time>
      </trkpt>
      <trkpt lat="44.55466" lon="0.71455">
        <ele>155</ele>
        <time>2016-07-24T09:07:07Z</time>
      </trkpt>
      <trkpt lat="44.55464" lon="0.71431">
        <ele>155</ele>
        <time>2016-07-24T09:07:12Z</time>
      </trkpt>
      <trkpt lat="44.55465" lon="0.71423">
        <ele>155</ele>
        <time>2016-07-24T09:07:14Z</time>
      </trkpt>
      <trkpt lat="44.55464" lon="0.71403">
        <ele>154</ele>
        <time>2016-07-24T09:07:19Z</time>
      </trkpt>
      <trkpt lat="44.55464" lon="0.71381">
        <ele>153</ele>
        <time>2016-07-24T09:07:24Z</time>
      </trkpt>
      <trkpt lat="44.55463" lon="0.7136">
        <ele>151</ele>
        <time>2016-07-24T09:07:29Z</time>
      </trkpt>
      <trkpt lat="44.5546" lon="0.71339">
        <ele>150</ele>
        <time>2016-07-24T09:07:34Z</time>
      </trkpt>
      <trkpt lat="44.5545" lon="0.71315">
        <ele>148</ele>
        <time>2016-07-24T09:07:39Z</time>
      </trkpt>
      <trkpt lat="44.55429" lon="0.71286">
        <ele>145</ele>
        <time>2016-07-24T09:07:44Z</time>
      </trkpt>
      <trkpt lat="44.55401" lon="0.71254">
        <ele>142</ele>
        <time>2016-07-24T09:07:49Z</time>
      </trkpt>
      <trkpt lat="44.55345" lon="0.71184">
        <ele>136</ele>
        <time>2016-07-24T09:07:58Z</time>
      </trkpt>
      <trkpt lat="44.55314" lon="0.71135">
        <ele>134</ele>
        <time>2016-07-24T09:08:03Z</time>
      </trkpt>
      <trkpt lat="44.55308" lon="0.71125">
        <ele>135</ele>
        <time>2016-07-24T09:08:04Z</time>
      </trkpt>
      <trkpt lat="44.55282" lon="0.71073">
        <ele>136</ele>
        <time>2016-07-24T09:08:09Z</time>
      </trkpt>
      <trkpt lat="44.55253" lon="0.71012">
        <ele>135</ele>
        <time>2016-07-24T09:08:15Z</time>
      </trkpt>
      <trkpt lat="44.55236" lon="0.70974">
        <ele>135</ele>
        <time>2016-07-24T09:08:19Z</time>
      </trkpt>
      <trkpt lat="44.55242" lon="0.70943">
        <ele>137</ele>
        <time>2016-07-24T09:08:24Z</time>
      </trkpt>
      <trkpt lat="44.55259" lon="0.70892">
        <ele>139</ele>
        <time>2016-07-24T09:08:33Z</time>
      </trkpt>
      <trkpt lat="44.55261" lon="0.70885">
        <ele>140</ele>
        <time>2016-07-24T09:08:34Z</time>
      </trkpt>
      <trkpt lat="44.5527" lon="0.7086">
        <ele>141</ele>
        <time>2016-07-24T09:08:39Z</time>
      </trkpt>
      <trkpt lat="44.55277" lon="0.70838">
        <ele>143</ele>
        <time>2016-07-24T09:08:44Z</time>
      </trkpt>
      <trkpt lat="44.55283" lon="0.70817">
        <ele>144</ele>
        <time>2016-07-24T09:08:50Z</time>
      </trkpt>
      <trkpt lat="44.5529" lon="0.70792">
        <ele>145</ele>
        <time>2016-07-24T09:08:57Z</time>
      </trkpt>
      <trkpt lat="44.55293" lon="0.70774">
        <ele>146</ele>
        <time>2016-07-24T09:09:03Z</time>
      </trkpt>
      <trkpt lat="44.55293" lon="0.70772">
        <ele>146</ele>
        <time>2016-07-24T09:09:04Z</time>
      </trkpt>
      <trkpt lat="44.55295" lon="0.70755">
        <ele>147</ele>
        <time>2016-07-24T09:09:10Z</time>
      </trkpt>
      <trkpt lat="44.55298" lon="0.70745">
        <ele>147</ele>
        <time>2016-07-24T09:09:14Z</time>
      </trkpt>
      <trkpt lat="44.55301" lon="0.70732">
        <ele>147</ele>
        <time>2016-07-24T09:09:19Z</time>
      </trkpt>
      <trkpt lat="44.55304" lon="0.70719">
        <ele>147</ele>
        <time>2016-07-24T09:09:24Z</time>
      </trkpt>
      <trkpt lat="44.55308" lon="0.70706">
        <ele>147</ele>
        <time>2016-07-24T09:09:29Z</time>
      </trkpt>
      <trkpt lat="44.55312" lon="0.70693">
        <ele>147</ele>
        <time>2016-07-24T09:09:34Z</time>
      </trkpt>
      <trkpt lat="44.55315" lon="0.70679">
        <ele>147</ele>
        <time>2016-07-24T09:09:39Z</time>
      </trkpt>
      <trkpt lat="44.55322" lon="0.70665">
        <ele>147</ele>
        <time>2016-07-24T09:09:44Z</time>
      </trkpt>
      <trkpt lat="44.55326" lon="0.70644">
        <ele>146</ele>
        <time>2016-07-24T09:09:49Z</time>
      </trkpt>
      <trkpt lat="44.55329" lon="0.7061">
        <ele>144</ele>
        <time>2016-07-24T09:09:54Z</time>
      </trkpt>
      <trkpt lat="44.55343" lon="0.7057">
        <ele>140</ele>
        <time>2016-07-24T09:09:59Z</time>
      </trkpt>
      <trkpt lat="44.55356" lon="0.7051">
        <ele>134</ele>
        <time>2016-07-24T09:10:05Z</time>
      </trkpt>
      <trkpt lat="44.55368" lon="0.70469">
        <ele>129</ele>
        <time>2016-07-24T09:10:09Z</time>
      </trkpt>
      <trkpt lat="44.55384" lon="0.70411">
        <ele>123</ele>
        <time>2016-07-24T09:10:14Z</time>
      </trkpt>
      <trkpt lat="44.55395" lon="0.70311">
        <ele>115</ele>
        <time>2016-07-24T09:10:23Z</time>
      </trkpt>
      <trkpt lat="44.55397" lon="0.70301">
        <ele>114</ele>
        <time>2016-07-24T09:10:24Z</time>
      </trkpt>
      <trkpt lat="44.55399" lon="0.70254">
        <ele>113</ele>
        <time>2016-07-24T09:10:29Z</time>
      </trkpt>
      <trkpt lat="44.55403" lon="0.70209">
        <ele>112</ele>
        <time>2016-07-24T09:10:34Z</time>
      </trkpt>
      <trkpt lat="44.55407" lon="0.70169">
        <ele>111</ele>
        <time>2016-07-24T09:10:39Z</time>
      </trkpt>
      <trkpt lat="44.55412" lon="0.70132">
        <ele>111</ele>
        <time>2016-07-24T09:10:44Z</time>
      </trkpt>
      <trkpt lat="44.55415" lon="0.70103">
        <ele>110</ele>
        <time>2016-07-24T09:10:49Z</time>
      </trkpt>
      <trkpt lat="44.55428" lon="0.70053">
        <ele>110</ele>
        <time>2016-07-24T09:10:58Z</time>
      </trkpt>
      <trkpt lat="44.55428" lon="0.70049">
        <ele>109</ele>
        <time>2016-07-24T09:10:59Z</time>
      </trkpt>
      <trkpt lat="44.55436" lon="0.70021">
        <ele>109</ele>
        <time>2016-07-24T09:11:04Z</time>
      </trkpt>
      <trkpt lat="44.55445" lon="0.69987">
        <ele>108</ele>
        <time>2016-07-24T09:11:09Z</time>
      </trkpt>
      <trkpt lat="44.55455" lon="0.69955">
        <ele>108</ele>
        <time>2016-07-24T09:11:15Z</time>
      </trkpt>
      <trkpt lat="44.5547" lon="0.69915">
        <ele>107</ele>
        <time>2016-07-24T09:11:23Z</time>
      </trkpt>
      <trkpt lat="44.55471" lon="0.69909">
        <ele>107</ele>
        <time>2016-07-24T09:11:24Z</time>
      </trkpt>
      <trkpt lat="44.5548" lon="0.69882">
        <ele>106</ele>
        <time>2016-07-24T09:11:30Z</time>
      </trkpt>
      <trkpt lat="44.55485" lon="0.69862">
        <ele>105</ele>
        <time>2016-07-24T09:11:34Z</time>
      </trkpt>
      <trkpt lat="44.55488" lon="0.6985">
        <ele>104</ele>
        <time>2016-07-24T09:11:42Z</time>
      </trkpt>
      <trkpt lat="44.55488" lon="0.6985">
        <ele>104</ele>
        <time>2016-07-24T09:11:44Z</time>
      </trkpt>
      <trkpt lat="44.55489" lon="0.6985">
        <ele>104</ele>
        <time>2016-07-24T09:11:47Z</time>
      </trkpt>
      <trkpt lat="44.55489" lon="0.6985">
        <ele>104</ele>
        <time>2016-07-24T09:11:52Z</time>
      </trkpt>
      <trkpt lat="44.55489" lon="0.6985">
        <ele>104</ele>
        <time>2016-07-24T09:11:53Z</time>
      </trkpt>
      <trkpt lat="44.55489" lon="0.6985">
        <ele>104</ele>
        <time>2016-07-24T09:11:56Z</time>
      </trkpt>
      <trkpt lat="44.55489" lon="0.6985">
        <ele>104</ele>
        <time>2016-07-24T09:11:59Z</time>
      </trkpt>
      <trkpt lat="44.55489" lon="0.6985">
        <ele>104</ele>
        <time>2016-07-24T09:12:02Z</time>
      </trkpt>
      <trkpt lat="44.55487" lon="0.69852">
        <ele>104</ele>
        <time>2016-07-24T09:12:05Z</time>
      </trkpt>
      <trkpt lat="44.55489" lon="0.69849">
        <ele>104</ele>
        <time>2016-07-24T09:12:10Z</time>
      </trkpt>
      <trkpt lat="44.55491" lon="0.69828">
        <ele>102</ele>
        <time>2016-07-24T09:12:15Z</time>
      </trkpt>
      <trkpt lat="44.55482" lon="0.69808">
        <ele>101</ele>
        <time>2016-07-24T09:12:20Z</time>
      </trkpt>
      <trkpt lat="44.55471" lon="0.6977">
        <ele>97</ele>
        <time>2016-07-24T09:12:25Z</time>
      </trkpt>
      <trkpt lat="44.55447" lon="0.6968">
        <ele>90</ele>
        <time>2016-07-24T09:12:33Z</time>
      </trkpt>
      <trkpt lat="44.5544" lon="0.69657">
        <ele>90</ele>
        <time>2016-07-24T09:12:35Z</time>
      </trkpt>
      <trkpt lat="44.55441" lon="0.69598">
        <ele>90</ele>
        <time>2016-07-24T09:12:43Z</time>
      </trkpt>
      <trkpt lat="44.55441" lon="0.69567">
        <ele>91</ele>
        <time>2016-07-24T09:12:49Z</time>
      </trkpt>
      <trkpt lat="44.55444" lon="0.69555">
        <ele>91</ele>
        <time>2016-07-24T09:12:51Z</time>
      </trkpt>
      <trkpt lat="44.5546" lon="0.69522">
        <ele>92</ele>
        <time>2016-07-24T09:12:57Z</time>
      </trkpt>
      <trkpt lat="44.55467" lon="0.69506">
        <ele>92</ele>
        <time>2016-07-24T09:13:01Z</time>
      </trkpt>
      <trkpt lat="44.55472" lon="0.69487">
        <ele>93</ele>
        <time>2016-07-24T09:13:06Z</time>
      </trkpt>
      <trkpt lat="44.55476" lon="0.69471">
        <ele>93</ele>
        <time>2016-07-24T09:13:11Z</time>
      </trkpt>
      <trkpt lat="44.55486" lon="0.69457">
        <ele>94</ele>
        <time>2016-07-24T09:13:16Z</time>
      </trkpt>
      <trkpt lat="44.55485" lon="0.69443">
        <ele>94</ele>
        <time>2016-07-24T09:13:21Z</time>
      </trkpt>
      <trkpt lat="44.55455" lon="0.69432">
        <ele>92</ele>
        <time>2016-07-24T09:13:30Z</time>
      </trkpt>
      <trkpt lat="44.55451" lon="0.69432">
        <ele>92</ele>
        <time>2016-07-24T09:13:31Z</time>
      </trkpt>
      <trkpt lat="44.55432" lon="0.69427">
        <ele>93</ele>
        <time>2016-07-24T09:13:36Z</time>
      </trkpt>
      <trkpt lat="44.55412" lon="0.69418">
        <ele>94</ele>
        <time>2016-07-24T09:13:41Z</time>
      </trkpt>
      <trkpt lat="44.55392" lon="0.69412">
        <ele>95</ele>
        <time>2016-07-24T09:13:46Z</time>
      </trkpt>
      <trkpt lat="44.55372" lon="0.6941">
        <ele>97</ele>
        <time>2016-07-24T09:13:51Z</time>
      </trkpt>
      <trkpt lat="44.55351" lon="0.69408">
        <ele>99</ele>
        <time>2016-07-24T09:13:56Z</time>
      </trkpt>
      <trkpt lat="44.55316" lon="0.69404">
        <ele>102</ele>
        <time>2016-07-24T09:14:05Z</time>
      </trkpt>
      <trkpt lat="44.55312" lon="0.69403">
        <ele>102</ele>
        <time>2016-07-24T09:14:06Z</time>
      </trkpt>
      <trkpt lat="44.55288" lon="0.69402">
        <ele>103</ele>
        <time>2016-07-24T09:14:12Z</time>
      </trkpt>
      <trkpt lat="44.55272" lon="0.69402">
        <ele>103</ele>
        <time>2016-07-24T09:14:16Z</time>
      </trkpt>
      <trkpt lat="44.55237" lon="0.69404">
        <ele>102</ele>
        <time>2016-07-24T09:14:25Z</time>
      </trkpt>
      <trkpt lat="44.55227" lon="0.69402">
        <ele>101</ele>
        <time>2016-07-24T09:14:27Z</time>
      </trkpt>
      <trkpt lat="44.55208" lon="0.694">
        <ele>99</ele>
        <time>2016-07-24T09:14:31Z</time>
      </trkpt>
      <trkpt lat="44.55182" lon="0.69407">
        <ele>96</ele>
        <time>2016-07-24T09:14:36Z</time>
      </trkpt>
      <trkpt lat="44.55143" lon="0.69409">
        <ele>94</ele>
        <time>2016-07-24T09:14:43Z</time>
      </trkpt>
      <trkpt lat="44.55121" lon="0.69409">
        <ele>93</ele>
        <time>2016-07-24T09:14:47Z</time>
      </trkpt>
      <trkpt lat="44.55069" lon="0.69413">
        <ele>92</ele>
        <time>2016-07-24T09:14:56Z</time>
      </trkpt>
      <trkpt lat="44.55064" lon="0.69413">
        <ele>92</ele>
        <time>2016-07-24T09:14:57Z</time>
      </trkpt>
      <trkpt lat="44.55036" lon="0.69414">
        <ele>92</ele>
        <time>2016-07-24T09:15:02Z</time>
      </trkpt>
      <trkpt lat="44.55008" lon="0.69417">
        <ele>91</ele>
        <time>2016-07-24T09:15:07Z</time>
      </trkpt>
      <trkpt lat="44.54981" lon="0.69421">
        <ele>89</ele>
        <time>2016-07-24T09:15:12Z</time>
      </trkpt>
      <trkpt lat="44.54932" lon="0.69422">
        <ele>89</ele>
        <time>2016-07-24T09:15:22Z</time>
      </trkpt>
      <trkpt lat="44.54928" lon="0.69422">
        <ele>89</ele>
        <time>2016-07-24T09:15:23Z</time>
      </trkpt>
      <trkpt lat="44.54906" lon="0.69425">
        <ele>89</ele>
        <time>2016-07-24T09:15:28Z</time>
      </trkpt>
      <trkpt lat="44.5488" lon="0.69427">
        <ele>90</ele>
        <time>2016-07-24T09:15:33Z</time>
      </trkpt>
      <trkpt lat="44.54855" lon="0.69429">
        <ele>91</ele>
        <time>2016-07-24T09:15:38Z</time>
      </trkpt>
      <trkpt lat="44.5483" lon="0.69431">
        <ele>92</ele>
        <time>2016-07-24T09:15:43Z</time>
      </trkpt>
      <trkpt lat="44.54796" lon="0.69434">
        <ele>93</ele>
        <time>2016-07-24T09:15:50Z</time>
      </trkpt>
      <trkpt lat="44.54783" lon="0.69433">
        <ele>93</ele>
        <time>2016-07-24T09:15:53Z</time>
      </trkpt>
      <trkpt lat="44.5476" lon="0.69435">
        <ele>93</ele>
        <time>2016-07-24T09:15:58Z</time>
      </trkpt>
      <trkpt lat="44.54739" lon="0.69434">
        <ele>94</ele>
        <time>2016-07-24T09:16:03Z</time>
      </trkpt>
      <trkpt lat="44.54718" lon="0.69436">
        <ele>94</ele>
        <time>2016-07-24T09:16:08Z</time>
      </trkpt>
      <trkpt lat="44.54695" lon="0.69434">
        <ele>94</ele>
        <time>2016-07-24T09:16:13Z</time>
      </trkpt>
      <trkpt lat="44.54672" lon="0.69434">
        <ele>95</ele>
        <time>2016-07-24T09:16:18Z</time>
      </trkpt>
      <trkpt lat="44.54647" lon="0.69437">
        <ele>95</ele>
        <time>2016-07-24T09:16:23Z</time>
      </trkpt>
      <trkpt lat="44.54624" lon="0.69438">
        <ele>95</ele>
        <time>2016-07-24T09:16:28Z</time>
      </trkpt>
      <trkpt lat="44.54601" lon="0.69438">
        <ele>96</ele>
        <time>2016-07-24T09:16:33Z</time>
      </trkpt>
      <trkpt lat="44.54578" lon="0.69441">
        <ele>96</ele>
        <time>2016-07-24T09:16:38Z</time>
      </trkpt>
      <trkpt lat="44.54557" lon="0.69446">
        <ele>97</ele>
        <time>2016-07-24T09:16:43Z</time>
      </trkpt>
      <trkpt lat="44.54526" lon="0.69448">
        <ele>98</ele>
        <time>2016-07-24T09:16:50Z</time>
      </trkpt>
      <trkpt lat="44.54511" lon="0.69448">
        <ele>99</ele>
        <time>2016-07-24T09:16:53Z</time>
      </trkpt>
      <trkpt lat="44.54492" lon="0.69443">
        <ele>101</ele>
        <time>2016-07-24T09:16:58Z</time>
      </trkpt>
      <trkpt lat="44.54469" lon="0.69445">
        <ele>102</ele>
        <time>2016-07-24T09:17:03Z</time>
      </trkpt>
      <trkpt lat="44.5443" lon="0.69448">
        <ele>103</ele>
        <time>2016-07-24T09:17:11Z</time>
      </trkpt>
      <trkpt lat="44.54412" lon="0.6945">
        <ele>103</ele>
        <time>2016-07-24T09:17:15Z</time>
      </trkpt>
      <trkpt lat="44.54395" lon="0.6945">
        <ele>103</ele>
        <time>2016-07-24T09:17:19Z</time>
      </trkpt>
      <trkpt lat="44.54373" lon="0.69448">
        <ele>103</ele>
        <time>2016-07-24T09:17:24Z</time>
      </trkpt>
      <trkpt lat="44.54348" lon="0.69448">
        <ele>103</ele>
        <time>2016-07-24T09:17:30Z</time>
      </trkpt>
      <trkpt lat="44.54331" lon="0.69444">
        <ele>104</ele>
        <time>2016-07-24T09:17:34Z</time>
      </trkpt>
      <trkpt lat="44.54311" lon="0.69435">
        <ele>105</ele>
        <time>2016-07-24T09:17:39Z</time>
      </trkpt>
      <trkpt lat="44.54281" lon="0.69422">
        <ele>105</ele>
        <time>2016-07-24T09:17:46Z</time>
      </trkpt>
      <trkpt lat="44.54267" lon="0.69418">
        <ele>105</ele>
        <time>2016-07-24T09:17:49Z</time>
      </trkpt>
      <trkpt lat="44.54234" lon="0.6939">
        <ele>103</ele>
        <time>2016-07-24T09:17:58Z</time>
      </trkpt>
      <trkpt lat="44.54229" lon="0.69388">
        <ele>103</ele>
        <time>2016-07-24T09:17:59Z</time>
      </trkpt>
      <trkpt lat="44.54196" lon="0.69357">
        <ele>101</ele>
        <time>2016-07-24T09:18:07Z</time>
      </trkpt>
      <trkpt lat="44.54177" lon="0.69333">
        <ele>101</ele>
        <time>2016-07-24T09:18:12Z</time>
      </trkpt>
      <trkpt lat="44.54168" lon="0.69323">
        <ele>100</ele>
        <time>2016-07-24T09:18:14Z</time>
      </trkpt>
      <trkpt lat="44.54144" lon="0.69298">
        <ele>97</ele>
        <time>2016-07-24T09:18:19Z</time>
      </trkpt>
      <trkpt lat="44.54124" lon="0.69266">
        <ele>93</ele>
        <time>2016-07-24T09:18:24Z</time>
      </trkpt>
      <trkpt lat="44.54114" lon="0.69226">
        <ele>90</ele>
        <time>2016-07-24T09:18:29Z</time>
      </trkpt>
      <trkpt lat="44.54119" lon="0.69157">
        <ele>88</ele>
        <time>2016-07-24T09:18:36Z</time>
      </trkpt>
      <trkpt lat="44.54123" lon="0.69125">
        <ele>89</ele>
        <time>2016-07-24T09:18:39Z</time>
      </trkpt>
      <trkpt lat="44.54123" lon="0.6907">
        <ele>89</ele>
        <time>2016-07-24T09:18:44Z</time>
      </trkpt>
      <trkpt lat="44.54104" lon="0.69016">
        <ele>88</ele>
        <time>2016-07-24T09:18:50Z</time>
      </trkpt>
      <trkpt lat="44.54085" lon="0.68993">
        <ele>86</ele>
        <time>2016-07-24T09:18:54Z</time>
      </trkpt>
      <trkpt lat="44.54062" lon="0.68973">
        <ele>85</ele>
        <time>2016-07-24T09:18:59Z</time>
      </trkpt>
      <trkpt lat="44.54034" lon="0.6896">
        <ele>86</ele>
        <time>2016-07-24T09:19:04Z</time>
      </trkpt>
      <trkpt lat="44.53995" lon="0.68936">
        <ele>87</ele>
        <time>2016-07-24T09:19:12Z</time>
      </trkpt>
      <trkpt lat="44.53983" lon="0.68927">
        <ele>87</ele>
        <time>2016-07-24T09:19:15Z</time>
      </trkpt>
      <trkpt lat="44.53967" lon="0.68912">
        <ele>88</ele>
        <time>2016-07-24T09:19:19Z</time>
      </trkpt>
      <trkpt lat="44.53949" lon="0.68902">
        <ele>89</ele>
        <time>2016-07-24T09:19:24Z</time>
      </trkpt>
      <trkpt lat="44.53932" lon="0.68893">
        <ele>90</ele>
        <time>2016-07-24T09:19:29Z</time>
      </trkpt>
      <trkpt lat="44.53914" lon="0.68881">
        <ele>91</ele>
        <time>2016-07-24T09:19:34Z</time>
      </trkpt>
      <trkpt lat="44.53899" lon="0.68874">
        <ele>92</ele>
        <time>2016-07-24T09:19:40Z</time>
      </trkpt>
      <trkpt lat="44.53893" lon="0.68858">
        <ele>93</ele>
        <time>2016-07-24T09:19:47Z</time>
      </trkpt>
      <trkpt lat="44.53895" lon="0.68836">
        <ele>94</ele>
        <time>2016-07-24T09:19:53Z</time>
      </trkpt>
      <trkpt lat="44.53895" lon="0.68822">
        <ele>94</ele>
        <time>2016-07-24T09:19:56Z</time>
      </trkpt>
      <trkpt lat="44.53897" lon="0.68803">
        <ele>94</ele>
        <time>2016-07-24T09:20:00Z</time>
      </trkpt>
      <trkpt lat="44.53898" lon="0.68777">
        <ele>95</ele>
        <time>2016-07-24T09:20:05Z</time>
      </trkpt>
      <trkpt lat="44.53901" lon="0.68752">
        <ele>95</ele>
        <time>2016-07-24T09:20:10Z</time>
      </trkpt>
      <trkpt lat="44.53903" lon="0.68724">
        <ele>95</ele>
        <time>2016-07-24T09:20:15Z</time>
      </trkpt>
      <trkpt lat="44.53905" lon="0.68696">
        <ele>96</ele>
        <time>2016-07-24T09:20:20Z</time>
      </trkpt>
      <trkpt lat="44.53906" lon="0.68666">
        <ele>96</ele>
        <time>2016-07-24T09:20:25Z</time>
      </trkpt>
      <trkpt lat="44.53907" lon="0.68635">
        <ele>95</ele>
        <time>2016-07-24T09:20:30Z</time>
      </trkpt>
      <trkpt lat="44.53905" lon="0.68608">
        <ele>94</ele>
        <time>2016-07-24T09:20:35Z</time>
      </trkpt>
      <trkpt lat="44.53903" lon="0.68582">
        <ele>93</ele>
        <time>2016-07-24T09:20:40Z</time>
      </trkpt>
      <trkpt lat="44.53904" lon="0.68554">
        <ele>93</ele>
        <time>2016-07-24T09:20:45Z</time>
      </trkpt>
      <trkpt lat="44.53887" lon="0.68545">
        <ele>94</ele>
        <time>2016-07-24T09:20:50Z</time>
      </trkpt>
      <trkpt lat="44.53867" lon="0.68541">
        <ele>96</ele>
        <time>2016-07-24T09:20:55Z</time>
      </trkpt>
      <trkpt lat="44.53846" lon="0.68537">
        <ele>97</ele>
        <time>2016-07-24T09:21:01Z</time>
      </trkpt>
      <trkpt lat="44.53826" lon="0.68525">
        <ele>99</ele>
        <time>2016-07-24T09:21:08Z</time>
      </trkpt>
      <trkpt lat="44.53814" lon="0.68518">
        <ele>100</ele>
        <time>2016-07-24T09:21:12Z</time>
      </trkpt>
      <trkpt lat="44.53799" lon="0.68511">
        <ele>102</ele>
        <time>2016-07-24T09:21:17Z</time>
      </trkpt>
      <trkpt lat="44.53788" lon="0.68516">
        <ele>103</ele>
        <time>2016-07-24T09:21:20Z</time>
      </trkpt>
      <trkpt lat="44.53775" lon="0.68528">
        <ele>104</ele>
        <time>2016-07-24T09:21:25Z</time>
      </trkpt>
      <trkpt lat="44.53768" lon="0.68546">
        <ele>104</ele>
        <time>2016-07-24T09:21:30Z</time>
      </trkpt>
      <trkpt lat="44.53765" lon="0.68559">
        <ele>104</ele>
        <time>2016-07-24T09:21:35Z</time>
      </trkpt>
      <trkpt lat="44.53754" lon="0.68595">
        <ele>104</ele>
        <time>2016-07-24T09:21:43Z</time>
      </trkpt>
      <trkpt lat="44.53752" lon="0.68606">
        <ele>104</ele>
        <time>2016-07-24T09:21:45Z</time>
      </trkpt>
      <trkpt lat="44.53756" lon="0.68632">
        <ele>103</ele>
        <time>2016-07-24T09:21:50Z</time>
      </trkpt>
      <trkpt lat="44.53745" lon="0.68646">
        <ele>104</ele>
        <time>2016-07-24T09:21:55Z</time>
      </trkpt>
      <trkpt lat="44.53733" lon="0.68652">
        <ele>104</ele>
        <time>2016-07-24T09:22:00Z</time>
      </trkpt>
      <trkpt lat="44.53722" lon="0.68647">
        <ele>105</ele>
        <time>2016-07-24T09:22:05Z</time>
      </trkpt>
      <trkpt lat="44.53716" lon="0.68628">
        <ele>107</ele>
        <time>2016-07-24T09:22:10Z</time>
      </trkpt>
      <trkpt lat="44.5371" lon="0.68604">
        <ele>109</ele>
        <time>2016-07-24T09:22:16Z</time>
      </trkpt>
      <trkpt lat="44.53707" lon="0.68587">
        <ele>110</ele>
        <time>2016-07-24T09:22:20Z</time>
      </trkpt>
      <trkpt lat="44.53702" lon="0.68568">
        <ele>112</ele>
        <time>2016-07-24T09:22:25Z</time>
      </trkpt>
      <trkpt lat="44.53694" lon="0.68541">
        <ele>114</ele>
        <time>2016-07-24T09:22:30Z</time>
      </trkpt>
      <trkpt lat="44.53687" lon="0.68509">
        <ele>118</ele>
        <time>2016-07-24T09:22:35Z</time>
      </trkpt>
      <trkpt lat="44.53686" lon="0.6849">
        <ele>119</ele>
        <time>2016-07-24T09:22:40Z</time>
      </trkpt>
      <trkpt lat="44.537" lon="0.68482">
        <ele>118</ele>
        <time>2016-07-24T09:22:49Z</time>
      </trkpt>
      <trkpt lat="44.53701" lon="0.68482">
        <ele>118</ele>
        <time>2016-07-24T09:22:50Z</time>
      </trkpt>
      <trkpt lat="44.53703" lon="0.68481">
        <ele>117</ele>
        <time>2016-07-24T09:22:55Z</time>
      </trkpt>
      <trkpt lat="44.53704" lon="0.68481">
        <ele>117</ele>
        <time>2016-07-24T09:23:00Z</time>
      </trkpt>
      <trkpt lat="44.53703" lon="0.68481">
        <ele>117</ele>
        <time>2016-07-24T09:23:03Z</time>
      </trkpt>
    </trkseg>
  </trk>
</gpx>